GFSMW_700_spd_000.txt.gz
Wind_Speed
20 21 25 27 26 26 27 29 30 30 31 30 30 31 33 33 33 33 32 33 35 36 36 37 36 37 38 37 36 35 34 33 35 34 35 35 36 37 40 37 33 33 34
17 21 22 23 27 29 31 32 32 33 33 33 33 33 33 34 35 36 38 38 36 36 39 41 40 38 36 38 37 36 35 36 37 36 38 39 39 40 41 37 37 37 34
14 18 20 23 25 27 29 31 34 34 35 35 34 33 33 34 36 39 40 43 40 42 44 42 41 41 40 36 33 32 32 34 35 37 38 39 42 43 42 40 35 36 39
19 19 21 26 30 32 32 30 31 33 33 31 31 30 31 32 36 38 40 40 44 44 43 42 41 39 37 36 35 31 30 32 33 35 38 40 43 45 47 44 45 45 39
19 24 30 31 31 29 26 24 27 31 32 29 29 28 31 35 38 41 41 41 41 42 42 42 42 41 40 39 38 36 33 31 34 36 39 42 45 46 48 49 48 50 41
23 25 28 26 27 27 31 35 35 34 33 32 31 31 34 38 40 40 39 42 42 43 44 45 45 45 44 43 43 42 42 39 38 38 38 42 45 47 48 52 52 52 52
22 26 27 23 26 29 30 31 32 32 35 34 35 37 39 38 39 40 42 43 45 47 47 48 48 48 47 46 45 45 45 45 44 43 43 42 43 48 51 52 55 54 55
29 32 28 25 28 32 31 31 32 32 35 37 40 42 41 39 41 42 44 47 47 50 51 50 50 49 47 46 45 46 47 48 49 48 45 44 43 42 46 51 52 55 56
38 36 32 29 32 35 35 32 32 35 37 39 42 42 42 42 43 41 45 48 51 54 51 51 51 49 48 46 46 48 49 48 47 46 43 43 44 40 46 49 51 53 56
38 36 38 38 38 39 38 36 33 36 39 43 42 43 43 40 41 41 48 51 51 50 50 49 48 47 46 46 45 46 46 45 44 42 41 42 44 42 41 48 51 51 53
35 40 39 38 42 44 43 37 35 36 38 42 42 41 39 38 41 48 47 47 49 47 47 46 46 46 45 44 44 44 44 44 45 45 45 44 45 48 45 44 47 48 50
39 45 47 48 47 45 44 43 39 34 37 41 39 40 39 44 43 42 45 46 46 46 46 46 46 45 44 45 46 47 46 46 46 46 46 47 47 50 52 48 49 51 50
44 48 46 50 43 42 43 45 43 34 36 38 39 44 39 38 40 43 44 46 47 47 46 47 46 46 46 46 48 48 48 49 49 49 49 48 47 52 54 53 50 51 52
52 52 49 45 44 42 43 43 41 34 36 39 42 37 36 39 39 43 45 47 46 47 46 46 46 46 47 48 48 49 51 52 52 51 49 48 48 50 53 49 49 51 52
52 47 49 45 43 40 39 39 38 39 41 39 37 34 35 37 41 44 48 48 46 45 45 46 46 47 48 49 49 51 52 53 52 49 48 47 48 49 50 52 50 49 52
50 53 52 44 40 36 35 37 38 40 40 35 33 31 35 39 42 45 48 46 46 44 45 45 47 48 48 49 50 49 48 46 46 45 43 43 44 46 48 52 52 50 54
60 54 43 40 38 33 34 34 39 40 30 29 28 33 37 41 42 47 47 46 44 44 45 46 48 48 50 48 46 42 42 42 41 38 36 36 36 37 41 47 51 54 54
50 45 45 42 38 34 34 37 38 26 25 23 29 36 39 42 44 48 46 44 45 45 45 46 46 49 46 41 37 35 36 37 37 37 37 37 38 38 38 39 42 49 52
48 45 44 39 36 31 33 39 25 21 20 26 32 37 40 41 45 45 44 45 46 45 44 43 46 45 40 34 32 33 35 38 39 38 38 37 37 37 38 38 39 42 47
46 46 39 35 33 34 28 21 19 19 23 28 33 36 39 43 42 43 43 44 45 43 41 43 43 38 35 30 32 34 38 40 39 37 35 32 30 28 31 37 38 39 40
50 40 33 32 28 22 21 18 18 22 25 30 34 38 38 40 41 41 42 43 41 39 41 42 35 30 31 32 30 30 32 33 34 33 32 31 31 31 29 30 37 37 35
40 33 29 25 21 22 17 17 21 24 28 31 36 36 37 39 40 40 41 39 38 40 41 38 28 27 28 27 29 31 31 32 35 34 33 30 29 30 30 31 33 32 36
34 28 23 21 19 17 17 20 22 25 29 32 34 35 36 37 38 40 38 35 37 40 40 31 27 27 24 29 30 28 25 23 24 24 24 24 25 27 27 28 32 30 35
30 24 20 18 17 17 20 21 23 26 30 31 33 34 35 35 36 35 33 35 37 40 34 27 26 25 26 27 27 23 20 17 15 14 14 14 15 16 12 12 23 29 33
25 19 17 16 17 19 21 22 25 28 30 30 31 33 33 34 32 30 31 33 35 39 31 26 26 26 24 23 23 21 19 15 11 7 5 6 9 6 3 10 17 24 28
20 16 14 15 19 20 23 25 26 28 28 29 31 31 32 31 30 29 28 30 34 33 24 21 21 20 20 18 18 17 16 12 7 5 4 4 4 4 4 8 14 21 25

GFSMW_700_spd_003.txt.gz
Wind_Speed
15 20 25 24 27 33 32 33 35 36 35 35 36 38 38 39 37 38 38 36 35 36 35 36 38 39 39 40 40 38 37 38 40 39 36 37 35 35 35 33 34 34 34
14 18 19 20 22 26 28 30 31 35 33 36 36 36 37 38 37 38 40 36 36 36 37 40 38 39 40 40 41 39 36 37 38 41 41 39 37 36 40 36 34 36 36
13 17 22 24 24 26 32 35 37 36 35 30 36 35 34 34 37 37 38 39 41 40 40 41 39 40 38 37 36 37 37 35 36 37 40 41 41 42 41 41 41 40 39
19 24 25 28 32 34 37 33 30 28 30 31 30 36 34 35 29 21 26 33 36 39 38 36 37 38 37 37 37 32 35 36 35 34 34 37 41 43 47 44 45 44 44
22 24 28 31 33 35 33 32 31 33 35 39 39 35 36 34 34 35 39 41 39 40 41 42 42 43 42 41 40 40 38 36 36 33 31 35 38 40 45 49 46 46 45
21 21 21 25 26 29 28 31 31 31 35 36 39 35 37 36 37 40 44 43 41 43 43 46 47 48 50 49 47 44 43 43 41 39 37 37 37 38 39 48 50 51 48
15 18 21 22 20 27 32 35 35 36 34 40 39 39 41 41 42 43 46 42 41 42 45 47 48 51 53 52 50 49 47 45 44 44 43 42 42 41 42 44 53 54 54
19 21 22 22 23 26 31 35 41 43 38 38 43 42 45 46 45 47 50 46 44 47 46 48 51 55 55 53 51 49 48 46 46 46 46 47 48 46 45 45 45 48 56
25 24 24 22 23 27 32 41 44 45 41 37 44 46 48 47 47 54 49 48 49 46 48 52 55 54 54 52 50 48 48 47 46 47 46 43 45 46 45 46 48 47 50
24 25 24 24 29 40 38 38 41 41 39 38 46 47 51 50 48 51 46 46 45 48 50 52 51 50 48 47 46 46 45 43 42 42 42 41 41 41 41 46 49 53 54
26 24 26 28 33 38 41 37 38 39 39 43 48 47 50 48 50 48 45 45 48 49 48 47 48 48 47 45 45 44 42 41 41 40 41 41 41 41 42 41 45 51 52
28 26 29 37 37 34 42 44 45 42 43 46 44 48 47 49 50 46 47 47 43 44 46 48 50 49 47 46 45 43 42 42 44 44 44 44 43 43 43 45 48 50 52
29 32 35 38 36 42 47 46 45 43 44 41 44 47 47 49 43 46 42 40 42 45 48 51 51 48 47 46 44 45 45 47 47 47 47 47 45 45 44 45 49 51 52
32 38 38 38 50 43 44 44 45 44 41 41 43 45 45 42 45 39 38 39 43 47 49 51 49 48 46 46 46 47 49 49 50 52 53 51 49 48 47 48 48 52 54
40 40 51 53 47 46 44 45 44 44 40 40 42 42 42 43 36 36 37 42 46 48 52 51 47 44 46 46 48 49 49 52 54 53 50 48 46 44 43 45 49 51 47
41 45 49 52 47 43 44 43 41 39 37 39 43 43 36 32 32 36 41 45 48 51 49 46 45 46 46 47 47 47 51 52 50 48 44 41 41 41 40 41 44 47 53
39 52 49 47 47 47 44 40 32 29 30 39 41 29 29 30 35 41 45 47 50 49 46 45 46 47 45 44 46 47 49 47 44 42 39 36 34 35 36 37 38 41 47
52 52 52 49 46 42 41 35 35 34 40 39 28 26 28 32 39 42 45 48 46 46 45 46 46 43 43 44 46 44 42 41 39 39 38 38 36 36 37 38 39 40 40
47 47 51 48 44 38 35 35 35 35 27 24 25 26 30 37 41 44 43 44 45 44 46 44 41 44 44 44 39 37 37 39 39 39 38 38 38 37 36 38 40 41 41
48 52 50 47 39 34 32 28 24 22 23 25 26 30 35 40 43 42 42 43 43 46 42 39 42 44 42 33 32 34 36 38 39 38 36 32 30 27 27 31 34 38 39
51 50 46 37 34 30 26 23 23 22 23 25 29 34 37 40 40 41 41 42 44 41 37 39 41 39 30 29 29 30 34 36 37 37 39 37 33 31 30 31 33 34 30
53 53 44 36 28 22 22 21 15 22 26 29 32 35 37 36 38 40 40 41 38 38 39 39 39 28 25 26 29 31 32 32 32 31 28 26 28 30 31 32 32 33 34
55 50 38 30 20 21 20 18 22 25 28 30 33 34 34 35 37 39 39 36 36 38 39 41 33 23 21 24 27 29 31 29 27 24 22 19 20 23 26 28 32 33 34
53 39 30 21 20 21 19 22 25 27 29 31 32 31 32 34 35 36 35 34 35 38 38 39 26 21 20 24 27 29 27 22 19 18 18 17 18 20 21 21 19 22 28
37 27 22 21 21 20 23 26 27 28 30 30 30 30 32 33 34 33 33 31 32 36 38 31 23 21 22 23 24 26 26 20 15 14 15 15 16 17 14 8 6 9 18
25 20 21 21 20 22 25 27 28 29 29 28 29 31 32 33 33 32 31 30 30 31 32 22 18 17 19 18 19 22 21 21 19 15 13 14 14 12 9 3 2 6 12

GFSMW_700_spd_006.txt.gz
Wind_Speed
13 15 23 32 25 23 27 28 30 30 32 32 33 34 36 36 38 37 40 40 38 36 33 34 37 37 37 38 39 39 39 37 37 39 39 39 37 36 36 40 39 36 30
12 13 22 24 22 24 24 25 29 35 36 32 32 32 33 35 37 37 40 41 36 37 39 37 37 38 39 40 40 40 39 35 35 39 40 41 39 35 39 40 39 38 36
12 14 19 23 28 28 28 31 35 34 35 34 27 34 36 32 35 38 37 36 32 35 35 38 38 39 41 39 37 36 35 37 35 35 37 40 43 42 36 39 38 40 44
15 19 22 26 28 33 36 34 34 34 34 37 39 32 38 40 35 36 37 31 28 32 36 37 34 33 38 40 39 37 37 39 41 40 38 37 41 45 47 43 40 41 42
22 22 22 24 31 31 32 30 29 31 32 34 37 40 34 38 37 37 39 37 37 42 45 45 48 42 37 43 44 43 42 42 44 42 41 39 39 39 45 50 47 46 43
26 25 21 29 31 30 31 28 32 32 32 33 34 39 41 36 41 42 45 47 48 48 50 54 53 42 40 42 44 46 49 50 48 45 44 43 41 40 40 43 45 47 48
19 20 28 28 25 35 30 34 40 42 41 39 37 39 40 42 41 45 49 49 52 51 47 49 53 42 42 42 46 49 52 52 50 46 43 42 42 41 41 43 46 47 47
13 28 24 25 29 29 33 36 35 36 40 43 46 46 43 45 46 47 51 54 49 50 55 58 53 43 47 48 48 52 53 51 48 46 43 42 42 42 42 44 45 49 49
26 25 28 24 26 29 34 41 43 34 36 38 41 44 46 49 52 53 56 51 49 51 57 57 49 46 45 48 49 51 50 48 46 46 44 43 42 42 42 42 44 45 52
31 28 29 28 29 34 46 49 44 43 40 40 41 43 46 51 51 55 56 53 54 56 52 50 44 43 45 46 48 49 47 45 44 43 43 42 41 41 42 42 44 45 46
32 33 28 29 37 43 53 47 49 43 41 41 41 45 46 45 45 51 53 54 53 51 45 41 41 42 45 46 47 47 44 43 42 40 39 40 39 41 42 42 45 46 46
32 24 26 34 46 55 53 50 50 49 47 46 47 47 44 39 42 47 51 50 44 42 42 39 41 44 47 48 49 46 43 41 41 40 40 40 40 42 42 42 43 46 49
28 30 33 41 47 51 49 48 46 48 50 49 49 47 42 39 39 43 43 43 43 39 38 39 42 46 48 51 46 42 41 41 42 42 43 44 44 44 43 43 44 44 46
28 38 46 49 53 52 52 50 49 50 51 48 47 44 39 39 40 40 43 39 36 37 39 42 45 48 50 46 42 43 45 45 45 45 46 47 47 48 48 46 47 47 48
38 56 45 44 53 51 52 48 47 49 47 46 41 37 40 38 38 43 34 34 35 39 43 46 47 47 46 43 44 46 46 45 45 46 48 50 50 50 48 47 46 46 49
57 53 44 54 50 48 51 48 46 43 40 42 41 36 32 34 36 29 33 34 40 43 45 46 45 45 43 45 45 44 43 45 48 49 49 47 44 41 39 39 40 41 44
50 53 53 54 48 49 51 48 46 44 41 39 36 34 34 35 31 33 33 38 42 45 45 44 44 44 45 43 41 43 47 48 47 45 41 39 36 35 34 34 35 36 37
49 53 50 53 54 51 48 45 36 37 37 34 37 39 32 32 31 34 37 41 44 44 44 43 44 44 40 41 44 46 46 42 38 36 36 37 36 35 35 36 37 38 37
51 49 51 49 52 52 45 37 35 31 31 34 30 28 30 30 33 38 40 41 42 43 42 43 40 40 42 42 44 39 36 37 37 35 36 36 36 33 30 32 35 38 40
49 51 53 53 54 49 39 33 27 23 20 24 24 27 30 34 36 39 39 39 40 41 42 39 38 40 42 42 33 30 33 34 37 37 37 35 34 32 30 30 30 34 33
52 52 53 52 49 38 30 22 19 16 19 25 28 30 33 35 37 37 37 39 40 40 39 38 39 40 41 31 27 27 32 35 37 36 33 30 27 27 27 28 32 31 28
56 53 51 50 38 28 21 19 17 21 23 27 32 33 34 35 34 36 36 37 38 38 38 39 39 39 28 24 25 27 28 31 34 32 27 24 21 20 19 22 25 27 29
51 49 47 40 28 23 23 22 21 23 27 30 31 33 32 32 33 35 36 37 37 37 37 39 39 30 20 21 22 24 28 29 27 22 19 18 18 17 17 20 22 24 27
51 46 38 26 23 23 23 22 24 26 28 30 31 31 31 32 33 34 35 36 36 36 36 38 36 23 18 20 21 24 26 26 23 19 17 18 17 16 17 18 17 19 23
42 36 25 20 20 23 24 26 27 29 30 31 31 30 30 32 33 33 34 35 34 34 35 36 29 20 19 19 23 25 25 26 25 24 22 19 17 14 13 13 11 7 6
34 22 17 22 22 22 26 30 30 31 31 30 29 30 31 33 33 33 32 33 32 28 30 31 23 17 17 19 20 22 23 23 22 23 22 22 16 8 8 9 7 5 4

GFSMW_700_spd_009.txt.gz
Wind_Speed
19 23 19 18 25 29 27 27 28 27 30 32 30 28 29 28 29 30 34 38 35 31 30 34 38 38 37 36 37 38 39 41 41 41 39 39 39 37 36 38 42 45 43
12 14 16 23 26 26 26 26 27 29 30 28 27 29 30 31 32 32 33 36 37 37 36 33 35 38 36 35 37 37 38 36 39 41 40 40 37 36 36 39 39 43 46
11 16 16 18 21 22 33 35 32 29 30 32 32 32 34 35 32 34 35 37 38 35 33 35 34 35 38 40 40 38 34 34 32 33 34 39 42 40 37 37 38 38 41
17 23 25 28 25 32 38 27 30 28 32 35 36 35 33 34 35 34 35 38 41 42 40 37 38 39 41 44 47 44 44 39 35 34 36 38 41 45 47 41 40 38 40
21 25 28 23 30 34 36 29 31 31 32 33 34 36 38 35 33 35 38 41 43 43 39 41 44 43 38 38 41 53 41 40 40 41 41 43 44 44 46 51 46 43 41
26 27 29 30 31 35 34 32 35 42 43 38 33 32 36 38 39 38 39 40 44 46 48 50 48 45 45 53 57 35 46 46 44 42 43 45 48 48 45 48 47 46 44
27 29 32 32 27 32 34 35 35 42 47 41 39 39 42 44 46 47 46 44 45 49 52 50 54 56 56 59 50 59 59 45 42 41 44 46 47 45 44 44 48 48 44
22 29 26 29 31 35 37 40 39 40 46 41 38 40 41 46 49 52 49 50 50 52 56 58 59 61 61 62 56 51 42 40 41 42 44 45 45 44 42 43 44 48 47
31 26 32 31 33 36 37 36 39 48 49 44 37 35 38 43 43 46 49 53 56 58 59 62 59 58 54 50 44 41 40 39 42 45 46 45 44 43 41 41 41 44 50
30 36 38 39 36 40 42 39 49 48 49 46 44 47 45 46 43 44 48 55 56 57 59 54 47 45 45 42 35 36 38 42 44 44 43 43 42 42 41 40 40 42 46
34 30 29 31 33 35 43 56 48 48 50 50 51 46 45 46 43 41 43 47 48 49 46 40 41 42 37 34 35 38 41 43 44 42 40 40 40 41 41 41 41 43 43
31 34 35 37 39 44 56 52 51 52 51 50 50 53 52 45 40 37 39 43 41 37 39 41 37 33 34 36 39 42 44 43 41 39 38 39 38 39 41 42 42 43 44
38 41 41 45 51 54 50 49 52 51 48 54 54 54 49 41 39 36 35 34 33 36 34 34 34 36 37 40 41 42 41 40 39 40 41 41 40 40 40 42 44 46 46
46 47 47 52 46 49 49 51 48 50 52 54 53 50 42 40 36 37 33 34 34 30 33 34 35 37 39 39 40 40 40 41 42 43 42 41 41 42 42 43 43 45 48
47 53 55 50 48 49 48 50 51 51 52 47 48 50 45 39 38 39 35 32 30 32 34 37 39 39 38 39 39 42 44 44 43 42 42 43 44 45 47 47 47 47 47
56 46 46 51 49 49 50 51 52 50 44 41 44 45 39 40 41 34 30 27 29 34 38 39 39 39 39 40 42 42 42 43 44 45 45 45 45 44 43 42 42 42 43
46 50 50 48 48 50 51 50 49 45 42 35 37 35 35 39 31 34 32 31 35 37 38 37 38 38 40 40 39 40 44 46 47 46 43 40 36 35 35 35 36 38 39
49 51 48 48 51 49 48 49 46 41 35 30 28 29 30 30 30 30 32 34 36 36 35 36 37 39 37 38 40 42 44 46 41 37 35 36 34 32 33 35 36 36 36
48 48 51 51 49 49 49 47 39 31 26 24 22 23 26 27 31 33 34 35 34 34 35 36 37 37 37 37 40 43 43 37 35 34 34 36 36 33 32 36 37 36 36
48 51 51 52 53 48 48 37 28 26 25 22 22 21 27 31 34 35 33 33 34 35 36 37 37 36 37 39 41 36 33 33 35 34 35 35 36 34 31 32 33 35 35
49 49 50 52 49 47 38 26 24 23 23 20 20 25 31 34 33 32 32 33 34 35 36 36 36 35 37 39 33 28 29 30 31 34 32 29 26 25 25 25 28 29 27
50 52 53 51 46 38 28 24 23 23 20 24 27 29 31 31 30 31 32 33 33 34 35 36 33 33 35 29 24 23 23 25 27 29 27 23 20 19 19 20 20 20 22
53 54 53 45 35 27 24 23 22 24 25 27 29 29 29 28 28 31 33 33 33 33 35 34 32 33 28 20 18 19 21 22 24 25 24 22 21 20 17 16 18 20 21
52 47 40 34 24 21 23 23 23 24 26 28 28 28 27 28 30 31 32 31 32 33 35 33 31 31 20 17 17 18 20 23 25 25 23 23 20 16 14 13 14 16 18
42 32 27 20 19 24 24 25 25 26 27 27 28 28 28 30 30 31 30 30 31 34 36 32 31 29 18 16 18 20 21 24 26 25 23 22 18 9 6 6 9 11 7
34 27 19 18 21 22 23 26 29 28 28 28 29 29 29 29 30 29 28 29 29 31 30 28 28 22 19 16 16 17 19 21 22 23 25 24 15 6 6 7 8 6 5

GFSMW_700_spd_012.txt.gz
Wind_Speed
16 16 17 15 16 20 24 23 29 27 27 26 26 28 28 28 28 28 28 27 24 24 26 30 32 32 33 35 34 34 34 33 36 37 38 34 36 35 36 40 42 45 45
12 11 7 10 14 17 17 22 29 25 26 26 28 31 31 31 30 29 31 32 32 31 32 33 34 35 37 38 36 36 36 38 38 39 36 39 36 34 31 35 37 39 44
10 10 12 13 17 17 16 28 33 29 29 30 32 35 34 33 32 32 33 34 36 37 38 38 39 36 39 41 39 41 43 44 44 42 42 43 44 40 35 32 32 35 36
13 15 22 30 28 22 27 34 36 30 30 35 37 39 39 38 34 35 35 35 38 40 40 42 43 42 43 43 46 47 46 46 47 45 47 48 47 45 47 38 37 36 37
18 25 26 26 27 29 33 36 39 36 33 36 40 43 43 41 39 36 37 39 41 42 42 43 46 48 47 47 50 50 52 47 46 47 58 50 50 45 44 47 43 39 39
17 20 25 27 29 37 38 41 39 37 33 32 41 45 39 41 39 37 38 39 44 47 47 44 47 50 52 54 54 54 53 50 50 58 55 51 45 43 44 46 46 48 42
25 28 28 33 34 36 42 40 38 32 32 34 46 39 39 39 38 39 41 41 47 51 48 48 52 53 56 58 58 57 62 57 59 47 55 58 43 43 44 47 49 49 51
29 26 30 32 37 41 31 26 32 32 35 50 45 42 41 39 41 42 43 45 42 47 51 54 56 57 57 56 60 63 61 55 53 55 55 46 43 41 43 45 48 51 52
27 25 34 38 35 29 30 30 36 41 49 57 50 45 44 39 38 41 44 45 42 40 47 53 58 59 56 52 44 46 45 48 50 48 45 43 43 43 42 44 45 49 55
34 35 39 40 42 45 42 43 46 53 54 49 49 49 45 43 45 47 46 41 35 37 46 49 52 53 42 43 41 41 42 42 42 41 41 42 43 43 43 43 46 48 51
30 35 39 37 35 38 44 49 54 51 49 49 49 49 51 52 50 45 36 33 33 35 39 38 38 37 40 41 38 37 37 39 41 41 42 44 42 41 41 42 44 47 48
35 38 37 39 40 47 55 51 48 48 49 49 50 52 53 52 45 37 36 35 34 35 38 36 35 36 35 37 37 38 39 40 42 43 42 42 40 40 41 42 44 46 47
33 34 37 47 49 50 46 49 49 48 50 53 53 53 52 48 43 40 35 32 31 29 32 34 35 36 36 37 38 40 41 41 42 42 41 40 41 43 43 44 45 46 48
38 39 49 50 42 46 46 46 48 50 52 52 51 50 49 40 42 40 34 33 34 31 30 32 34 36 37 38 39 40 40 40 41 41 43 44 43 42 41 42 43 45 47
46 47 49 45 47 49 46 47 50 51 50 49 48 44 42 40 43 40 38 37 29 26 28 32 34 36 38 38 39 39 41 43 43 41 40 40 42 43 44 46 46 47 48
50 44 41 50 46 44 48 47 48 49 50 49 43 36 32 34 39 35 32 33 33 31 31 34 36 37 37 38 39 42 43 43 43 43 43 43 45 45 44 44 44 45 46
38 41 40 43 44 46 48 50 51 49 47 41 32 25 21 26 31 33 33 32 33 33 35 36 35 36 37 38 40 41 42 43 44 44 45 42 36 33 34 34 36 39 40
38 36 40 45 45 49 50 51 50 47 40 30 23 22 22 24 27 30 32 34 35 35 35 35 35 36 37 38 39 40 42 43 43 39 33 33 33 32 35 37 38 39 39
34 35 39 45 49 51 51 51 47 38 29 26 25 25 25 27 27 32 36 36 35 34 34 35 36 37 37 38 38 40 40 40 32 29 30 33 35 35 35 39 41 41 39
38 41 47 51 52 51 50 46 39 29 26 25 25 22 22 27 32 35 35 33 33 34 35 35 35 37 38 36 36 38 36 29 29 27 28 29 32 32 30 31 32 35 31
42 46 47 48 48 48 45 37 30 26 23 22 21 25 26 31 32 32 32 32 33 34 35 34 34 37 37 34 35 30 27 27 28 28 28 28 27 26 23 23 25 26 25
45 46 47 46 44 41 33 28 24 24 25 25 25 28 30 31 30 30 31 32 34 35 34 34 33 34 30 31 27 23 22 24 27 26 27 27 27 26 24 22 19 19 20
48 48 45 40 35 30 25 23 24 25 25 26 29 30 30 29 29 30 31 32 33 34 34 34 33 30 26 25 19 18 20 20 20 23 27 29 29 26 23 19 16 15 17
51 49 38 31 26 25 23 22 19 23 24 27 28 27 28 28 30 30 31 32 33 33 33 33 32 27 24 18 15 15 15 15 18 23 29 32 30 20 11 7 8 11 14
42 37 30 26 27 26 25 27 26 23 26 27 27 26 28 29 29 30 31 30 31 32 33 33 32 28 23 15 13 14 14 17 20 23 28 28 17 9 6 5 7 7 8
38 31 28 28 28 32 31 25 24 27 27 27 26 27 29 31 31 29 28 29 29 29 31 31 29 24 23 15 12 11 12 15 19 22 24 26 14 7 5 5 5 5 5

GFSMW_700_spd_015.txt.gz
Wind_Speed
13 14 9 11 9 13 18 20 18 23 27 26 31 29 28 28 29 31 31 31 30 30 30 31 31 32 33 33 33 34 33 33 33 34 34 36 37 35 36 36 36 38 46
6 9 5 5 7 13 19 22 19 28 28 26 30 31 30 29 33 32 32 34 33 32 33 33 34 34 36 37 38 39 39 37 37 38 38 42 38 36 34 35 38 40 39
6 9 9 14 18 16 17 18 27 28 27 29 30 36 40 35 36 31 31 34 36 37 37 37 37 38 39 41 42 43 44 43 41 42 43 47 48 44 41 41 40 42 42
13 12 17 21 22 25 30 32 31 34 33 35 37 36 40 43 45 37 34 33 36 39 40 40 40 41 44 46 44 46 48 48 46 46 46 47 51 50 51 43 41 42 46
20 22 24 28 31 31 30 34 35 34 34 37 36 36 38 45 49 44 42 40 39 41 42 42 42 44 47 49 48 48 52 51 52 52 53 50 53 51 52 58 50 45 44
18 19 23 27 29 29 33 33 32 33 38 37 38 39 40 53 53 47 43 44 44 45 47 48 47 48 52 56 52 53 57 55 58 60 53 56 55 52 52 55 56 51 46
17 20 25 23 24 28 30 31 32 33 40 40 42 46 51 49 45 45 47 46 46 45 46 47 49 50 54 58 55 61 56 63 65 58 58 58 53 48 49 53 56 57 50
22 22 21 22 27 28 29 31 32 36 43 46 49 51 49 47 45 45 46 45 48 50 52 51 46 44 52 57 62 57 60 59 53 54 48 45 49 49 55 57 53 56 58
22 21 20 23 25 26 31 37 41 44 49 55 52 48 48 47 46 47 49 50 50 49 45 40 38 40 46 55 55 55 56 47 44 43 46 49 50 49 50 50 50 51 58
27 21 24 30 33 35 40 43 48 52 55 48 50 50 49 50 52 53 51 46 40 35 32 28 32 39 44 49 41 38 43 45 42 42 43 45 47 49 49 50 50 51 54
27 29 35 37 36 40 43 48 48 48 49 51 50 50 52 54 55 53 48 38 32 30 30 29 30 38 43 44 41 39 39 40 42 42 44 46 47 48 49 49 49 49 49
31 35 37 43 43 46 50 51 49 47 46 47 48 49 51 54 54 53 46 35 34 32 28 28 30 32 36 37 38 40 42 44 45 45 45 46 45 46 45 45 45 46 46
37 39 40 46 48 43 42 45 44 43 43 45 48 50 51 51 50 44 38 35 39 36 29 31 32 34 35 37 40 44 45 46 46 45 44 43 42 43 43 44 46 48 49
43 46 49 45 38 40 41 41 43 43 47 51 52 53 52 48 39 35 35 39 40 35 33 29 29 30 34 38 41 43 44 43 42 41 41 42 42 42 42 42 43 45 47
49 48 42 41 40 39 38 39 44 50 55 55 51 51 48 36 31 33 37 35 32 30 31 30 32 32 35 38 40 41 42 42 42 40 40 40 41 42 44 46 46 47 49
49 49 46 44 42 41 43 46 49 54 56 56 51 43 32 23 27 23 25 27 30 32 32 32 33 36 38 39 41 43 43 43 42 42 41 41 43 43 45 46 46 45 46
48 45 42 38 40 44 44 47 50 51 54 51 44 32 24 22 24 28 30 32 34 36 36 37 37 38 39 40 42 42 43 42 41 42 43 44 43 39 36 35 36 38 40
49 41 41 43 43 44 49 51 52 53 49 42 32 31 26 27 27 26 27 33 35 37 37 36 37 38 39 41 41 41 41 41 40 41 42 36 32 31 33 35 37 38 39
42 38 41 44 45 47 50 51 50 46 35 30 29 29 26 24 25 30 32 35 37 37 36 36 38 40 40 39 39 40 39 37 38 34 29 30 32 32 33 36 37 36 34
40 42 44 48 50 50 50 48 42 34 32 28 27 28 30 31 29 32 34 35 36 36 37 37 38 39 39 38 38 38 36 37 29 26 26 29 32 34 33 34 35 34 27
42 46 48 49 49 47 42 36 30 28 29 30 30 31 30 31 32 33 34 34 35 37 36 37 37 37 38 37 37 34 35 29 26 26 26 26 28 29 29 30 30 29 25
47 48 47 46 43 41 35 31 30 29 28 24 30 29 30 33 34 33 33 35 36 35 36 36 36 34 34 35 32 31 27 25 26 24 25 27 28 29 26 23 22 20 18
46 47 45 42 37 32 32 31 27 25 27 31 31 28 31 33 32 33 34 35 35 36 35 35 35 33 31 30 27 24 21 21 21 22 25 29 32 25 15 11 9 9 12
45 45 44 39 33 30 33 32 30 29 29 27 30 31 31 31 33 34 35 35 34 34 34 34 34 32 30 25 22 18 17 15 15 18 22 27 26 16 11 9 10 11 11
44 43 39 35 31 31 32 32 28 27 29 31 31 31 31 33 34 34 34 33 32 33 33 33 34 33 28 21 18 15 11 11 14 17 21 24 18 12 11 11 10 10 10
42 39 35 33 32 30 27 25 27 29 30 29 30 31 33 34 33 32 30 29 30 30 31 31 32 30 26 22 16 12 9 9 13 16 18 21 19 10 8 7 8 9 9

GFSMW_700_spd_018.txt.gz
Wind_Speed
8 13 15 10 10 12 15 18 23 25 24 31 29 27 24 27 27 31 31 31 31 31 32 32 33 33 33 32 32 33 34 34 34 35 34 33 33 33 35 36 37 38 38
3 6 7 5 6 9 11 16 19 20 25 28 28 27 27 27 27 32 31 35 33 34 35 36 35 37 38 38 38 38 39 39 37 37 36 37 35 33 34 36 35 35 40
2 6 9 13 17 18 18 16 17 24 27 29 30 31 31 35 36 37 38 43 36 37 40 41 41 40 42 43 42 42 43 44 43 42 39 42 40 36 37 37 37 35 37
9 12 15 18 20 20 21 22 25 27 28 29 31 33 36 40 41 44 48 47 44 41 41 43 46 45 45 46 44 43 46 47 49 49 50 46 45 49 44 41 41 37 34
13 15 17 20 23 23 22 24 27 29 31 33 34 35 38 42 47 51 50 48 44 44 45 47 50 51 50 50 48 46 48 52 55 56 53 53 51 55 51 49 40 39 39
14 16 18 21 21 22 22 26 28 30 33 35 36 38 44 49 51 46 47 49 49 48 47 47 49 52 52 52 53 52 53 55 59 61 60 58 59 59 61 56 53 52 47
18 18 20 20 23 26 28 29 31 33 33 33 37 44 47 44 46 47 49 48 49 50 51 51 52 53 55 55 53 51 52 56 62 64 66 61 60 59 57 57 54 51 48
19 18 19 21 25 28 29 30 32 33 36 40 42 43 44 47 49 48 48 48 50 51 51 52 52 50 47 45 43 42 47 60 56 62 45 44 42 47 47 46 49 53 56
19 17 17 21 26 28 30 33 37 42 47 52 54 53 51 49 45 46 49 52 52 50 49 47 45 42 37 34 31 40 49 56 46 39 43 40 44 43 41 43 46 49 56
23 17 20 25 32 38 43 48 50 51 50 48 48 45 43 45 48 50 52 53 54 53 43 35 32 30 28 27 34 40 47 42 42 43 39 39 40 43 43 44 46 48 52
29 29 32 37 45 50 51 53 53 50 49 45 42 43 47 51 55 56 54 54 52 43 34 30 32 32 26 30 34 36 38 41 39 37 39 41 42 44 46 46 47 49 51
30 34 39 43 49 49 51 47 43 43 42 40 43 50 53 53 54 57 57 53 43 36 33 35 34 31 31 32 32 33 35 38 40 43 45 46 45 45 45 45 45 46 46
35 40 43 47 47 45 42 42 42 41 42 46 51 52 54 57 57 54 48 41 35 34 37 38 33 30 30 30 33 34 36 39 42 44 45 44 43 43 42 42 44 45 46
43 46 48 47 46 44 42 42 40 42 46 50 54 56 57 56 51 43 36 32 30 33 33 32 31 30 32 32 34 35 37 40 41 41 41 41 41 42 42 42 42 43 45
46 47 48 45 50 42 38 41 44 48 52 55 58 57 57 50 40 33 31 26 26 28 29 29 36 30 30 32 35 37 40 41 40 39 39 39 40 40 41 43 43 46 47
47 46 46 54 44 38 44 47 47 49 54 58 57 54 44 34 33 29 29 33 34 33 35 35 35 35 36 36 38 40 42 43 43 41 39 39 39 40 42 43 44 44 43
48 50 48 37 41 43 45 48 50 53 55 55 49 34 34 30 30 28 29 29 31 33 34 35 35 35 36 38 40 42 43 42 40 39 40 39 39 40 39 36 34 34 35
49 44 38 42 41 43 46 50 51 51 50 44 34 31 29 32 31 31 33 34 33 35 35 35 35 36 36 39 40 41 40 38 37 39 37 38 35 30 32 34 34 35 34
36 33 38 41 43 46 50 50 49 48 39 33 31 31 31 32 33 34 32 34 34 35 35 36 37 38 38 39 40 40 38 36 37 34 33 30 29 29 31 34 36 36 33
33 38 40 43 46 46 48 48 46 39 34 33 33 34 33 34 35 33 34 35 35 35 37 37 37 38 38 38 38 38 37 36 33 29 24 26 27 28 31 34 35 35 32
37 40 42 43 45 46 45 43 39 36 35 34 33 35 36 36 32 34 36 35 35 36 37 38 37 37 37 37 37 36 36 34 31 24 24 24 24 28 32 33 31 29 26
40 41 44 44 44 42 40 38 34 31 34 36 32 34 31 33 35 35 34 36 38 39 39 38 35 34 34 35 35 35 33 30 26 24 23 24 26 28 22 15 13 13 13
42 41 43 43 43 41 37 35 32 32 32 31 29 31 33 34 35 36 37 38 38 38 37 35 35 34 32 32 32 30 28 24 22 21 22 22 25 21 13 11 12 13 13
40 40 42 41 39 37 35 33 31 29 30 31 32 32 33 33 36 37 37 37 36 34 34 34 34 33 31 30 28 23 20 18 16 16 17 19 22 15 9 10 13 14 14
38 40 41 39 37 36 36 36 30 28 30 31 31 32 33 35 36 35 34 33 32 33 34 34 34 34 31 28 23 20 16 13 12 13 15 17 19 14 11 11 12 13 12
37 38 39 37 37 37 36 35 29 29 30 30 31 32 34 34 33 32 29 28 30 31 32 32 33 31 29 25 21 16 14 12 11 12 13 15 17 14 9 9 9 9 10

GFSMW_700_spd_021.txt.gz
Wind_Speed
9 8 10 12 11 10 10 13 14 17 18 21 24 26 23 22 25 26 29 31 33 33 38 35 33 36 38 37 38 37 37 38 36 38 37 37 36 36 35 36 35 36 37
2 1 5 8 5 8 6 9 12 15 18 22 25 26 26 25 25 26 30 31 37 39 42 40 39 37 38 40 40 42 44 43 40 42 41 45 44 41 36 36 35 36 37
1 3 6 9 12 14 14 13 13 17 22 25 27 29 31 32 33 34 37 39 42 40 41 41 41 42 44 45 44 44 46 49 47 43 44 48 50 45 44 43 41 38 38
4 8 11 14 15 15 14 14 18 21 25 29 33 35 36 37 37 41 46 46 42 42 44 46 44 45 46 47 48 48 47 48 51 50 51 53 52 52 50 48 49 49 45
9 13 14 16 15 18 20 21 23 26 29 33 36 38 39 41 42 45 46 44 46 48 49 46 45 46 47 49 51 51 52 50 50 53 54 56 55 54 54 56 53 52 50
15 17 18 18 21 23 25 26 28 31 33 36 39 44 47 46 46 47 46 46 46 43 44 47 48 49 50 50 52 54 56 56 53 52 55 57 56 61 59 61 63 59 55
18 14 17 20 24 28 29 32 34 34 40 45 48 46 46 46 44 44 43 44 45 48 50 51 51 50 51 52 51 49 49 50 49 48 49 53 56 64 67 65 67 65 63
21 18 18 20 23 25 29 32 37 40 42 44 46 43 41 40 40 40 42 46 50 52 55 56 55 55 53 50 44 40 38 38 35 38 44 50 50 49 43 41 45 47 49
24 23 22 22 23 27 31 34 41 43 46 43 40 40 41 41 42 45 51 54 52 54 56 57 56 53 46 39 34 30 25 31 36 37 29 27 31 38 39 34 34 37 41
27 24 22 25 29 35 42 46 48 48 45 43 43 44 43 44 48 52 52 54 56 57 57 51 44 37 31 32 32 30 33 34 36 38 40 42 41 35 34 35 37 41 44
27 29 32 36 41 46 49 50 50 47 42 40 41 42 47 50 52 53 55 56 55 50 41 32 28 29 32 33 30 31 32 33 33 33 33 34 36 37 37 37 39 40 42
28 36 38 40 42 44 45 44 42 39 38 38 44 46 48 52 55 58 58 53 44 35 30 27 32 33 32 33 32 32 33 33 33 33 35 37 39 40 40 40 40 42 42
32 38 38 40 39 38 42 41 36 35 40 43 46 49 53 56 59 57 49 36 31 27 26 31 33 34 34 33 34 33 32 32 32 34 36 37 38 39 39 40 41 42 44
39 41 43 44 44 43 38 36 37 39 42 45 50 53 56 56 52 40 33 30 29 28 27 29 32 34 35 35 30 29 30 32 33 34 35 36 38 39 40 40 41 41 43
47 46 46 47 45 37 35 35 39 42 46 50 53 54 53 46 36 33 32 31 31 31 33 32 32 31 29 29 30 31 33 35 37 37 37 37 37 37 38 40 40 40 41
47 47 45 45 37 36 37 41 43 45 48 51 51 48 37 30 30 23 32 31 31 34 34 32 31 31 31 32 33 35 37 37 38 38 36 36 36 36 37 37 38 39 40
51 48 43 35 35 37 40 43 44 46 48 48 44 37 32 31 28 33 34 33 34 34 33 33 32 31 32 34 35 36 37 38 36 36 36 35 35 34 34 34 33 31 31
43 38 40 33 33 37 39 42 44 46 45 42 37 33 33 32 32 33 34 35 34 33 33 32 32 33 34 36 36 36 36 36 35 36 35 35 32 31 29 29 30 31 31
33 33 29 32 34 37 40 42 43 43 42 39 35 33 35 35 34 34 34 32 33 33 32 33 35 37 37 37 37 37 36 35 35 35 34 31 28 25 26 28 30 32 34
24 28 31 33 36 38 41 43 42 40 38 34 33 35 34 34 35 33 33 33 33 34 36 36 36 36 37 35 34 35 36 36 35 33 28 25 23 24 25 29 33 35 31
25 30 33 36 38 39 40 41 39 37 34 31 31 32 31 30 32 32 33 34 36 37 37 36 36 35 34 34 35 35 35 36 35 29 24 20 20 23 24 28 25 19 16
28 31 34 36 38 40 40 38 37 35 34 30 28 30 30 31 32 33 35 37 37 36 35 34 33 33 33 32 33 33 32 32 29 25 21 20 21 22 24 19 15 13 13
33 37 38 38 40 41 40 36 34 34 32 29 30 30 30 31 33 35 36 35 35 33 32 33 33 32 32 31 30 29 28 25 23 21 19 19 20 20 18 12 11 10 11
38 39 39 39 39 40 38 33 32 33 31 29 29 29 30 32 33 34 34 33 31 32 32 33 33 33 31 29 27 23 20 18 15 14 15 16 17 18 10 9 7 9 10
40 38 39 39 39 40 35 31 32 33 30 28 29 30 31 32 33 32 30 29 30 31 34 34 33 32 30 27 26 22 18 14 12 11 13 13 14 14 10 7 7 10 10
37 38 39 40 40 38 31 30 32 31 28 28 29 30 30 30 30 28 26 27 29 31 33 32 32 29 29 29 23 18 15 13 11 11 11 10 11 11 10 9 9 8 8

GFSMW_700_spd_024.txt.gz
Wind_Speed
13 14 15 17 17 17 16 16 16 19 20 22 20 21 22 23 24 25 27 27 29 33 36 38 38 37 37 36 35 38 40 40 41 44 45 44 45 45 43 42 41 39 40
10 11 11 10 10 10 12 15 18 21 21 21 23 25 26 28 30 32 33 35 36 37 42 44 41 40 42 44 42 41 43 44 43 46 46 50 45 47 50 49 44 41 40
8 9 9 10 13 15 18 19 19 20 22 24 28 31 34 35 36 36 36 37 40 43 47 44 43 45 46 46 43 43 44 46 45 46 48 48 44 35 35 50 49 45 42
8 9 11 13 16 18 19 19 20 23 26 30 34 37 38 38 42 47 47 46 46 48 46 42 45 46 44 45 46 48 49 51 53 51 49 54 52 55 43 45 52 52 54
8 10 13 16 18 19 20 23 27 29 31 35 38 42 42 44 51 53 51 47 46 44 43 43 42 43 46 48 49 51 54 56 56 55 54 51 59 56 62 61 49 53 56
10 15 17 19 22 24 25 27 30 32 35 38 42 43 51 47 47 50 45 44 42 39 39 45 48 50 51 53 54 56 56 55 55 54 53 54 55 60 59 62 59 54 49
18 21 19 19 23 26 27 29 30 33 37 40 44 49 49 49 46 43 43 42 41 43 49 52 53 53 55 57 59 58 56 53 49 48 47 48 48 50 52 54 55 54 59
21 24 26 26 26 26 28 30 33 37 42 45 48 48 44 40 39 39 40 44 48 52 54 55 56 57 57 58 55 48 44 41 40 40 36 34 36 40 45 47 46 42 44
27 27 22 21 23 26 30 33 38 41 42 43 42 41 39 37 39 42 44 47 51 54 56 57 55 51 47 42 36 34 34 33 31 32 34 29 30 29 32 33 34 34 34
26 22 19 23 26 29 33 38 40 40 42 42 40 36 36 41 44 47 50 54 57 58 54 45 39 35 29 28 32 34 32 29 28 31 34 34 35 36 38 38 33 33 35
28 25 26 30 33 35 37 40 41 40 37 35 35 37 41 45 49 53 56 57 54 45 36 32 29 26 29 33 31 30 27 28 29 30 31 33 34 34 34 34 33 33 34
27 31 33 36 39 38 40 36 37 37 33 35 38 42 46 49 52 53 52 45 37 32 28 28 26 29 33 36 38 38 36 34 33 33 35 35 33 34 35 36 38 38 37
31 34 40 42 44 43 37 34 34 32 34 38 41 46 50 52 52 50 43 36 33 30 30 28 26 29 32 35 35 34 32 31 31 31 31 31 32 33 34 36 38 40 41
33 39 43 44 39 36 34 34 34 33 37 41 44 48 50 51 47 41 34 32 21 23 23 25 30 32 34 33 31 30 31 31 31 32 32 33 34 35 37 39 40 41 41
36 45 47 41 35 35 37 35 35 38 39 42 45 47 47 41 34 29 28 24 29 27 28 35 35 32 31 32 30 30 31 32 33 34 34 34 35 36 38 39 38 38 39
49 53 43 37 32 35 32 32 33 37 40 42 44 43 39 33 31 29 29 31 34 36 37 36 33 31 31 31 32 33 34 35 35 35 34 34 36 36 36 34 36 36 35
48 44 29 30 30 29 30 33 35 38 40 41 41 39 36 33 31 32 33 33 35 35 33 32 32 31 32 34 35 36 36 36 35 34 33 34 34 34 33 33 32 32 32
44 34 31 30 26 28 32 35 37 38 40 39 37 36 35 34 34 33 34 34 32 32 31 32 33 34 35 36 36 36 36 35 33 33 33 34 32 30 30 29 28 29 29
38 36 28 26 28 31 34 37 39 40 40 38 36 33 34 34 33 32 32 32 31 32 33 34 35 35 34 35 34 34 33 33 32 32 33 32 30 27 26 26 27 27 27
32 24 23 27 31 34 38 40 40 40 39 38 36 34 31 31 32 31 31 32 33 35 35 34 34 33 33 33 33 34 34 34 34 32 30 29 26 24 23 24 25 27 26
27 29 31 36 39 39 41 42 42 41 40 38 36 32 29 31 30 30 32 33 35 34 33 32 32 33 33 32 33 34 33 33 33 30 27 23 22 20 21 22 24 24 16
32 34 36 38 40 40 43 42 42 41 39 38 35 30 30 29 30 32 33 33 32 31 30 32 32 34 34 33 31 30 29 29 29 26 23 20 19 19 20 21 21 14 12
37 38 41 43 41 43 45 45 42 41 38 37 33 29 28 29 31 32 31 30 29 29 31 32 34 33 32 31 28 27 27 25 23 22 19 18 17 17 18 18 12 10 10
41 43 45 44 43 44 44 44 43 40 34 35 29 27 28 28 29 29 29 28 28 29 32 34 35 33 31 30 28 28 22 19 17 15 13 14 13 15 14 9 8 9 7
44 42 41 42 40 41 41 42 41 36 32 33 25 25 27 27 26 25 25 25 28 29 33 34 33 33 31 29 28 25 20 17 13 11 11 10 11 12 12 8 7 6 5
41 40 40 41 41 40 39 38 35 30 32 29 22 24 24 24 23 23 23 25 25 29 32 32 32 31 30 28 26 20 17 14 11 9 10 10 9 9 8 7 7 6 6

GFSMW_700_spd_027.txt.gz
Wind_Speed
22 27 24 24 22 22 23 25 26 27 24 26 27 27 26 27 29 32 36 36 37 37 39 41 41 41 44 46 43 42 44 43 42 44 45 46 46 49 49 48 49 48 48
17 19 20 21 21 18 16 15 19 21 23 28 29 29 30 32 35 37 41 42 44 44 45 45 45 48 50 49 44 44 45 42 41 43 44 48 46 45 47 48 50 46 47
9 14 13 12 13 14 15 19 22 24 25 27 31 32 33 37 39 42 42 42 46 48 51 53 49 48 45 43 42 41 42 46 44 45 45 46 49 41 34 41 45 47 49
10 11 12 13 14 17 22 25 27 29 29 30 34 35 37 41 44 45 48 51 47 48 47 45 46 44 41 42 44 47 50 52 53 53 52 45 46 49 50 45 41 41 45
11 12 14 16 19 22 25 27 30 32 33 34 36 39 42 44 46 49 54 55 54 48 45 43 41 42 43 48 52 55 57 57 57 57 58 58 56 54 55 57 49 52 45
14 15 18 21 26 26 24 27 28 31 34 35 37 40 45 48 51 55 53 48 44 40 40 43 46 49 52 55 57 58 58 58 58 57 56 54 53 52 54 53 55 56 47
16 17 23 26 31 32 29 26 28 30 36 39 42 46 50 49 46 44 42 39 40 43 46 49 51 55 58 60 61 60 57 53 52 52 50 48 46 47 48 49 51 52 53
21 24 25 29 30 27 25 24 26 30 33 38 41 40 40 42 40 39 39 43 47 49 52 56 59 61 61 55 48 45 45 39 36 37 36 37 36 36 39 42 45 48 50
26 25 29 30 30 28 27 27 29 35 34 34 34 37 37 37 38 38 41 46 50 54 57 58 56 49 42 40 37 34 35 37 37 34 33 33 32 31 32 32 32 34 36
19 20 25 27 30 32 35 39 43 42 37 35 37 39 37 36 38 43 48 51 53 55 53 48 40 36 34 34 32 31 33 30 28 26 25 29 30 32 35 35 34 34 34
16 18 20 23 25 25 33 41 40 37 35 37 35 36 37 41 46 49 52 51 53 51 43 37 33 32 33 33 32 33 35 37 38 34 33 33 30 30 31 29 28 27 30
16 19 21 22 24 33 41 40 35 33 35 34 35 38 42 44 47 49 51 49 44 40 37 32 27 25 24 31 34 36 38 36 34 31 29 29 28 30 30 30 30 30 27
18 21 24 27 30 39 44 37 34 36 34 34 37 38 41 43 45 46 45 42 37 31 25 26 29 32 34 37 39 37 31 33 34 33 32 32 32 32 33 33 34 34 31
23 26 28 31 41 43 42 33 35 34 34 34 38 41 43 44 43 43 41 32 32 29 27 33 37 37 39 38 30 29 32 33 33 33 34 34 34 34 35 35 36 35 36
25 32 41 49 43 36 31 34 33 33 36 37 40 44 44 43 42 38 29 29 32 33 34 35 38 35 33 29 34 31 33 33 34 35 36 36 38 37 36 38 38 37 38
38 43 50 41 37 30 28 30 33 35 39 40 43 45 43 41 40 37 35 34 32 33 34 34 33 31 28 34 35 34 37 37 36 36 36 36 36 35 36 37 36 34 35
39 48 45 33 28 30 30 32 35 38 42 45 45 45 41 39 37 36 35 32 30 32 33 32 31 31 32 37 36 35 36 36 36 36 35 35 32 33 34 35 35 34 32
46 43 30 33 32 29 30 36 39 42 44 40 41 41 39 37 35 32 27 29 32 33 33 32 33 34 32 36 35 34 35 35 35 35 34 34 32 31 32 32 33 31 30
37 37 39 34 32 35 37 40 42 42 40 35 32 39 38 35 34 29 30 32 32 33 32 32 33 33 32 35 35 36 36 36 35 34 33 32 31 29 29 30 29 26 24
32 29 29 28 30 31 34 39 38 33 31 31 37 35 31 32 32 30 32 32 31 30 32 30 31 33 33 34 35 35 34 35 34 32 30 29 27 26 26 24 25 24 22
23 23 26 30 32 36 37 38 38 34 32 27 38 38 32 34 34 32 32 29 27 30 30 30 32 33 35 35 35 32 32 31 31 30 27 23 21 23 22 22 23 23 22
25 28 32 37 36 34 35 37 37 34 31 38 39 37 34 35 31 31 28 25 27 28 29 31 32 34 34 33 34 31 30 31 31 27 24 22 20 19 20 20 21 20 16
30 38 44 41 38 34 34 36 37 42 36 36 40 34 35 32 28 30 26 26 26 28 29 32 34 34 33 33 32 30 29 28 24 23 22 20 17 17 16 16 14 9 9
44 38 35 34 34 34 34 35 38 41 37 40 37 34 32 28 26 25 24 24 26 26 28 32 33 34 33 32 31 30 28 22 20 18 16 15 14 12 12 10 6 6 7
38 39 35 35 36 37 37 35 32 42 40 36 36 30 29 23 23 21 22 22 24 25 28 31 33 34 33 32 30 30 24 19 17 15 13 12 10 10 10 9 6 6 8
41 35 34 36 38 37 36 39 36 34 33 29 33 27 19 21 20 19 21 23 23 25 27 29 32 31 31 31 31 25 19 17 15 13 11 10 10 9 8 8 6 3 2

GFSMW_700_spd_030.txt.gz
Wind_Speed
22 28 26 29 33 28 25 22 26 27 28 26 28 29 32 33 31 33 37 39 42 42 45 48 51 46 45 46 46 49 49 48 46 45 47 45 43 43 43 43 44 45 46
27 29 30 29 24 21 22 21 19 17 20 25 28 29 31 32 33 36 41 44 47 48 47 51 52 50 48 45 43 43 44 44 41 41 42 46 46 44 43 42 44 43 42
19 23 23 19 14 13 15 17 21 24 24 28 32 31 32 35 37 38 41 44 46 48 53 54 52 50 47 45 41 40 41 45 44 44 47 49 53 53 50 47 43 40 39
12 9 9 11 13 15 17 22 27 29 29 29 33 35 35 37 38 40 43 47 48 53 53 51 50 49 47 46 44 46 48 50 52 54 55 55 55 57 60 56 51 43 44
9 10 14 17 17 19 22 25 28 31 34 31 30 33 36 37 40 44 48 50 50 47 47 48 45 45 47 49 51 54 56 57 59 58 58 58 54 48 48 59 59 56 49
10 15 17 19 24 25 28 28 30 29 31 35 32 34 35 38 41 43 44 45 45 44 42 42 45 48 51 53 55 58 59 59 57 52 49 51 54 54 49 48 53 56 56
12 11 16 20 23 26 30 32 32 29 30 31 36 41 43 41 40 39 40 41 41 40 42 45 50 54 56 57 56 53 49 47 45 43 40 39 39 40 42 43 45 49 52
11 10 14 21 26 28 29 30 30 30 35 40 41 41 38 36 37 38 39 39 42 47 51 53 55 55 54 52 47 40 41 39 38 36 36 36 33 34 35 37 37 36 39
12 13 14 19 29 30 28 32 30 34 40 39 39 37 37 38 38 38 41 44 47 49 51 52 53 50 46 42 38 36 35 35 35 32 30 29 32 31 30 31 32 32 32
11 12 21 25 29 33 33 38 42 45 45 42 38 36 37 36 37 41 43 44 47 49 50 50 48 44 40 36 34 32 32 33 32 30 30 33 34 33 29 27 25 31 32
21 18 25 31 29 36 37 37 45 52 45 38 36 37 37 38 39 40 44 47 49 47 47 45 40 32 28 28 27 34 35 34 37 37 33 29 29 27 29 30 29 28 29
14 18 22 24 36 36 41 40 46 51 39 36 38 38 40 40 41 43 46 47 48 47 45 34 33 32 33 33 38 41 39 38 32 34 32 35 33 34 30 30 30 29 28
16 21 23 33 30 37 45 50 53 43 34 35 38 38 42 42 43 47 48 46 45 43 36 35 35 34 39 45 43 40 35 38 32 32 34 34 33 32 31 31 32 32 32
19 26 29 36 45 46 50 49 44 34 38 36 39 41 44 44 47 47 45 42 40 35 34 35 34 35 37 37 37 36 34 34 34 34 35 35 35 35 36 36 34 34 36
28 39 44 49 47 51 48 39 36 36 33 35 39 41 48 46 47 44 42 40 38 37 34 32 33 33 33 33 33 36 36 35 36 36 36 36 35 35 36 36 40 39 36
41 39 41 41 45 40 34 36 34 36 35 37 40 40 41 50 48 40 35 35 34 33 34 35 32 32 32 35 38 36 33 33 35 36 35 35 34 32 31 32 35 34 32
40 33 39 41 37 30 28 35 36 36 43 42 37 30 40 48 45 38 33 36 35 36 36 33 33 33 32 34 36 34 34 36 36 37 36 35 34 33 34 34 34 33 33
36 39 37 36 32 30 38 39 28 36 48 47 42 41 44 44 44 40 36 36 36 36 36 33 31 29 29 34 36 36 36 37 38 37 36 35 33 32 32 32 33 33 34
37 38 36 32 32 30 32 38 44 44 41 47 32 39 33 41 41 45 37 38 37 37 34 29 28 30 31 33 36 37 35 34 35 33 32 30 30 29 29 30 29 29 28
34 31 26 27 28 32 37 38 37 37 40 43 36 41 35 27 42 42 40 39 35 33 31 26 28 31 33 35 36 36 35 35 33 31 30 28 26 25 25 24 25 25 23
21 22 28 33 36 43 42 38 36 33 39 43 38 40 48 34 42 39 40 37 31 31 29 27 28 31 33 35 35 35 34 33 33 32 29 24 21 21 23 23 23 24 23
28 32 37 41 39 41 38 36 33 37 43 38 46 37 34 35 35 37 37 30 32 29 28 27 28 31 34 35 35 34 34 33 34 29 25 22 20 19 18 19 20 20 19
40 42 39 40 41 35 31 33 39 42 45 40 40 44 41 39 35 35 29 29 27 26 27 28 30 33 34 34 33 32 32 31 26 23 22 20 17 16 15 15 15 13 9
40 33 41 41 38 31 38 43 41 43 40 37 37 40 36 31 32 30 22 25 24 24 27 28 30 32 34 33 33 32 31 24 20 19 17 16 15 14 13 12 9 7 8
38 40 40 37 38 40 43 44 41 36 35 34 31 31 28 31 31 20 21 21 22 25 27 28 29 32 34 33 32 35 29 22 19 17 16 14 13 11 11 10 8 4 5
39 41 41 43 43 45 43 40 32 35 33 30 26 27 27 26 18 17 18 20 22 24 25 27 27 28 32 32 31 32 26 20 17 16 15 13 12 11 10 9 9 8 6

GFSMW_700_spd_033.txt.gz
Wind_Speed
25 25 28 26 27 27 21 22 29 29 29 30 25 24 27 28 28 30 29 32 37 41 40 46 47 49 49 51 49 44 42 42 41 45 45 45 43 42 42 41 40 39 38
26 26 28 28 27 27 26 23 23 22 21 24 27 28 28 28 28 30 35 39 42 44 45 47 49 50 50 46 43 41 44 42 40 43 46 50 47 45 44 44 44 43 42
25 25 26 27 25 19 17 17 18 19 24 28 30 31 31 32 34 34 36 38 42 44 46 49 48 46 45 45 44 43 43 45 46 48 50 53 55 57 51 50 50 49 48
20 19 20 18 15 17 18 20 22 24 25 26 29 32 32 32 32 35 37 40 42 44 45 43 44 45 46 44 46 48 50 51 52 53 51 50 51 56 64 60 57 55 53
18 11 12 14 16 17 18 20 24 27 30 31 32 31 31 31 33 36 43 44 44 44 45 44 42 42 44 46 49 53 55 56 56 54 53 53 49 43 48 58 57 54 50
15 14 15 17 19 21 23 25 24 25 28 31 34 38 40 42 43 42 43 43 43 44 42 41 42 44 48 50 52 53 54 52 50 47 42 41 41 42 42 42 42 45 47
9 8 13 19 25 28 27 27 28 29 30 31 35 41 41 42 41 39 41 42 42 41 41 42 44 46 49 52 53 53 49 44 42 37 34 34 34 34 35 34 33 34 34
8 11 19 25 27 29 30 27 28 29 32 36 43 43 41 38 38 41 43 44 43 44 44 47 50 50 52 53 52 49 45 39 33 32 33 33 31 28 27 28 31 32 33
12 16 19 26 29 32 34 35 38 39 42 46 49 49 40 36 37 39 41 43 43 46 48 49 51 51 49 48 45 39 34 31 28 31 33 30 28 28 29 28 26 26 32
10 11 18 28 31 35 35 39 41 42 46 52 50 48 37 36 37 39 42 41 43 46 49 50 49 46 44 41 35 32 33 33 36 39 35 37 35 29 27 27 30 29 34
16 22 24 27 31 35 34 44 41 45 49 53 47 40 35 40 40 39 40 41 45 48 47 45 43 42 37 37 36 35 36 39 40 41 36 29 29 29 32 33 32 33 31
20 25 24 28 32 36 40 38 48 55 56 46 40 37 39 40 38 39 41 46 46 46 44 40 36 32 34 33 34 38 41 40 38 37 33 31 33 33 34 34 34 33 32
18 23 29 31 36 40 43 45 53 53 48 39 40 40 40 42 43 43 45 43 46 40 36 31 31 33 34 35 36 38 38 37 34 34 35 37 38 37 36 35 35 34 34
21 23 27 36 45 43 44 46 49 50 43 43 42 39 46 49 50 47 45 46 40 37 35 35 33 33 34 35 35 34 34 34 35 35 36 37 38 37 37 37 36 36 36
27 33 40 45 41 40 46 45 43 40 44 47 40 45 52 53 48 44 43 39 42 41 35 35 34 36 39 37 34 32 31 32 34 35 35 36 36 36 35 36 35 34 34
40 44 44 42 41 41 40 38 38 37 37 44 43 43 50 40 43 42 45 39 41 41 37 37 38 41 37 30 32 32 33 35 37 38 37 36 35 35 35 35 35 35 36
46 44 40 39 38 36 37 36 34 39 41 48 38 41 45 52 56 43 41 35 39 36 38 36 41 35 28 31 34 35 37 38 39 40 39 36 34 33 34 34 34 34 34
39 35 33 32 32 29 28 36 40 42 47 42 48 50 49 48 62 43 35 32 36 36 38 40 35 27 28 30 33 36 38 38 36 35 35 35 33 31 31 31 31 31 31
33 31 33 31 34 36 40 42 45 48 48 44 44 47 46 50 47 31 31 34 37 37 35 37 28 28 29 30 34 37 38 36 34 33 31 31 31 30 28 28 28 27 26
33 33 34 36 37 40 43 43 42 43 39 39 43 46 48 47 31 42 32 33 33 35 40 29 25 27 29 32 35 37 36 36 35 32 31 26 24 23 23 25 24 22 21
31 35 38 38 40 38 40 40 40 41 41 43 47 49 44 40 38 30 34 31 32 37 30 25 25 26 29 33 36 36 37 37 37 32 27 23 21 19 18 19 21 20 18
36 38 39 40 39 38 40 39 38 42 43 45 38 38 37 33 26 35 29 28 33 30 25 25 25 27 29 32 35 34 35 36 34 28 24 22 19 17 16 16 16 16 16
37 37 38 40 39 40 37 38 42 42 42 36 33 35 30 25 29 28 27 31 24 22 23 25 25 26 28 31 33 33 32 32 27 23 22 20 19 17 15 14 15 15 11
38 38 39 39 41 40 38 39 42 40 38 33 32 30 27 23 25 25 23 20 20 22 23 24 25 26 28 31 32 31 30 28 22 20 18 18 17 16 15 13 12 12 9
39 38 38 41 41 40 39 40 40 40 36 34 32 31 28 26 24 17 15 17 18 21 23 24 25 25 26 29 31 32 32 30 22 19 18 16 14 13 13 12 11 9 6
36 35 38 40 40 40 41 39 38 38 34 32 32 29 23 21 14 14 15 17 19 20 22 23 24 24 26 27 29 30 31 30 21 18 17 15 14 14 13 11 9 9 9

GFSMW_700_spd_036.txt.gz
Wind_Speed
22 27 30 26 21 22 19 18 20 24 27 25 23 21 24 28 29 32 34 35 35 38 39 41 44 45 47 48 49 48 45 42 44 47 46 44 41 41 41 40 41 44 43
26 25 30 25 22 24 24 26 30 28 21 18 21 23 25 26 27 30 32 36 39 40 42 44 46 47 48 47 45 44 45 44 44 46 48 51 48 46 46 46 46 48 48
19 19 22 25 27 29 28 23 21 20 21 23 26 27 27 29 30 33 36 37 38 40 42 45 46 46 45 45 44 43 43 44 46 48 50 53 56 58 54 51 52 52 53
18 18 23 28 26 19 18 19 21 24 28 30 28 25 24 24 27 31 35 40 42 43 43 43 43 44 45 46 45 46 48 50 51 51 51 51 53 56 61 58 56 53 52
16 17 19 16 14 18 22 25 26 29 29 28 28 29 33 39 41 40 39 40 42 42 42 44 45 45 45 46 48 49 50 51 52 52 51 49 46 45 45 54 52 47 40
15 13 11 11 11 16 20 21 25 25 26 28 29 30 36 42 44 45 44 42 40 40 41 41 43 45 46 46 48 50 50 51 50 48 45 43 41 38 37 37 38 37 35
13 12 14 14 21 26 19 23 27 32 34 36 39 44 46 49 51 50 45 40 39 40 41 44 44 44 47 48 50 51 48 45 44 39 35 33 30 30 34 34 34 32 30
19 17 18 21 25 30 31 31 35 36 39 43 44 51 50 51 50 44 40 41 43 45 47 47 46 47 50 52 50 46 43 39 35 34 32 30 31 34 35 34 31 33 31
11 13 16 19 21 26 30 33 38 42 41 45 40 52 55 50 45 39 39 43 47 48 48 50 50 52 52 50 45 41 35 34 34 35 35 35 34 35 33 34 33 33 41
12 13 15 19 25 32 33 36 40 43 44 45 51 53 50 45 40 41 42 42 45 48 50 52 52 50 46 43 41 38 35 35 35 31 33 39 37 31 30 28 30 33 34
9 15 22 25 28 31 35 38 43 50 49 45 50 46 41 40 39 36 40 43 44 46 45 47 44 42 43 41 38 38 36 37 38 38 38 37 36 30 34 29 34 36 38
22 25 21 26 29 35 38 43 49 45 44 45 48 42 39 43 45 41 52 44 39 38 39 35 34 36 38 39 36 35 36 37 37 35 35 34 36 37 38 38 40 40 38
16 19 23 26 30 37 44 44 43 45 46 45 41 42 43 45 43 47 51 41 44 44 40 37 35 34 34 34 34 36 36 34 34 34 36 37 39 40 40 40 40 38 38
21 24 26 32 40 44 45 42 42 43 41 42 43 44 46 49 49 43 47 46 47 46 45 38 33 31 32 36 38 36 34 32 32 33 35 37 39 40 40 40 40 38 36
24 27 35 42 48 46 42 40 39 39 41 43 45 44 49 47 45 51 43 45 46 50 47 31 31 31 33 40 37 32 30 31 33 35 37 39 40 40 40 41 40 39 38
30 39 43 44 41 42 41 40 41 42 41 40 47 45 50 53 50 46 47 53 54 40 27 25 30 33 37 37 33 32 31 33 35 38 40 39 38 38 37 37 36 37 38
38 40 41 39 40 38 40 41 40 39 42 46 49 53 53 44 43 44 51 51 33 21 29 31 32 33 34 33 32 32 33 36 38 39 38 38 38 37 37 35 34 33 33
43 39 37 36 36 38 38 39 42 45 46 47 46 43 37 39 44 47 45 34 25 30 26 30 31 32 30 32 32 32 35 37 39 38 37 36 36 36 34 33 32 30 30
35 35 33 35 37 37 39 41 42 43 42 42 39 39 42 46 45 42 38 33 31 25 26 28 31 29 30 31 32 33 35 38 37 35 35 35 33 29 27 27 26 24 20
33 32 34 36 36 37 38 39 41 42 41 38 38 40 44 39 36 33 27 25 28 23 27 31 28 29 30 31 32 35 36 38 37 37 32 27 24 23 23 23 23 22 19
30 32 34 36 37 36 37 39 41 43 42 39 37 38 34 35 32 25 29 26 21 24 28 24 26 27 30 31 32 34 36 38 37 36 29 24 22 20 19 18 19 19 17
29 33 35 36 35 35 38 41 42 42 40 36 35 35 32 32 29 25 24 26 23 23 21 22 25 27 29 29 30 32 34 35 36 32 25 23 21 20 19 18 16 16 15
32 34 35 35 33 35 38 41 39 40 37 36 36 33 31 31 30 28 27 25 20 19 20 22 24 26 27 28 29 30 32 32 32 27 23 22 21 20 18 16 15 15 13
34 36 36 34 34 36 39 38 39 39 37 37 36 32 30 30 28 24 23 17 16 18 20 22 24 25 26 27 28 28 29 27 27 22 20 20 20 19 18 16 15 13 11
35 35 35 34 35 36 39 39 39 39 38 36 34 32 31 26 23 20 15 14 15 18 21 23 24 24 25 26 27 28 29 30 29 24 20 19 18 17 16 15 13 12 10
35 35 33 33 34 36 39 40 40 40 36 33 31 30 26 22 19 14 15 15 16 18 21 23 23 24 24 24 25 26 27 29 28 24 20 19 18 17 16 13 10 8 8

GFSMW_700_spd_039.txt.gz
Wind_Speed
24 25 25 24 22 21 20 21 21 21 23 24 26 24 23 24 24 26 27 30 33 34 37 39 46 46 47 49 51 53 55 54 53 53 52 49 45 43 43 43 44 44 44
23 26 25 24 25 19 19 23 27 27 26 20 21 22 22 23 22 24 27 29 33 36 39 41 44 47 49 52 54 53 51 49 49 50 50 52 49 47 47 47 47 49 49
17 21 17 19 21 23 23 21 20 18 18 19 20 21 22 23 23 24 29 32 36 40 42 44 46 47 47 47 48 48 48 48 46 46 47 51 54 55 52 51 52 52 52
10 11 13 14 16 11 11 13 16 19 21 21 19 19 19 22 28 32 35 37 40 40 41 44 45 45 46 48 48 47 47 47 48 48 48 48 50 53 59 54 50 48 46
11 12 12 14 9 8 12 18 20 19 19 21 25 26 31 34 38 41 42 46 47 43 41 42 44 46 48 49 50 51 51 51 52 53 52 50 47 45 47 52 50 46 38
7 9 9 9 10 11 20 18 17 21 26 33 34 37 40 44 46 48 47 47 45 42 42 44 46 47 50 52 53 53 53 54 54 52 48 47 45 42 41 41 41 41 39
8 5 13 14 18 24 25 26 29 33 32 38 40 41 46 50 50 49 49 48 44 42 43 46 49 50 49 51 52 52 52 50 47 45 42 39 37 34 35 36 38 42 39
14 19 21 20 20 26 29 31 34 35 38 41 43 49 52 49 50 49 48 43 41 43 44 45 48 51 52 53 54 50 43 43 42 40 38 34 32 33 34 34 34 41 41
9 15 16 17 23 24 27 29 32 38 43 44 48 50 48 48 47 44 41 41 43 41 43 49 52 51 51 47 39 36 37 40 41 42 36 34 34 34 39 39 39 36 40
17 15 20 21 19 25 27 30 34 39 43 48 46 46 48 47 44 40 42 42 44 49 51 45 44 46 41 37 34 33 36 39 40 39 38 38 38 38 34 33 29 35 34
18 19 26 23 30 25 28 31 38 44 46 43 44 45 44 42 42 46 47 46 45 47 45 45 44 43 41 39 35 34 37 40 41 40 38 36 36 37 36 33 37 36 39
21 23 23 26 22 29 31 35 41 41 41 41 42 42 45 47 45 45 48 50 48 49 47 40 46 42 44 35 34 35 37 40 40 38 36 35 36 37 39 40 41 41 39
22 21 21 22 23 28 34 43 41 42 41 42 45 46 45 47 49 49 50 49 47 43 41 45 45 48 37 27 30 34 39 38 33 33 34 35 36 38 39 41 42 42 41
20 20 23 26 31 38 41 40 41 41 42 44 46 47 48 49 51 51 52 46 41 41 48 48 39 29 24 28 32 37 37 31 32 33 34 36 38 40 42 42 42 41 41
23 27 31 32 36 42 42 41 41 43 44 45 46 46 47 49 51 46 38 39 41 44 48 34 23 19 25 33 36 37 32 31 32 33 36 39 41 41 41 41 40 40 39
27 32 34 37 41 43 42 42 43 44 45 45 45 46 46 47 46 43 42 44 44 44 39 33 21 23 29 34 36 33 31 32 34 37 38 41 41 41 41 40 39 38 37
32 36 40 42 39 41 42 42 44 45 43 43 45 46 47 46 45 43 42 40 36 32 28 32 23 24 29 35 33 31 32 35 37 39 41 42 41 42 42 39 36 35 34
40 42 40 35 35 39 41 42 43 44 43 43 44 44 44 43 40 39 36 35 29 24 25 25 23 25 32 32 30 31 33 35 37 39 41 40 41 38 34 32 29 27 25
39 33 32 34 36 39 41 42 43 43 43 43 41 39 39 38 39 35 34 29 24 27 24 22 25 30 28 29 31 33 34 35 36 38 38 38 36 30 28 28 27 25 22
30 30 32 35 38 40 41 41 40 40 41 40 39 38 38 39 37 33 30 26 22 26 25 25 29 26 27 29 32 34 35 36 37 38 37 35 28 25 25 25 24 23 21
29 31 33 35 38 40 41 39 38 38 39 39 39 38 38 38 35 31 30 28 27 28 26 24 23 25 27 29 32 33 35 36 37 39 37 29 24 23 23 22 21 21 19
28 30 33 35 38 39 39 37 36 38 39 39 39 40 38 34 32 31 30 27 25 25 22 20 22 25 28 30 31 32 33 35 37 37 33 26 23 22 21 20 20 19 16
28 31 35 36 37 37 36 36 36 38 40 40 40 40 36 32 31 30 25 22 22 18 19 19 22 25 28 29 30 31 32 32 33 34 30 25 23 21 21 20 19 17 15
30 34 36 36 36 35 35 37 38 39 40 41 39 38 34 31 28 24 22 20 16 17 18 20 22 25 28 29 29 29 29 29 30 30 28 24 21 21 21 20 18 15 13
34 35 36 36 37 36 36 38 39 40 40 40 38 35 31 28 24 22 18 16 17 17 18 19 22 25 26 27 27 28 28 28 29 29 27 23 21 19 19 18 15 12 12
36 35 36 37 36 37 36 36 38 39 39 38 35 33 28 24 22 17 17 18 17 17 18 19 21 23 24 25 26 27 27 27 28 28 28 24 21 18 17 16 14 11 10

GFSMW_700_spd_042.txt.gz
Wind_Speed
20 21 21 21 22 22 24 23 23 23 21 24 18 15 13 15 18 22 25 27 27 29 31 35 39 43 47 50 53 55 57 58 58 59 57 55 53 49 47 47 46 44 44
18 18 21 22 22 24 21 15 18 20 15 15 17 19 21 22 23 23 23 25 28 29 31 35 39 43 47 50 52 53 53 53 53 54 54 55 52 48 45 47 49 49 47
11 10 8 10 11 14 15 10 10 12 14 16 16 16 17 20 22 25 28 32 35 37 40 42 45 44 44 46 47 48 50 51 50 50 51 53 54 54 49 47 49 50 52
5 3 3 11 9 5 6 8 12 13 11 13 17 21 25 28 32 38 43 45 45 44 43 46 46 45 44 45 46 47 48 50 51 50 49 50 52 53 59 54 46 43 42
6 3 3 4 9 5 4 11 13 13 18 22 24 31 34 37 41 46 47 46 47 47 49 48 46 45 46 49 51 53 54 55 55 56 55 54 51 48 50 54 52 46 39
8 2 4 5 7 13 22 26 27 23 25 27 31 34 37 40 46 47 46 48 48 49 48 47 47 48 50 50 50 50 52 54 54 51 45 41 41 42 44 45 44 44 42
10 9 11 14 22 33 28 25 23 22 26 29 34 40 42 46 48 46 48 48 47 45 45 46 47 47 48 50 49 48 45 42 35 32 34 37 40 41 41 39 38 39 39
13 20 25 29 25 18 18 26 28 28 29 32 38 42 46 48 48 48 47 47 46 46 47 45 46 47 47 46 45 41 38 36 34 32 35 38 40 40 36 36 38 43 42
17 16 23 19 20 24 25 25 29 30 31 35 41 46 46 47 48 47 46 46 44 46 47 48 48 47 48 45 41 39 38 35 34 35 36 37 38 38 38 40 46 45 45
19 20 20 19 24 25 27 31 26 30 33 39 46 44 46 46 45 45 45 46 48 48 49 51 49 47 41 39 42 36 42 35 35 37 38 41 39 36 34 34 34 36 36
23 22 23 25 27 27 29 30 32 34 39 40 41 42 44 46 47 49 49 51 51 52 50 43 41 39 41 42 36 39 31 31 34 37 40 36 34 33 33 34 35 37 38
24 24 25 25 26 28 31 31 31 38 36 39 41 44 46 48 49 50 51 53 54 48 42 40 39 43 46 43 29 25 28 32 35 39 35 33 33 32 34 37 38 40 41
24 25 27 29 29 29 33 35 38 38 38 40 44 45 47 47 48 50 52 51 50 48 43 42 43 42 38 24 23 26 31 35 39 36 33 33 33 34 36 38 41 42 41
26 27 27 28 30 34 37 37 37 37 40 42 45 46 47 47 48 49 49 48 45 44 43 40 37 31 28 23 22 26 33 37 35 33 33 34 35 38 40 41 42 41 40
26 24 27 30 34 38 39 39 39 40 42 44 45 46 46 46 47 47 47 44 41 37 38 34 30 28 25 22 28 31 36 35 32 32 34 35 37 39 42 43 42 42 40
25 27 31 36 38 39 40 38 39 41 43 45 45 45 45 46 46 45 42 40 37 37 34 29 26 23 24 23 29 32 32 31 33 34 35 37 37 40 40 40 39 37 35
28 31 32 36 39 37 36 38 40 42 44 44 43 43 44 45 44 42 40 40 34 34 26 24 26 28 25 25 28 28 30 32 34 36 37 38 40 40 41 38 32 30 28
30 33 36 37 36 35 36 38 41 43 44 43 42 43 43 43 42 41 40 37 31 28 24 23 25 25 26 27 26 27 30 32 33 35 37 38 39 39 37 32 30 28 25
33 35 35 33 32 34 37 40 42 43 43 42 42 42 42 41 41 40 38 35 30 29 28 27 27 27 25 25 27 29 30 32 33 35 36 38 38 36 30 29 29 27 24
34 33 30 30 32 35 38 41 42 42 41 40 40 40 41 41 41 39 36 33 31 29 28 27 27 23 23 25 27 30 32 33 34 34 36 37 36 30 27 27 26 25 23
34 29 28 30 33 37 40 41 42 41 40 40 40 40 41 41 39 36 34 32 29 26 24 24 21 20 22 25 28 31 32 33 33 34 36 35 32 26 25 24 24 23 22
28 27 28 31 35 39 40 40 41 40 39 40 40 40 41 40 38 35 32 29 25 23 21 18 18 20 23 25 29 30 31 32 33 33 34 34 30 25 23 22 22 21 19
26 26 29 33 37 39 39 40 39 39 39 39 39 40 40 38 36 34 29 24 22 19 16 18 18 20 22 25 28 29 30 30 30 32 32 32 29 25 22 21 20 18 16
23 27 31 35 36 38 38 39 39 39 39 38 38 38 38 36 34 30 25 23 18 16 17 17 18 19 22 24 27 28 28 28 28 29 30 30 28 25 22 20 19 17 15
25 30 35 36 37 38 38 38 38 38 37 37 37 36 36 34 31 28 24 19 18 18 18 17 18 18 21 23 26 27 27 27 26 27 28 28 27 23 20 19 17 15 12
29 34 36 37 38 38 38 38 37 36 35 35 34 34 33 32 28 24 21 19 19 18 18 17 17 17 20 22 24 25 26 27 25 26 27 27 27 23 19 17 16 14 11

GFSMW_700_spd_045.txt.gz
Wind_Speed
14 17 17 20 21 23 25 26 28 23 19 8 5 5 7 8 11 14 18 21 24 27 31 35 37 39 40 41 42 44 46 47 50 52 52 51 52 50 48 47 46 46 46
18 17 14 10 10 14 16 18 20 9 10 7 10 11 12 13 15 17 20 23 28 33 36 34 35 37 40 42 43 44 46 48 50 52 54 54 54 53 52 51 51 50 49
12 8 6 5 5 9 12 5 4 6 7 8 10 11 14 17 20 25 29 34 37 38 39 40 40 42 42 42 42 43 45 47 48 49 50 53 55 56 51 49 49 49 47
7 6 6 5 4 3 4 3 9 11 12 12 12 16 19 24 29 34 38 40 40 42 43 44 44 44 44 45 45 46 48 48 49 50 50 50 52 50 51 45 37 33 35
8 8 6 6 6 3 3 13 15 17 20 19 19 23 27 31 36 41 42 42 43 44 43 44 45 46 47 49 48 47 47 48 47 47 44 39 37 33 34 37 37 40 37
10 7 5 5 7 9 14 24 28 23 21 23 23 27 32 34 40 42 42 43 43 43 44 45 46 49 49 48 46 46 46 44 40 36 35 33 31 32 36 39 38 35 39
10 8 9 13 16 18 18 16 18 20 22 30 28 31 34 38 42 41 41 42 43 44 45 47 48 48 47 48 47 46 45 43 40 34 34 36 34 35 36 31 32 33 31
10 12 14 12 15 13 16 20 24 27 27 28 30 36 39 42 40 40 41 43 45 46 46 47 47 48 49 48 46 43 40 39 37 33 34 34 34 35 37 36 38 35 36
12 12 14 16 17 19 20 26 23 30 29 31 32 37 40 40 41 43 46 46 46 47 48 49 50 49 47 44 40 37 37 28 29 34 26 30 34 38 36 34 33 32 36
11 14 17 20 19 21 24 26 27 31 28 32 38 39 39 41 44 44 46 48 49 49 50 49 47 45 41 38 39 39 32 26 27 27 29 32 37 36 33 33 33 33 35
15 17 20 21 22 25 26 28 31 35 35 44 39 37 40 42 43 46 48 48 48 48 48 47 44 41 38 36 37 34 27 26 26 29 33 36 37 34 34 34 34 36 37
21 21 23 23 26 28 29 31 35 38 41 38 38 39 40 42 44 45 44 45 47 47 47 45 41 38 34 35 33 28 27 26 29 32 37 37 35 34 35 35 36 38 38
24 24 24 27 30 31 31 36 35 37 37 36 35 38 40 41 42 44 44 45 46 44 41 40 36 35 32 31 27 27 28 28 32 35 39 34 34 35 36 37 38 39 40
24 25 28 28 28 29 33 35 35 35 33 34 37 40 42 43 43 44 44 45 43 42 40 35 34 30 25 24 25 23 27 32 35 38 33 34 35 36 36 37 38 40 39
25 27 26 24 28 31 34 32 33 32 34 37 40 42 42 42 43 43 43 42 42 41 38 32 30 24 22 22 26 27 28 31 33 30 32 33 33 34 35 38 38 39 39
24 24 24 28 31 36 35 31 31 34 36 39 41 42 42 41 41 42 42 42 42 39 34 29 26 23 24 23 23 25 28 26 29 31 32 32 33 34 36 36 36 33 30
23 24 26 33 37 35 31 30 32 35 38 40 41 41 41 41 42 42 42 42 42 38 32 29 28 26 26 26 26 24 25 27 29 32 33 33 33 34 36 36 31 27 26
23 26 31 33 38 33 30 31 33 36 39 41 41 41 42 42 42 41 42 42 41 35 32 30 28 27 27 26 22 23 25 27 30 32 32 32 32 34 36 33 28 27 26
23 27 30 33 34 31 29 31 35 38 40 41 41 42 42 42 41 41 42 40 38 34 31 29 27 25 24 20 21 23 25 28 29 29 30 32 33 34 33 30 27 26 25
26 30 31 33 30 28 29 34 37 40 40 41 41 41 41 40 40 40 40 37 34 31 29 26 23 22 19 19 21 24 26 28 28 28 29 31 32 33 31 28 26 26 24
30 32 30 29 27 27 31 36 39 39 40 40 40 40 39 39 39 38 37 35 32 29 25 23 21 17 17 18 20 23 26 28 28 29 29 30 31 31 28 25 25 25 24
33 26 24 23 24 29 34 37 39 39 40 39 39 38 37 36 36 36 35 32 29 25 24 21 16 16 17 17 20 22 25 27 29 29 29 30 30 30 26 23 22 22 20
28 23 19 20 27 32 37 37 38 39 39 39 37 35 34 34 33 34 32 29 26 24 19 17 16 16 17 17 19 21 24 26 27 28 28 29 29 28 25 22 20 19 17
19 17 18 23 30 35 36 37 38 38 38 37 35 33 33 32 32 32 30 26 23 20 19 18 17 17 16 16 18 20 22 24 26 26 27 28 28 29 26 21 20 18 15
15 17 23 29 32 33 35 36 37 38 37 34 32 32 32 31 30 30 27 24 22 20 19 19 17 17 16 16 17 19 21 23 25 26 25 26 26 26 25 21 18 17 14
18 23 28 30 32 33 34 36 38 36 34 32 31 31 31 29 28 28 25 23 21 21 20 18 17 17 16 15 16 18 20 22 24 25 24 24 25 24 23 21 17 16 16

GFSMW_700_spd_048.txt.gz
Wind_Speed
12 14 15 17 19 21 23 25 26 26 20 13 12 3 2 7 8 9 13 16 20 23 28 32 33 33 36 36 38 40 41 41 44 45 47 48 51 52 51 51 51 52 52
15 14 17 18 20 20 21 20 19 13 8 6 2 3 5 8 10 12 15 18 23 27 29 32 35 35 36 37 38 39 41 43 46 47 46 47 42 39 43 50 54 55 53
18 17 15 14 12 11 12 12 8 6 4 4 7 9 9 11 12 17 21 26 30 32 34 37 38 39 38 40 42 43 44 45 44 47 46 46 43 45 46 44 44 51 51
16 14 13 14 11 8 7 6 5 9 13 19 21 16 13 16 20 25 30 36 37 39 40 41 41 41 42 43 44 45 45 46 44 43 41 43 42 43 44 39 39 32 31
15 14 12 10 9 10 10 11 13 17 24 20 14 17 20 22 26 31 36 39 41 40 42 42 42 43 43 44 44 44 44 43 44 41 38 33 31 26 32 36 31 28 27
14 13 12 10 6 8 14 18 19 17 12 16 18 22 24 26 33 35 39 40 40 42 43 42 42 42 43 44 44 44 43 38 30 26 27 30 32 25 24 29 32 31 35
14 11 8 6 9 10 10 10 13 15 19 22 24 25 28 31 35 39 40 39 41 41 42 43 44 44 45 45 37 35 25 27 32 29 32 32 32 28 27 30 32 37 41
14 11 9 8 10 10 13 15 16 20 21 26 29 32 36 35 39 39 38 41 42 43 43 43 44 45 41 30 29 31 33 33 33 35 32 31 34 28 28 31 31 34 37
15 12 9 11 13 14 15 18 22 23 25 28 32 35 35 41 39 40 41 43 44 44 45 45 46 45 33 29 31 31 34 34 32 34 27 27 27 32 32 30 26 28 36
17 14 12 13 16 19 20 21 23 24 28 34 37 37 37 38 38 40 42 43 43 43 44 44 45 43 36 28 31 34 33 32 31 25 28 28 31 34 36 30 27 27 31
18 17 17 18 22 23 23 25 26 30 36 40 34 37 35 35 39 41 43 43 43 43 43 43 42 41 37 28 29 32 35 31 27 29 30 32 35 38 38 31 33 34 33
21 22 25 25 25 26 28 30 31 34 40 35 33 32 35 38 40 41 42 43 42 41 41 41 40 39 35 29 34 30 30 27 28 32 32 35 38 42 36 35 34 34 34
24 25 28 29 29 29 31 34 31 36 37 34 32 33 36 38 40 42 42 41 41 41 40 41 40 38 32 30 25 25 25 25 26 32 35 37 39 36 35 36 37 36 38
27 29 30 30 29 30 31 32 35 36 35 33 32 33 36 39 42 41 41 41 41 40 40 41 39 33 28 25 22 23 24 27 29 32 33 34 34 35 35 35 36 38 40
25 27 28 28 28 30 32 33 37 39 34 31 32 35 38 40 41 41 41 40 40 40 40 40 36 30 28 27 25 25 24 25 28 28 30 32 33 33 33 34 35 37 38
22 24 27 27 27 30 32 37 35 33 30 31 33 37 39 40 40 40 40 40 41 41 41 38 34 31 30 28 27 25 25 24 25 27 30 31 33 33 33 33 33 34 32
20 23 25 25 29 31 33 35 31 29 30 32 35 38 39 40 40 40 41 40 41 40 39 37 34 31 31 28 25 24 22 22 25 28 30 31 31 32 32 33 33 30 26
20 22 24 27 31 33 33 31 28 29 30 34 37 39 39 40 40 41 40 39 39 39 37 35 33 31 30 25 23 20 20 22 25 28 29 30 30 31 32 33 32 28 25
22 24 26 29 32 33 31 26 26 28 32 36 38 39 40 40 40 39 38 37 37 36 36 33 30 27 25 21 18 17 19 22 24 26 28 28 29 30 31 32 30 26 24
21 25 29 32 32 34 26 23 26 30 34 37 38 39 40 40 39 37 36 36 36 35 32 30 26 23 22 18 16 17 19 21 23 24 26 28 27 29 31 31 28 25 24
22 28 32 33 35 27 21 22 27 33 35 37 38 39 39 39 36 34 34 34 34 33 31 28 25 22 17 17 17 17 19 21 23 24 25 26 27 29 29 28 25 24 24
26 30 36 35 29 22 20 25 31 33 35 37 38 39 38 36 33 33 32 32 32 30 28 25 21 18 18 17 17 17 18 20 22 23 24 25 26 28 28 27 23 21 21
32 34 35 25 19 18 23 29 31 34 35 37 38 39 36 33 32 32 31 30 29 27 25 21 20 19 19 18 16 17 18 19 20 22 24 24 25 26 26 26 22 20 19
38 30 19 15 18 22 27 30 33 35 37 38 38 35 33 32 32 31 30 28 27 25 23 21 21 20 19 19 18 17 17 18 19 20 22 23 23 25 25 26 23 20 19
26 16 13 17 21 25 29 31 34 36 38 36 35 33 33 32 32 29 28 27 26 24 23 22 21 20 19 19 18 17 17 17 18 19 21 22 22 23 24 24 24 21 18
14 13 17 20 24 27 29 33 35 37 35 34 33 32 32 32 31 28 28 27 25 24 23 22 22 20 20 19 18 18 17 17 17 18 19 20 21 21 22 22 22 21 18

GFSMW_700_spd_051.txt.gz
Wind_Speed
19 19 20 21 21 22 25 22 23 25 24 23 14 11 3 4 6 10 12 15 19 19 22 29 32 33 35 38 39 38 39 40 41 45 46 46 44 41 41 41 41 44 47
17 19 20 20 22 24 27 27 26 20 15 11 9 6 5 7 9 11 14 15 19 22 27 28 31 33 33 37 37 37 39 40 42 43 46 48 44 41 29 39 38 39 46
21 18 17 20 21 20 18 15 12 10 6 4 7 13 14 11 12 15 20 21 25 29 32 33 33 37 39 39 42 42 43 42 43 42 43 43 42 40 37 39 39 33 39
18 19 19 18 16 14 13 11 10 10 10 12 16 11 10 8 15 20 24 29 30 35 36 37 39 40 41 42 43 42 42 43 42 39 33 32 33 32 37 34 32 32 28
19 18 17 16 16 12 9 9 13 16 20 20 13 12 15 17 22 24 28 34 37 42 42 42 42 42 42 42 41 41 41 39 39 32 32 32 26 26 27 34 29 28 29
18 17 17 16 11 10 11 16 19 16 12 14 16 18 22 24 24 27 31 37 38 39 42 43 44 44 43 40 38 38 36 38 32 29 27 31 30 31 34 35 35 38 37
18 18 15 12 12 13 14 15 15 14 14 17 19 21 24 27 31 33 33 36 37 38 40 42 42 41 41 40 39 32 31 34 32 30 32 35 35 35 33 33 38 37 35
18 17 15 14 14 14 14 14 16 18 20 21 24 27 29 30 34 38 36 35 36 38 41 43 44 43 41 40 38 32 31 35 36 35 35 36 34 32 34 30 34 36 37
18 18 18 16 15 16 16 17 20 22 23 24 28 32 33 38 37 36 33 35 38 41 43 43 43 42 41 40 37 37 29 35 37 35 35 34 33 31 34 33 33 30 39
19 19 19 18 17 18 19 20 23 27 26 31 32 34 41 35 33 33 34 37 40 42 43 43 42 41 39 38 36 33 28 32 34 35 36 36 31 33 34 36 35 32 32
20 19 19 22 21 22 23 23 27 30 32 34 38 36 39 35 34 35 36 39 41 42 42 42 41 40 39 39 34 30 30 36 36 37 34 33 34 35 36 39 36 31 30
20 21 26 26 26 28 29 29 31 32 40 44 33 40 37 34 34 37 38 40 41 41 41 41 41 40 39 37 35 31 30 28 28 29 27 29 32 36 38 33 28 31 32
23 25 27 28 29 31 32 33 32 36 41 38 38 39 36 34 35 37 39 41 41 41 42 42 41 40 38 35 31 29 28 27 28 26 28 33 33 36 35 35 37 37 38
27 29 29 30 33 33 34 32 34 37 37 36 36 34 34 33 35 38 40 41 41 42 43 42 40 37 36 33 30 29 29 29 27 27 30 31 30 33 35 37 37 38 39
25 28 31 33 35 34 33 33 35 36 35 35 33 32 33 34 37 40 40 40 41 42 42 40 40 41 36 34 29 29 29 28 28 28 27 28 31 33 35 34 34 34 37
23 25 28 32 32 31 31 34 35 36 38 33 32 31 33 36 38 39 40 41 42 41 40 38 38 36 35 34 28 28 25 26 27 26 26 28 31 34 34 34 33 32 35
22 24 27 30 30 31 32 34 36 38 36 32 30 31 34 37 38 38 39 40 41 41 38 38 36 34 27 31 29 27 24 24 23 24 26 28 30 32 31 32 34 34 34
20 23 27 28 30 32 33 35 38 39 37 30 29 32 36 37 37 38 40 41 40 40 37 38 35 32 26 30 27 25 24 21 21 23 26 27 28 31 29 31 32 33 31
22 25 27 28 32 33 37 38 41 36 33 30 29 34 36 38 38 40 40 39 38 38 36 34 34 31 29 27 24 24 20 20 20 22 24 26 26 28 29 31 32 31 27
22 25 26 29 32 36 42 43 35 32 26 26 31 35 37 38 40 41 38 36 36 37 35 33 31 30 28 28 22 19 20 20 20 21 23 26 24 26 28 30 31 29 25
25 27 26 28 37 37 41 42 25 23 26 28 33 35 37 39 41 40 38 35 35 35 32 31 30 28 26 23 19 20 20 20 20 21 22 23 25 26 27 28 29 27 24
27 28 32 37 38 39 36 24 20 24 28 31 34 36 39 39 38 37 36 35 35 34 31 30 28 26 24 22 21 20 20 20 20 21 21 22 23 24 25 26 27 25 22
30 33 40 43 34 35 25 20 23 26 30 33 36 38 37 36 36 36 37 36 33 31 30 29 27 25 24 24 23 20 20 20 20 21 21 21 22 22 24 25 25 24 21
34 38 38 32 27 23 21 22 25 28 32 36 38 37 37 35 34 34 35 35 33 31 29 27 25 24 23 23 24 23 20 19 20 21 20 20 21 21 22 24 25 25 23
35 33 28 21 19 22 23 24 27 32 35 37 37 38 38 36 34 34 33 32 31 31 29 27 26 26 24 24 23 23 23 22 22 21 20 20 20 21 22 22 23 24 23
28 21 20 20 21 22 24 28 31 34 36 37 37 37 37 36 35 35 35 32 30 30 27 26 26 25 24 24 24 23 23 23 23 22 22 20 20 20 20 21 22 22 23

GFSMW_700_spd_054.txt.gz
Wind_Speed
19 12 17 19 17 20 24 19 19 20 22 23 22 15 12 8 6 4 10 17 19 21 23 24 27 30 34 38 40 40 40 39 41 42 42 43 42 40 36 40 39 40 43
20 17 19 19 21 26 27 21 25 25 23 17 12 9 8 11 12 12 16 19 19 21 26 26 31 35 36 37 40 39 41 40 40 41 43 45 42 40 39 40 40 41 41
21 19 21 22 24 26 26 25 23 17 15 13 11 14 16 13 14 15 17 17 21 23 27 29 33 36 38 38 40 41 42 42 40 39 41 43 44 44 42 36 39 41 45
18 20 24 22 23 22 19 18 14 13 11 12 14 16 12 14 17 20 16 25 23 27 30 32 36 36 37 39 41 41 42 40 41 41 37 37 38 42 45 37 32 31 31
25 27 23 20 17 15 14 11 11 12 12 15 17 10 11 15 19 23 27 29 30 34 36 38 38 40 41 42 43 44 43 41 42 38 35 34 31 29 34 41 36 33 34
26 24 19 17 15 11 11 11 13 17 15 13 13 15 17 21 24 24 26 29 35 36 37 36 39 40 40 40 40 41 40 37 35 35 38 37 36 35 37 40 41 40 40
23 19 19 17 14 13 13 15 17 17 16 17 17 18 21 22 25 29 30 36 35 33 33 35 37 38 39 39 39 38 41 37 35 35 37 39 40 40 38 36 34 36 36
21 19 19 18 15 16 16 16 18 19 19 19 21 22 25 28 27 29 37 32 33 33 34 36 37 39 39 39 38 38 40 42 31 31 36 39 39 38 38 34 36 39 39
20 21 21 19 21 19 17 16 20 24 24 23 24 27 29 31 35 35 37 37 33 33 35 38 40 40 40 40 39 39 39 39 33 31 36 37 37 35 33 35 33 36 41
19 21 23 22 23 23 22 17 20 26 27 26 30 33 36 35 35 37 37 36 35 35 38 40 40 40 40 40 39 38 38 34 32 32 36 39 37 38 38 39 37 37 42
19 20 22 23 25 25 27 22 23 29 30 31 31 33 39 39 35 37 37 36 36 37 40 41 40 40 40 40 39 37 36 34 33 31 32 32 32 33 35 35 38 42 37
21 21 23 25 27 31 30 27 27 32 34 29 31 34 40 39 38 38 36 36 38 40 40 41 41 41 39 39 36 36 34 33 32 31 31 31 31 29 32 39 38 36 37
21 22 24 31 34 33 32 31 32 32 31 31 33 41 38 39 37 34 35 36 38 40 40 40 41 41 39 35 35 35 32 31 31 31 30 31 29 32 34 31 34 36 39
21 27 32 35 33 31 33 35 32 31 30 34 37 37 39 37 35 33 34 36 39 40 40 41 42 40 42 38 35 34 32 30 29 28 27 28 32 30 29 32 34 37 37
28 32 35 33 31 32 33 32 34 30 33 34 36 38 39 39 35 32 34 38 39 39 41 41 41 36 36 39 39 35 29 29 29 28 28 30 29 29 30 32 33 34 35
28 23 25 27 29 32 31 34 32 32 35 34 38 39 38 34 31 34 33 37 39 40 41 42 38 35 35 37 35 33 31 31 28 28 30 26 26 29 31 31 33 33 35
23 21 24 26 31 33 35 34 31 35 34 38 39 39 32 33 31 30 34 37 39 41 41 41 37 35 35 35 33 28 31 32 28 28 26 24 25 27 28 30 31 32 33
21 22 24 28 32 35 35 34 35 38 41 42 40 34 30 27 29 32 36 38 40 39 37 39 34 35 36 35 31 25 32 29 27 24 23 24 26 26 28 29 29 31 32
17 22 26 29 32 34 34 35 37 40 43 50 39 28 25 27 31 36 39 40 38 36 36 36 33 34 35 34 30 27 27 26 23 22 22 24 24 24 27 28 29 29 30
24 24 26 27 30 33 34 34 40 43 44 38 27 24 27 31 35 39 40 40 36 35 36 33 33 33 34 32 27 25 24 24 23 20 22 23 23 24 26 27 29 29 30
27 28 29 29 31 35 38 41 45 36 27 23 26 29 31 34 37 38 39 39 38 37 36 35 33 32 31 30 27 24 24 24 23 21 21 23 22 23 25 27 28 29 29
31 32 32 32 37 39 42 42 33 23 22 27 29 29 32 33 36 38 38 38 38 37 36 35 33 30 28 27 26 23 22 24 23 22 21 21 22 23 23 25 26 27 27
31 31 35 36 37 40 36 26 21 23 24 25 29 31 34 36 36 35 35 35 36 36 36 33 31 29 27 26 26 25 22 21 22 23 22 21 22 22 22 23 24 23 24
31 29 29 33 35 27 23 24 25 21 24 28 31 33 35 36 36 36 35 34 35 35 35 32 31 30 28 25 25 26 24 22 21 21 22 21 21 22 22 21 22 24 24
26 28 31 26 24 24 22 19 20 25 28 30 33 35 37 39 40 39 38 36 33 32 31 31 31 31 30 27 27 25 25 25 26 24 22 21 21 21 21 21 21 22 22
24 23 19 18 17 15 18 22 26 30 32 34 36 38 38 40 40 40 38 36 34 32 30 29 30 29 28 28 27 25 25 25 26 26 24 22 22 21 21 20 20 20 21

GFSMW_700_spd_057.txt.gz
Wind_Speed
13 14 15 14 11 8 9 11 12 14 15 18 20 19 14 11 8 10 11 11 15 24 26 26 28 29 31 33 33 39 39 37 39 40 39 39 38 38 39 40 41 40 39
10 11 14 21 19 14 15 17 18 15 21 23 20 15 12 11 15 11 11 13 15 19 24 26 27 28 28 31 36 37 37 38 38 39 40 41 37 37 37 37 39 39 39
14 15 17 20 21 20 20 19 20 21 23 20 14 14 15 19 17 13 14 16 21 21 23 24 28 30 32 34 34 36 37 37 36 37 39 42 44 43 38 37 35 38 40
24 20 21 23 23 20 20 21 24 23 18 13 17 18 19 19 16 17 16 19 17 25 26 29 33 33 34 36 37 38 39 39 39 39 39 38 41 45 48 46 40 32 33
24 26 26 22 25 24 22 21 17 15 14 20 19 18 18 20 20 21 22 25 27 29 32 35 33 34 35 36 38 39 40 40 40 40 41 42 41 39 42 48 45 41 36
27 25 25 24 20 19 17 16 17 17 17 16 16 16 19 19 21 22 23 25 27 34 39 36 39 39 38 39 39 39 40 40 40 38 39 41 41 39 39 40 41 41 40
30 31 31 29 20 18 18 18 16 14 14 16 18 18 20 21 23 26 27 31 30 35 36 35 34 35 36 37 38 38 38 40 42 41 38 38 39 35 40 41 40 41 38
35 34 28 22 16 15 15 16 17 16 16 16 18 19 21 24 26 28 37 38 35 34 36 33 33 33 36 37 38 37 38 40 41 41 39 39 38 34 38 38 41 44 44
25 24 22 20 14 17 17 18 20 21 20 17 17 19 22 26 30 34 41 44 33 32 33 33 32 35 37 38 38 39 39 40 38 38 38 37 35 36 39 39 40 41 43
20 20 21 21 19 19 19 22 25 26 24 21 21 23 29 31 31 34 40 39 34 34 32 32 34 37 38 39 39 38 38 38 37 36 34 35 34 34 36 34 35 32 39
15 18 20 23 24 23 21 22 25 27 28 28 29 28 30 32 40 39 39 35 35 35 34 35 37 38 40 38 38 37 36 36 36 36 36 34 34 34 34 34 33 35 38
12 16 19 24 25 26 25 28 29 29 30 31 34 33 35 38 37 40 35 35 37 37 35 37 38 40 40 36 36 37 35 34 35 34 34 34 33 33 33 34 32 34 37
19 20 20 24 27 29 29 30 33 37 37 36 31 33 34 36 41 34 33 34 34 33 36 35 38 42 40 39 37 35 35 35 33 32 32 31 31 31 29 29 27 28 31
19 20 22 28 32 33 35 37 39 40 36 33 37 35 40 38 37 31 32 33 35 36 33 36 40 41 38 38 37 36 35 36 33 30 30 30 31 29 29 25 26 29 32
18 22 27 32 34 38 41 41 40 35 34 36 35 39 37 41 38 41 34 34 36 31 32 39 42 39 36 36 35 36 36 36 32 31 33 33 30 29 26 25 26 29 31
21 26 30 33 36 40 40 36 33 35 37 35 35 37 39 44 41 41 40 32 29 31 36 40 40 37 35 35 34 34 34 32 25 34 36 35 29 25 24 25 27 29 32
21 25 29 35 37 35 32 32 36 39 38 34 38 39 42 41 43 36 27 28 30 33 36 38 39 36 33 35 33 33 32 29 25 32 38 30 25 23 23 24 26 27 29
23 26 28 31 32 33 35 38 41 41 39 38 42 44 49 36 22 27 28 31 33 34 36 37 36 34 34 34 33 32 31 29 29 29 27 25 24 21 22 23 24 25 27
19 19 21 25 29 33 36 38 40 42 42 43 46 43 28 23 27 27 30 32 34 35 36 34 33 34 34 33 31 31 30 28 27 24 24 25 24 21 22 22 24 25 25
19 24 28 27 27 30 32 35 38 41 45 48 37 26 24 23 25 29 31 34 36 38 37 34 33 34 32 32 30 30 28 26 25 23 23 24 23 21 22 22 23 23 25
29 30 29 30 31 33 33 35 40 44 40 30 25 23 22 23 26 30 33 36 38 39 37 35 35 34 34 31 30 28 26 25 25 24 23 23 22 21 21 21 22 23 24
31 32 31 31 32 32 35 39 38 32 26 23 20 19 23 27 28 30 32 35 36 37 36 35 35 35 33 30 29 26 25 24 24 23 23 22 22 21 21 21 22 23 23
28 28 27 28 30 32 35 34 27 24 18 16 19 23 26 30 33 33 34 34 35 36 37 36 34 33 30 28 27 27 26 24 25 23 22 21 21 22 21 21 21 21 22
22 21 22 24 27 30 26 21 17 15 17 20 23 27 30 32 35 37 38 39 38 37 35 34 34 33 31 29 28 28 27 26 26 24 22 21 22 23 22 20 20 20 20
23 23 27 24 23 20 18 17 18 20 22 25 27 30 34 36 38 39 40 40 38 37 35 31 31 32 32 30 31 30 29 27 26 26 24 22 21 22 21 19 19 19 19
24 24 22 20 18 16 16 19 22 25 28 31 33 35 37 38 41 42 42 40 37 33 32 31 32 31 31 30 29 29 29 27 27 27 25 23 22 23 22 20 18 18 17

GFSMW_700_spd_060.txt.gz
Wind_Speed
4 7 10 9 9 8 7 7 6 9 10 11 13 15 17 13 12 11 16 17 16 18 18 22 25 27 31 33 33 33 33 36 40 40 39 38 36 35 35 37 38 39 40
14 12 11 8 5 5 6 6 8 11 12 14 16 17 15 13 13 16 16 14 15 17 19 20 24 28 29 31 34 35 38 39 40 40 40 39 35 36 35 35 37 38 40
19 18 18 15 14 15 14 14 14 13 15 18 20 16 14 14 16 14 14 14 15 18 21 24 29 30 31 32 33 37 40 40 39 38 38 40 40 40 36 37 38 37 37
19 19 16 18 20 20 20 20 18 17 20 21 16 14 15 15 14 15 14 16 17 22 21 25 27 26 26 32 35 37 39 40 39 39 39 39 42 44 49 47 45 40 37
20 19 18 18 20 23 23 23 21 23 23 17 14 15 15 15 15 16 17 19 24 25 29 31 30 30 35 36 36 38 38 40 40 41 41 41 41 42 44 48 47 43 40
23 22 22 23 26 18 18 24 27 24 17 14 15 17 17 16 18 20 21 25 29 24 35 39 31 35 36 37 38 38 40 41 41 41 41 42 42 42 43 44 44 42 38
24 26 29 25 19 21 22 20 19 16 14 15 16 16 17 18 20 22 27 23 29 38 43 48 37 34 35 36 38 40 40 41 42 43 43 43 42 41 41 42 43 41 41
26 29 30 24 27 25 22 18 17 17 16 16 15 17 20 22 25 27 32 29 29 40 41 42 35 33 34 37 40 40 39 41 42 42 42 42 42 42 41 39 37 39 41
27 28 29 28 28 24 20 19 20 19 17 17 17 20 23 25 28 28 31 42 38 37 47 39 36 33 36 39 39 39 40 41 42 42 41 40 40 40 40 38 36 37 39
27 26 24 24 19 19 18 19 20 20 22 22 23 23 24 28 26 39 38 36 45 42 39 36 36 36 39 39 38 39 41 42 42 43 42 41 40 39 38 38 37 37 37
15 14 14 14 15 17 18 21 21 23 23 22 22 24 31 35 35 32 31 41 45 45 38 37 37 37 40 36 37 40 42 41 40 39 39 39 38 37 37 37 35 31 38
8 9 10 12 16 18 21 21 21 25 24 26 30 31 35 41 33 38 45 40 44 47 42 42 38 40 38 34 39 41 41 39 38 38 37 36 35 34 34 33 31 29 30
15 16 17 18 20 20 21 24 25 27 30 30 34 37 35 40 37 45 48 41 48 42 39 42 43 32 32 37 41 41 40 39 37 36 36 35 32 31 31 29 27 28 27
19 20 22 24 24 23 25 30 28 30 32 34 37 39 38 39 42 41 43 47 45 44 41 30 30 32 36 39 39 38 39 38 36 35 35 34 31 31 32 29 28 25 27
20 23 27 30 28 26 29 29 31 32 35 38 38 39 38 40 41 46 46 50 45 30 26 30 34 37 38 38 38 38 38 37 36 36 35 33 34 39 37 30 25 25 28
19 24 25 26 28 28 29 32 31 36 38 36 37 38 42 40 44 47 47 39 27 23 27 31 35 36 37 37 36 37 37 37 35 34 32 29 34 38 35 26 24 26 27
19 22 23 24 26 29 30 32 35 36 35 37 38 42 46 45 47 44 36 28 23 24 29 32 34 36 37 37 36 36 37 36 35 33 31 30 31 30 25 24 24 25 26
16 20 22 23 25 28 30 33 34 37 38 39 41 43 46 49 41 33 27 21 24 27 30 32 33 36 38 38 37 38 37 34 33 32 31 30 29 26 24 24 23 23 25
14 18 19 21 22 27 29 30 33 36 37 38 41 46 47 37 32 25 21 24 27 30 32 33 35 36 37 37 36 36 35 32 32 31 30 29 28 26 24 23 23 22 23
16 19 20 22 28 28 29 32 35 37 39 42 45 38 38 29 22 20 24 26 30 33 35 36 36 36 35 35 35 35 33 31 30 29 28 28 27 26 24 23 22 22 22
18 21 25 26 25 26 29 32 35 38 42 42 38 35 28 23 23 24 26 30 34 36 37 38 38 37 36 36 36 35 34 31 30 28 27 28 27 25 23 23 22 22 21
23 24 24 22 23 26 29 33 38 38 38 38 31 27 22 24 26 28 29 32 34 36 38 39 38 37 35 37 36 34 33 31 30 28 27 26 26 24 24 23 23 21 20
21 20 20 21 25 28 32 33 35 38 31 25 22 22 25 27 30 32 34 36 38 39 40 39 38 36 35 34 34 33 32 31 31 28 27 26 25 25 24 24 23 21 21
20 21 23 26 29 29 33 32 28 25 22 22 24 26 28 30 34 36 39 41 42 43 43 41 38 35 33 32 33 34 33 31 30 29 27 26 24 24 24 25 24 22 21
23 25 28 29 31 31 27 25 25 25 25 25 27 30 33 35 38 40 43 44 45 42 42 40 38 35 33 31 33 34 33 31 30 30 28 26 24 22 23 24 23 22 21
27 29 29 27 25 24 25 24 24 26 28 30 32 35 39 42 45 48 50 49 48 44 38 36 36 34 33 31 31 30 31 30 28 29 26 25 24 23 23 23 22 21 20

GFSMW_700_spd_063.txt.gz
Wind_Speed
6 12 15 15 16 14 12 10 8 5 6 6 7 8 10 12 12 12 12 14 18 18 18 20 22 23 25 29 31 33 34 36 37 38 41 43 43 42 40 38 37 35 37
12 12 12 11 11 9 8 8 8 7 7 10 11 11 14 14 13 13 13 18 16 16 19 19 22 26 28 31 33 33 35 36 40 41 43 44 41 40 38 38 39 39 40
7 8 8 5 7 7 7 9 10 10 12 13 13 13 15 13 12 14 17 14 15 17 21 23 24 25 28 31 30 31 36 38 40 40 40 43 43 42 39 40 40 41 40
12 12 7 6 7 9 12 13 17 16 16 16 15 16 14 13 14 16 14 13 16 18 22 23 24 26 30 33 34 36 36 39 39 39 40 40 41 43 46 45 44 43 42
17 15 12 9 9 9 9 14 17 19 19 20 18 14 13 14 14 13 15 15 19 24 24 28 24 34 38 38 35 38 38 39 39 41 42 41 42 42 44 48 48 48 45
19 19 16 15 14 15 12 14 17 19 22 21 18 13 13 13 13 15 18 20 27 28 22 25 37 33 35 43 40 38 40 40 41 44 45 44 44 45 45 47 48 48 48
23 19 17 16 19 14 13 15 17 21 23 20 16 14 13 13 14 17 23 27 30 35 27 44 34 37 43 40 40 40 41 40 42 43 43 44 44 45 45 46 47 47 48
25 22 20 23 22 15 16 19 24 21 18 17 17 16 16 16 18 25 27 33 30 24 32 37 44 43 43 39 41 41 40 40 42 43 44 44 44 44 44 45 45 46 45
16 20 19 21 19 19 23 28 21 16 16 17 19 20 21 21 25 29 31 37 32 34 31 42 39 47 41 44 43 42 42 45 42 43 45 45 45 45 44 43 42 41 41
19 19 18 18 20 23 28 23 17 15 18 21 22 20 21 29 32 31 36 40 44 34 40 45 43 43 50 44 44 45 41 39 41 44 46 46 45 43 41 40 38 36 36
10 14 16 17 19 19 19 18 18 16 17 16 18 19 26 27 29 38 39 42 42 41 45 51 46 53 47 44 39 34 35 39 43 45 46 45 44 42 40 38 35 33 32
6 7 10 11 11 11 12 15 17 16 16 18 22 28 28 31 35 44 38 45 41 47 45 47 47 47 40 31 31 35 40 42 44 45 44 42 41 39 37 34 30 30 31
8 9 11 13 15 17 16 18 17 20 22 26 27 31 31 33 34 35 35 42 42 43 48 52 43 36 26 28 33 37 40 43 45 44 44 41 39 38 37 34 32 34 34
13 13 17 20 24 24 23 24 23 28 32 26 30 29 33 33 34 37 37 40 42 44 48 45 39 29 28 32 36 39 41 43 44 44 43 41 39 37 35 31 34 37 34
18 18 21 26 26 25 26 25 28 32 32 31 26 28 30 34 35 38 41 45 46 46 44 36 28 27 31 35 38 40 42 44 45 44 43 41 38 36 33 31 36 36 28
20 20 22 25 26 25 25 24 29 32 30 27 27 31 37 36 39 43 45 47 46 43 35 30 28 31 33 36 38 41 43 44 43 42 41 39 36 34 33 33 31 27 27
21 19 18 23 23 21 22 23 26 26 27 29 32 35 37 39 43 45 49 45 44 37 30 30 31 32 34 37 40 42 43 43 43 42 39 37 35 33 32 31 28 28 27
19 20 19 20 21 20 20 21 23 28 28 30 33 36 39 43 46 48 44 44 37 31 31 31 32 33 36 38 40 42 43 42 41 40 37 35 34 32 32 31 28 27 26
15 13 14 18 18 19 19 25 26 26 29 32 36 40 41 45 45 42 41 33 31 31 31 33 35 37 38 39 40 42 41 40 39 37 35 34 32 32 31 30 29 27 25
11 12 13 16 17 21 25 25 25 27 31 34 39 41 45 40 42 36 33 31 32 33 34 37 39 42 43 43 43 43 42 39 37 36 34 32 32 31 31 29 28 26 25
12 13 15 19 22 22 24 24 26 30 33 38 42 40 41 40 35 31 30 32 34 36 39 42 44 45 45 45 44 43 43 40 38 36 33 32 33 31 29 29 27 25 25
15 17 20 21 22 23 25 27 31 33 38 38 37 41 38 33 31 33 34 36 38 41 43 46 47 47 46 46 43 41 41 40 39 36 34 33 33 32 29 28 26 25 25
19 20 20 20 20 24 28 31 36 37 36 40 37 34 31 32 35 36 38 41 42 45 47 49 51 50 47 43 39 40 40 39 39 37 35 33 32 32 29 28 28 27 26
20 21 19 22 27 29 32 33 34 36 34 31 30 30 32 33 35 38 41 44 46 49 51 52 52 51 48 41 36 37 37 36 37 35 33 32 32 32 29 26 27 28 27
21 24 27 28 27 29 32 32 30 29 28 28 29 31 34 37 39 43 46 50 52 54 55 56 54 50 48 41 38 35 34 36 35 34 33 30 29 29 28 26 25 27 27
25 26 26 29 31 30 29 28 27 26 28 30 32 35 39 42 46 49 51 52 53 54 56 56 54 51 44 39 44 36 34 35 35 34 32 29 26 26 25 25 26 25 25

GFSMW_700_spd_066.txt.gz
Wind_Speed
13 16 16 16 17 19 19 18 15 14 10 7 6 5 6 6 8 10 10 10 11 14 15 15 16 17 21 24 27 30 32 33 33 34 38 38 41 42 41 41 40 39 39
14 14 15 16 16 16 17 16 14 11 9 8 9 9 9 8 8 9 10 9 13 15 15 17 19 22 24 24 26 29 30 30 35 38 39 42 41 41 42 42 41 39 39
11 13 13 13 13 12 11 10 10 9 9 9 12 11 11 10 8 8 9 12 15 16 18 19 22 26 27 24 28 31 33 31 37 39 40 43 44 43 42 41 42 42 42
12 11 10 9 5 7 12 12 12 12 12 12 13 13 13 13 9 10 13 15 16 17 20 21 21 23 28 29 40 32 37 38 37 39 41 40 42 45 48 46 45 44 44
14 13 10 9 9 8 9 11 13 13 15 14 14 15 16 14 12 14 15 15 17 21 22 26 27 26 25 34 39 40 47 41 41 44 44 45 45 45 45 48 47 48 48
19 15 13 13 11 11 11 11 12 12 15 18 17 17 17 16 15 15 15 17 20 23 28 26 33 26 30 34 39 45 42 41 45 45 46 47 48 46 44 46 47 48 48
23 21 17 13 11 12 14 11 9 11 15 19 20 20 18 16 16 17 18 21 24 25 30 28 31 33 36 39 40 42 45 43 43 44 46 47 42 42 43 45 47 48 47
19 20 20 16 13 17 9 14 10 14 17 17 17 17 18 20 20 21 23 24 25 29 39 37 35 36 41 40 49 44 41 43 44 44 42 39 40 42 44 45 46 47 47
8 12 14 13 15 16 13 15 17 21 20 17 16 18 22 20 22 27 26 28 29 33 34 40 36 42 40 46 44 40 41 42 40 36 38 41 43 44 45 44 43 41 42
8 10 12 14 14 16 17 17 21 24 18 17 18 22 22 24 24 22 24 27 34 42 38 41 34 45 42 45 47 41 38 35 35 37 40 42 44 45 45 44 42 40 39
5 6 7 10 13 16 16 20 19 15 14 15 18 18 17 18 26 19 27 24 27 31 38 38 45 46 41 47 47 41 34 33 36 40 42 42 45 46 46 45 43 40 38
8 6 7 10 11 15 18 15 9 8 8 12 16 18 19 25 23 33 30 31 35 29 44 38 41 42 46 45 41 34 34 36 40 40 41 43 45 45 45 44 42 40 38
11 11 8 9 10 13 18 17 16 16 16 18 24 22 21 27 21 35 26 35 37 38 37 41 46 43 42 36 31 32 36 38 39 41 43 44 46 46 44 42 39 38 37
15 15 15 14 15 19 21 23 23 25 23 22 25 29 22 18 26 24 32 35 36 39 41 45 44 42 35 31 33 36 37 38 40 42 44 46 46 44 42 40 37 36 35
22 18 19 17 17 23 25 25 25 25 25 27 31 32 25 25 28 30 32 36 39 41 44 42 42 38 31 34 37 37 38 40 42 44 46 46 45 43 41 38 35 35 33
18 20 19 18 21 23 25 25 24 22 25 29 36 25 27 29 31 33 44 35 43 45 41 44 38 33 34 38 38 39 41 43 45 46 46 46 45 43 39 36 35 33 32
19 21 21 19 19 22 24 23 21 19 20 21 24 26 28 31 35 40 41 41 43 42 45 37 34 35 37 38 39 41 44 46 46 47 47 47 45 42 37 35 34 32 31
19 20 19 19 20 18 20 20 16 16 18 21 24 27 30 36 39 45 40 45 44 42 35 33 36 37 38 40 42 44 47 47 47 47 47 47 45 39 36 35 33 32 31
15 17 18 18 17 16 16 17 18 21 24 25 27 31 36 34 39 42 43 42 39 34 33 35 37 40 41 44 46 48 50 50 49 47 46 45 41 36 35 34 32 32 30
15 15 14 14 15 16 18 20 22 23 23 27 31 33 34 41 42 40 40 36 32 33 36 39 42 44 45 47 49 50 52 53 51 48 44 42 39 36 34 34 33 32 29
16 14 13 14 15 17 20 20 22 23 25 29 33 35 38 38 39 36 33 33 35 39 40 43 45 48 50 51 53 54 54 52 50 45 40 38 37 36 34 33 32 31 30
16 16 17 18 19 20 21 20 23 26 29 31 38 38 36 35 34 34 34 37 40 42 44 47 50 52 53 54 54 55 53 50 47 42 37 34 34 34 34 33 32 32 31
18 18 19 21 21 22 23 27 29 31 31 31 33 36 32 32 33 35 37 40 42 46 50 53 56 57 58 58 56 51 49 46 43 39 37 34 32 31 33 32 31 33 32
20 20 22 23 24 23 26 29 30 27 33 29 29 30 30 31 33 36 40 44 47 51 54 57 60 62 63 62 58 54 45 41 44 41 36 35 33 31 30 30 30 29 30
22 22 24 23 24 28 28 25 28 30 28 27 27 28 31 34 37 40 43 46 49 53 56 59 60 61 61 58 54 51 46 38 40 44 39 35 29 30 29 28 28 27 27
23 24 22 26 26 25 30 31 27 25 25 27 29 32 34 37 40 44 46 47 50 53 55 55 55 55 53 52 48 43 39 35 38 36 33 29 29 29 27 27 26 26 25

GFSMW_700_spd_069.txt.gz
Wind_Speed
15 17 18 18 20 21 21 19 18 17 15 14 11 9 7 7 6 7 11 9 10 12 13 14 14 15 16 19 22 24 25 28 30 33 35 35 36 38 39 40 40 39 40
16 17 20 21 19 18 18 17 16 14 13 12 11 10 9 7 8 9 9 9 12 14 15 15 16 16 19 24 27 27 25 31 28 31 35 37 39 40 41 41 41 42 42
11 14 15 17 18 16 15 13 13 13 12 11 13 13 9 10 8 10 11 12 15 16 16 16 16 17 21 23 24 27 29 36 31 37 36 38 41 42 42 42 42 45 42
17 16 15 14 13 14 15 16 18 17 15 15 13 13 12 12 14 14 14 13 15 15 16 16 16 19 24 31 29 26 30 32 32 35 38 40 39 42 45 46 44 42 40
17 18 15 15 14 15 16 16 17 19 19 18 15 15 15 14 17 18 15 13 15 16 18 19 21 30 31 30 29 33 40 33 37 38 39 39 40 40 43 43 41 42 42
19 17 18 19 17 18 17 17 19 20 20 21 17 16 17 17 18 17 16 15 17 17 20 23 29 31 32 33 34 31 44 45 37 40 40 39 39 39 37 38 38 42 42
23 21 21 20 20 19 18 18 16 15 15 16 18 16 18 20 19 19 18 17 19 22 24 26 29 36 35 35 33 42 41 42 41 40 40 38 35 34 36 38 40 43 44
22 22 21 21 17 16 17 15 11 13 14 13 15 18 20 20 20 21 20 21 23 24 27 31 31 35 36 37 33 42 37 40 38 42 36 31 33 34 37 39 42 44 45
11 17 17 17 18 21 14 15 15 15 16 16 16 19 21 21 21 20 20 24 21 23 25 26 34 44 34 43 44 40 42 42 42 36 32 33 35 36 38 40 42 44 45
9 13 14 16 14 13 17 18 16 15 17 19 19 19 22 21 21 20 18 19 20 26 25 24 34 30 38 44 41 42 42 42 37 33 33 35 38 38 40 42 44 43 43
3 8 13 14 15 17 18 17 16 15 18 17 18 20 22 22 17 20 18 22 26 34 34 26 31 42 36 40 43 42 42 38 33 34 37 37 39 40 42 44 45 44 43
6 8 9 10 15 19 20 19 17 15 11 10 9 11 15 19 21 21 23 17 27 28 28 32 35 33 37 41 42 41 37 33 34 37 38 39 41 42 44 46 46 45 43
14 12 12 10 9 14 16 19 18 17 18 18 17 17 21 23 28 21 36 23 18 29 29 36 34 39 41 40 41 36 32 34 37 38 39 40 42 44 46 47 47 44 42
12 16 16 14 13 13 14 17 18 21 23 25 25 20 27 30 32 16 26 28 33 28 35 33 38 38 40 41 36 33 34 37 38 39 40 42 44 46 47 47 46 43 41
15 14 19 20 17 14 17 19 21 22 22 23 24 26 32 35 26 14 28 28 29 39 39 41 36 41 40 36 33 34 36 38 39 40 42 45 46 47 48 47 45 42 38
19 19 19 22 20 18 20 21 22 22 22 22 23 23 29 24 18 28 32 28 39 40 37 39 41 38 34 33 33 35 38 40 42 44 45 47 48 49 48 46 44 40 37
27 24 23 23 22 22 22 22 22 24 24 22 20 16 23 24 29 31 29 43 33 34 43 42 38 34 32 33 35 38 42 44 46 48 49 49 49 48 47 45 42 38 35
15 18 19 20 23 24 21 22 25 24 24 21 18 19 23 25 30 31 39 31 38 39 40 36 33 33 33 36 39 42 45 47 49 51 52 51 50 47 44 43 40 35 34
14 16 17 18 20 21 21 20 20 20 20 19 18 20 26 29 34 33 34 38 39 38 33 32 33 35 37 39 43 46 49 52 53 53 53 50 48 43 40 40 35 33 32
17 17 17 18 20 20 20 19 20 20 20 22 25 25 24 29 32 34 39 36 33 32 32 34 36 39 42 44 47 50 54 56 57 57 55 50 42 39 37 36 32 31 29
16 17 17 17 16 17 17 19 21 23 22 24 24 29 28 28 35 33 33 30 30 32 34 37 39 42 45 48 50 52 56 59 58 57 55 47 36 37 34 33 30 28 27
17 16 16 16 16 17 18 20 19 21 23 26 26 30 30 31 31 28 29 29 33 36 38 41 43 46 49 52 53 55 57 57 57 53 49 45 33 35 34 33 29 25 27
16 16 17 17 17 17 18 21 19 20 23 27 27 28 30 28 27 27 30 32 35 38 41 45 48 51 53 55 58 58 56 53 51 48 42 41 35 40 34 31 29 24 28
17 17 18 18 18 18 21 20 22 25 26 25 28 27 25 26 27 30 33 35 38 41 44 48 51 52 55 57 57 56 53 50 46 41 37 34 34 37 34 26 25 26 25
17 17 18 18 19 20 22 24 24 23 27 27 23 24 25 27 29 31 34 37 40 44 47 49 52 54 56 55 54 52 50 46 41 38 30 26 30 32 25 19 23 25 24
19 18 18 19 21 23 25 23 26 27 22 23 23 25 27 29 31 33 36 39 41 44 46 48 51 52 52 52 51 47 42 34 26 24 22 24 25 20 19 20 22 22 22

GFSMW_700_spd_072.txt.gz
Wind_Speed
13 11 13 14 17 19 18 16 17 18 19 18 16 14 12 13 14 14 14 13 14 13 11 14 13 13 12 14 16 19 22 23 24 27 33 33 32 31 32 35 36 38 39
15 14 16 20 21 20 19 18 17 17 16 15 15 14 14 14 13 13 14 16 15 13 14 13 13 14 15 17 19 21 24 22 20 26 29 31 35 42 38 35 38 39 37
14 17 19 20 21 21 19 18 17 16 16 17 18 17 14 13 13 12 14 16 13 14 13 13 14 15 18 22 23 24 27 33 35 32 34 34 33 36 39 42 36 37 36
16 18 18 19 18 19 20 20 20 20 19 19 18 18 17 15 14 15 15 17 16 14 13 13 15 17 21 25 27 32 34 30 34 34 40 37 37 35 38 37 41 41 33
18 19 19 20 21 22 21 22 21 21 21 21 19 19 20 20 19 19 22 17 17 17 15 16 19 21 24 28 32 35 33 38 32 38 41 39 36 37 37 37 32 34 36
21 21 20 20 21 22 23 23 22 22 23 23 22 22 23 23 23 23 18 19 20 19 18 19 22 24 25 29 36 34 29 27 33 38 36 35 36 36 35 34 33 34 33
27 25 25 24 25 24 23 22 22 23 22 23 23 23 21 24 25 25 22 21 21 20 21 24 25 26 28 32 31 30 24 32 33 37 38 38 37 34 31 33 35 36 35
25 32 29 26 26 26 25 23 25 22 20 19 18 18 26 28 25 26 23 22 23 24 25 27 27 25 28 32 38 31 36 38 38 40 40 39 37 32 32 34 37 38 38
18 26 32 33 28 26 23 19 23 22 19 18 23 22 23 25 26 25 25 26 25 26 27 26 27 31 29 33 34 37 39 38 40 41 41 37 32 33 34 36 37 39 41
14 18 25 29 30 29 27 27 22 21 21 21 22 24 24 27 27 27 26 25 25 26 24 27 33 34 30 28 35 39 38 39 41 41 39 34 34 35 37 36 38 40 42
5 14 18 21 26 28 26 25 29 26 23 21 21 22 23 25 27 27 26 25 27 30 23 31 36 21 26 28 33 35 37 39 40 38 35 34 36 37 36 38 41 43 44
4 5 7 13 24 29 29 28 27 26 23 20 17 17 18 22 23 24 26 29 31 25 17 29 33 24 31 30 34 37 39 39 37 34 34 35 35 37 39 41 43 45 45
12 13 11 13 13 20 25 26 24 25 27 23 20 19 19 20 24 28 34 33 34 27 16 27 29 24 23 33 34 40 37 34 33 33 34 35 37 39 41 43 45 45 42
15 11 11 15 17 17 19 22 23 26 27 25 25 26 26 29 25 23 33 35 36 28 22 32 30 25 27 35 36 36 33 32 32 33 34 37 39 41 43 45 47 47 47
20 19 17 17 20 21 22 22 21 23 25 23 25 26 28 27 28 34 36 31 20 28 23 34 31 30 36 34 32 31 31 32 34 35 38 41 43 44 45 47 48 46 48
20 20 20 20 19 25 23 24 24 22 24 25 27 29 30 30 28 29 34 35 30 21 29 28 32 34 34 30 30 32 33 34 36 39 42 45 48 50 50 50 48 46 46
28 29 29 28 28 28 29 27 26 27 27 29 31 32 32 30 23 25 29 29 24 31 30 33 33 33 30 30 31 33 36 38 40 43 47 49 51 53 54 52 50 47 42
21 19 19 22 22 24 27 28 29 30 31 33 33 31 27 23 23 25 27 31 29 30 35 36 33 32 29 30 33 35 39 43 45 48 50 53 54 53 49 47 44 42 39
14 13 13 13 15 18 21 23 25 29 32 32 28 25 23 22 24 26 24 30 33 36 33 32 30 31 32 33 35 40 44 47 49 51 53 55 55 51 46 43 40 38 35
15 15 16 19 20 21 22 23 22 23 23 24 24 22 23 22 20 28 31 29 33 34 30 29 31 33 34 37 39 42 46 50 53 55 55 54 53 49 38 41 36 34 30
18 17 17 17 18 19 19 20 20 22 23 23 23 19 21 27 30 31 31 33 31 29 29 31 33 35 37 40 42 44 48 51 54 55 55 54 50 48 40 38 37 32 28
18 17 17 17 17 17 18 19 20 22 20 23 21 24 26 28 29 30 30 29 29 30 32 33 35 37 40 42 44 45 47 50 52 53 53 51 47 43 39 32 35 38 32
19 18 17 17 17 17 19 20 20 20 21 22 24 25 28 29 29 29 27 28 30 32 34 36 38 41 42 44 45 48 51 52 53 53 51 46 41 37 34 31 33 33 28
20 19 18 18 19 19 20 19 20 20 22 25 27 28 27 29 26 27 28 30 32 34 36 38 40 42 44 46 47 50 52 53 52 49 44 39 36 30 26 28 25 26 22
21 20 19 20 21 21 21 21 22 23 25 26 26 28 25 25 26 27 30 32 34 35 38 40 42 43 44 46 49 51 53 53 49 45 38 31 25 23 20 21 20 19 19
23 22 22 22 23 23 23 23 25 26 25 26 25 23 24 25 27 30 32 32 35 38 40 41 42 44 46 47 49 50 50 48 44 39 32 26 23 21 18 17 19 19 21

GFSMW_700_spd_075.txt.gz
Wind_Speed
11 15 15 15 18 17 18 17 20 16 17 17 18 18 17 17 18 19 18 17 17 17 18 17 14 14 14 15 16 16 17 19 20 19 18 24 32 34 34 38 38 35 35
7 10 13 16 15 17 19 19 17 17 17 17 16 15 15 15 17 17 18 18 19 19 19 16 14 13 14 16 17 18 20 22 21 25 30 29 29 39 46 45 34 36 35
8 12 13 16 18 20 19 19 18 17 16 17 18 17 16 16 17 17 18 19 19 18 18 15 15 15 16 18 19 21 22 24 28 27 29 27 29 34 34 37 44 41 37
13 14 16 19 18 17 15 15 17 18 19 19 20 19 17 16 17 18 17 18 25 19 18 16 18 17 19 20 21 24 27 28 32 31 25 28 32 34 35 32 37 38 39
18 14 17 17 18 20 19 19 19 20 21 21 21 19 20 21 22 22 21 21 19 23 22 20 20 21 21 23 25 27 28 32 34 33 26 32 33 34 36 38 36 34 34
24 23 17 19 20 20 21 22 23 22 23 22 23 23 22 24 21 24 27 26 21 18 25 25 24 25 25 25 27 32 33 34 31 26 32 33 32 34 36 39 37 36 34
26 26 27 25 23 24 24 24 24 24 24 24 25 24 24 26 24 26 29 31 28 27 26 27 28 29 28 28 32 35 32 37 36 31 34 33 36 37 38 37 35 36 36
25 28 29 29 28 27 27 25 25 24 25 25 23 24 25 28 23 28 27 30 32 29 29 30 32 31 31 30 33 32 28 37 37 36 35 35 37 40 36 34 35 38 39
20 25 29 30 30 30 29 28 26 26 28 26 23 21 22 23 24 29 31 31 31 32 32 31 31 33 28 32 38 37 35 32 35 33 35 38 40 37 35 36 37 39 42
12 16 24 30 31 33 29 27 27 25 23 24 28 27 25 25 27 29 31 32 32 35 32 30 32 31 32 41 37 30 27 30 31 35 39 39 37 36 36 38 39 40 42
7 11 15 21 27 32 34 33 30 30 29 25 25 28 27 29 31 30 30 29 32 35 30 30 33 35 37 35 29 27 29 33 34 38 38 39 36 36 36 37 39 41 41
5 6 7 13 20 23 29 32 33 34 35 36 34 30 28 28 26 26 26 26 29 31 30 36 29 20 29 25 26 25 30 34 36 36 35 36 36 37 36 38 41 44 43
11 13 14 14 15 19 27 30 31 32 33 38 36 32 28 24 24 24 25 28 29 35 43 38 16 25 26 26 24 27 33 34 33 33 34 34 34 36 37 40 43 44 44
12 13 14 14 16 19 23 30 34 34 36 36 34 32 31 30 27 27 29 28 32 29 44 43 34 26 35 32 26 31 32 34 32 33 33 34 35 37 39 42 44 46 47
14 15 16 18 19 19 22 25 29 33 33 30 30 33 31 30 28 29 30 31 30 32 22 29 21 23 29 30 30 32 31 32 33 34 34 36 39 42 43 44 46 47 48
21 21 22 16 23 24 25 29 29 29 30 29 29 31 31 30 30 31 32 32 29 33 32 27 27 30 30 34 30 30 32 34 34 35 37 39 43 46 49 52 53 53 49
26 26 26 29 32 30 28 29 31 30 30 31 30 31 32 32 33 31 30 28 30 29 28 27 30 33 33 34 31 32 34 35 35 37 40 42 44 46 49 50 51 49 47
30 32 33 33 35 38 37 33 33 33 32 32 33 33 35 34 31 30 26 27 28 31 32 31 34 34 33 32 31 33 35 37 38 41 42 44 46 48 50 51 52 43 42
24 21 19 17 17 18 18 18 22 27 30 32 35 34 32 29 26 26 24 29 30 30 33 32 34 34 29 34 34 33 36 39 40 41 42 45 48 49 50 51 51 51 45
17 17 16 16 15 17 18 20 22 24 25 26 27 26 25 26 27 27 28 27 32 34 34 33 32 31 31 35 35 35 38 40 42 43 44 47 49 50 50 50 49 48 45
18 18 18 18 18 19 22 23 25 24 24 24 24 26 27 27 28 27 31 32 32 32 32 30 30 32 33 35 37 37 38 41 43 44 46 48 50 51 51 48 46 44 40
20 20 20 20 21 21 21 22 24 24 24 26 27 27 28 25 29 31 31 31 32 32 31 30 31 33 34 37 40 39 40 41 44 45 46 48 49 49 47 44 40 36 33
22 23 23 23 23 23 23 23 23 24 26 26 26 27 26 28 30 31 31 32 32 30 32 33 34 35 36 39 41 40 42 43 44 46 47 48 47 45 42 36 32 29 25
25 25 25 25 25 24 25 25 26 26 27 26 26 27 29 30 31 31 31 29 29 31 33 35 36 37 38 41 42 42 43 43 44 46 46 46 43 38 30 28 27 24 23
27 27 27 27 26 26 27 28 28 28 27 27 28 30 31 30 31 30 28 30 30 32 34 36 38 40 41 42 44 44 45 45 45 46 46 45 41 37 31 26 24 22 20
30 31 30 29 29 29 29 29 29 29 30 30 31 31 31 30 28 28 28 31 34 34 35 37 39 42 43 44 44 44 45 45 45 45 45 43 39 36 32 29 26 20 21

GFSMW_700_spd_078.txt.gz
Wind_Speed
13 18 17 20 21 23 24 23 17 18 18 19 20 23 22 23 23 22 21 20 19 19 18 19 16 16 15 13 14 14 15 16 15 16 17 22 24 24 27 27 31 35 32
4 6 11 15 17 19 24 22 17 13 13 13 15 18 18 19 19 18 18 18 19 19 18 20 17 19 17 15 16 15 18 21 19 18 21 23 27 27 25 31 36 35 32
5 7 11 12 16 17 18 18 17 15 14 15 17 17 17 16 16 16 17 17 18 18 20 21 18 21 20 17 18 18 21 23 23 20 23 23 21 25 28 33 37 38 41
4 7 10 12 12 14 15 14 14 16 15 15 15 15 13 12 12 15 17 17 18 21 20 23 24 23 23 21 21 22 23 22 28 29 28 27 30 28 30 30 33 35 40
11 8 9 10 12 14 13 14 17 17 18 17 16 16 15 16 17 18 17 18 22 23 20 21 25 26 25 26 24 25 24 26 26 30 35 31 28 31 34 37 34 35 35
17 14 13 15 14 16 17 17 16 16 18 20 20 20 19 20 20 18 18 22 24 24 25 23 26 29 29 31 29 26 27 29 29 30 31 32 34 35 33 35 37 38 36
24 21 20 21 19 21 20 20 21 21 21 19 20 22 21 22 22 21 22 25 26 25 31 33 31 31 32 34 31 30 32 32 32 31 30 32 34 34 35 36 38 39 36
22 27 27 24 23 23 22 24 23 22 24 22 19 22 24 24 27 26 22 27 27 27 29 35 36 34 37 35 33 34 35 37 36 36 34 30 31 36 37 36 37 38 38
17 26 28 31 31 28 27 24 24 23 25 27 22 22 24 26 28 25 23 24 26 33 32 33 37 38 40 34 34 36 39 40 44 34 29 29 34 36 35 32 33 36 41
15 19 26 27 33 31 31 28 26 28 27 28 27 27 26 27 28 26 27 27 27 30 32 35 37 40 43 29 36 39 45 42 37 31 30 32 36 36 31 32 34 35 38
10 12 17 24 30 32 31 33 32 30 31 31 31 27 24 28 32 31 29 30 31 31 30 38 39 38 26 31 35 38 32 34 34 31 33 35 36 33 32 32 32 35 38
8 11 9 16 24 27 30 34 38 33 35 35 35 36 29 25 30 31 28 30 28 23 27 22 33 28 34 36 25 22 29 33 29 33 34 35 31 32 33 34 36 37 39
11 12 13 12 12 19 30 35 29 27 28 33 36 38 31 29 30 29 30 28 23 28 25 27 30 35 45 28 23 28 30 29 29 31 31 31 30 32 32 34 36 39 41
11 12 16 16 14 14 17 23 29 30 27 29 34 36 27 31 34 32 30 28 28 29 26 30 35 39 39 41 30 31 35 31 33 32 30 30 30 32 33 35 37 40 43
13 13 15 16 19 20 18 19 26 28 28 28 29 32 30 33 31 33 29 32 35 28 32 32 37 31 37 31 26 30 33 34 31 29 29 30 32 34 37 39 41 42 45
18 16 16 17 21 23 24 26 28 27 26 28 30 31 33 31 27 29 35 38 34 31 33 31 33 32 28 29 29 31 32 31 29 30 31 32 34 36 38 40 42 45 48
23 27 25 24 24 32 28 28 29 28 28 29 30 32 30 27 30 34 38 33 30 29 31 30 31 30 30 30 29 30 32 31 31 33 34 36 36 37 39 41 44 46 48
31 31 30 31 33 35 36 37 37 34 29 28 31 32 33 33 34 35 32 29 28 29 31 31 31 30 31 34 32 31 31 32 34 35 36 37 38 38 41 44 46 47 48
26 25 27 34 31 26 21 19 19 19 21 25 30 33 35 33 31 28 26 26 27 28 30 30 30 32 34 35 34 31 33 35 36 36 38 39 39 40 42 46 48 49 48
21 19 21 20 18 18 17 17 18 19 20 22 23 25 26 25 25 25 25 26 29 30 30 32 33 32 36 37 34 33 35 35 36 38 39 40 41 42 44 47 49 49 47
19 18 19 19 19 19 19 21 22 24 24 24 22 22 22 23 25 26 27 29 28 31 32 32 33 34 34 36 35 34 35 38 40 41 41 41 42 44 46 46 47 47 46
18 19 20 21 21 22 23 24 25 25 24 23 24 24 25 26 27 28 29 28 33 34 33 31 32 32 33 36 37 36 36 40 42 42 43 44 44 44 45 45 44 44 43
20 22 24 24 24 24 25 26 26 25 25 25 26 27 28 28 28 30 29 33 35 34 33 31 30 32 32 37 38 37 40 41 42 44 44 45 45 45 45 44 43 40 37
23 26 27 27 27 27 28 28 27 27 27 28 29 29 30 29 28 32 34 35 34 33 31 32 32 33 34 36 38 40 41 43 44 44 44 45 45 44 44 43 41 37 33
26 27 29 29 30 30 31 30 30 30 31 31 32 32 33 32 33 34 36 34 31 29 30 32 34 35 37 37 40 41 43 45 45 45 45 45 45 44 42 41 38 34 31
28 30 32 33 34 35 34 34 34 36 35 35 37 35 35 35 35 34 34 32 26 27 29 32 35 37 38 39 42 43 44 45 46 45 46 46 46 44 42 41 38 34 30

GFSMW_700_spd_081.txt.gz
Wind_Speed
10 14 16 10 12 13 6 6 15 21 21 21 24 24 22 20 25 24 24 25 23 21 18 18 18 18 15 14 13 14 15 13 12 14 15 18 20 21 21 19 20 23 27
5 6 12 22 27 25 25 25 23 23 21 19 21 21 22 20 18 18 18 17 16 18 20 19 17 19 18 17 17 17 18 18 15 16 15 21 23 20 21 24 24 28 31
2 4 5 11 16 19 18 17 17 18 18 18 19 19 19 19 20 18 16 15 16 18 19 14 17 21 21 19 19 21 21 21 18 18 20 24 26 28 24 22 25 31 33
4 2 3 6 8 11 13 12 14 13 15 15 16 17 14 12 12 14 14 16 17 19 18 19 18 20 25 22 23 25 24 24 23 21 23 27 27 29 23 25 30 33 33
5 5 3 5 7 6 7 9 12 13 13 14 14 13 14 12 13 15 15 15 16 17 19 20 17 19 23 26 27 29 28 26 28 28 29 30 28 25 25 25 24 27 32
6 8 8 10 11 10 10 11 11 13 13 13 14 13 12 14 15 14 13 14 16 20 21 22 25 27 25 27 31 32 31 28 30 33 32 32 33 30 30 28 27 31 33
8 8 10 15 15 15 14 13 13 13 13 13 12 12 13 15 16 16 16 16 19 22 22 23 25 29 34 33 34 35 35 34 32 34 34 37 38 37 33 28 31 33 36
19 14 9 11 14 18 18 18 18 17 18 17 17 17 17 18 19 20 20 20 22 20 21 24 27 29 33 38 41 36 38 35 34 36 37 39 41 40 29 27 32 38 38
22 21 19 18 17 16 19 22 22 21 22 20 20 19 19 21 21 22 22 22 23 20 23 27 28 30 35 39 41 42 39 31 35 37 37 43 36 35 33 33 34 37 40
9 16 24 23 25 22 19 18 19 23 24 26 24 22 21 23 25 25 24 23 24 24 26 27 28 31 33 43 44 39 29 31 39 41 40 39 36 32 31 33 32 33 37
19 15 21 20 25 27 26 25 22 18 19 26 28 28 26 27 27 26 28 26 26 26 27 26 23 28 25 27 29 30 30 32 32 26 36 34 31 33 33 32 31 32 33
12 14 12 20 18 21 26 29 24 22 19 21 26 28 32 30 33 28 25 26 27 29 28 27 26 28 22 22 23 27 31 31 31 29 30 30 32 33 32 31 32 33 31
15 16 18 12 19 18 18 23 24 23 21 24 24 31 35 38 34 31 22 26 25 26 27 26 30 24 25 25 32 31 36 37 31 31 30 31 32 31 30 31 32 33 34
20 15 17 17 13 15 15 19 23 23 23 27 27 28 30 34 29 30 27 27 29 30 28 33 29 26 29 30 35 34 35 32 29 29 31 30 30 30 31 32 33 35 37
14 15 16 16 18 16 18 17 20 23 24 28 28 26 26 27 24 28 26 30 31 31 35 36 29 29 26 37 32 36 32 28 30 31 31 30 30 30 32 35 37 39 40
14 17 19 20 19 22 23 23 22 25 24 26 24 23 24 26 28 31 31 33 31 37 35 32 31 35 34 39 28 30 30 30 31 30 30 29 30 31 34 37 39 41 41
22 24 27 27 30 30 32 29 25 23 24 26 26 27 28 28 32 32 32 33 35 33 33 34 39 40 32 37 27 29 30 30 30 30 30 30 32 34 37 39 40 41 41
19 23 26 30 32 32 33 31 29 30 33 30 31 31 32 33 35 33 31 33 31 33 36 34 38 31 41 34 29 29 30 30 29 29 31 34 35 37 40 42 43 43 42
26 29 27 26 29 30 30 30 28 26 23 23 24 26 29 31 31 34 32 29 27 30 34 33 38 39 34 31 31 29 29 29 30 32 34 36 38 40 41 43 45 45 44
27 26 23 20 20 20 20 19 19 19 19 20 20 22 24 27 27 25 23 25 28 33 34 35 34 30 31 32 31 30 31 31 33 34 35 36 39 41 43 44 46 47 46
22 22 20 17 17 17 18 19 19 20 21 21 23 24 24 24 22 22 23 28 33 31 31 32 32 33 35 34 31 30 30 32 35 36 36 38 40 42 43 44 46 47 48
20 20 18 18 19 20 21 22 23 24 24 25 26 25 24 22 22 24 28 31 31 29 30 33 34 37 37 33 30 30 31 34 37 38 39 41 42 43 43 44 45 46 46
20 21 23 20 21 23 24 26 26 25 26 26 26 25 24 25 27 30 32 30 30 31 34 34 37 36 34 32 30 31 34 36 38 40 41 43 44 44 43 44 44 45 45
24 24 24 24 26 27 28 28 28 28 28 29 28 27 29 30 33 33 32 32 33 35 36 35 31 34 35 31 31 32 34 37 39 41 42 43 44 45 44 44 44 44 44
21 23 24 25 28 31 32 33 33 33 33 33 32 32 33 34 34 34 35 36 38 37 35 36 34 32 32 30 31 33 36 38 42 44 45 45 45 46 45 43 43 42 42
23 25 27 30 32 34 36 38 39 39 38 38 37 36 36 36 38 40 40 37 36 36 35 33 34 31 31 31 33 35 38 41 44 45 46 47 47 47 46 45 44 43 41

GFSMW_700_spd_084.txt.gz
Wind_Speed
11 13 16 6 11 13 16 15 16 15 22 23 21 25 22 19 22 21 28 33 27 27 32 27 24 19 17 16 17 17 16 15 14 14 13 13 14 15 17 19 21 21 20
7 9 12 14 17 15 19 19 18 19 15 12 17 22 22 20 22 27 28 28 30 32 28 27 22 16 18 17 18 19 19 17 18 17 18 18 18 19 21 23 23 21 19
4 5 7 10 11 19 19 19 20 20 22 24 26 27 29 29 28 29 31 30 27 27 27 25 21 18 18 19 21 22 23 21 21 21 20 21 23 22 23 26 25 23 24
3 2 4 4 7 13 14 16 18 18 18 19 19 19 20 19 23 27 25 26 27 29 23 20 19 19 20 23 21 24 25 26 24 25 25 25 27 27 30 28 24 24 26
6 4 5 5 5 7 10 12 13 15 16 15 15 14 16 15 15 17 19 21 21 22 23 20 21 21 23 23 23 24 28 29 29 30 29 31 31 31 33 32 30 33 31
11 7 10 11 8 9 9 10 11 11 11 12 13 12 12 14 16 17 16 17 18 17 19 18 18 19 23 25 25 25 30 33 35 36 35 35 34 34 34 36 34 33 31
10 11 11 12 12 10 9 9 10 10 11 12 12 12 14 15 13 13 13 14 15 17 16 19 19 20 22 23 23 29 31 38 38 41 36 33 35 36 37 38 40 35 30
16 12 11 9 10 13 13 13 12 13 11 11 10 10 12 16 17 17 16 17 18 18 20 22 23 23 24 26 28 28 37 36 42 44 41 33 37 37 42 38 40 37 39
16 15 15 15 13 12 11 14 17 15 15 13 14 15 16 17 17 18 19 21 21 25 25 25 25 25 25 25 22 29 32 35 42 42 32 34 39 40 37 43 36 39 40
14 14 17 18 18 17 17 15 14 16 17 19 21 22 22 21 21 22 23 23 24 27 29 29 24 20 24 25 24 24 25 35 29 34 35 24 25 34 38 38 37 38 40
11 12 10 15 19 19 22 21 18 16 16 16 20 23 25 26 26 28 29 27 27 27 29 29 28 23 25 25 24 22 20 20 21 29 26 27 29 31 36 36 37 38 39
14 12 12 12 15 19 22 21 21 20 19 17 18 18 21 26 29 30 35 37 34 29 26 28 29 28 27 25 25 24 22 28 26 30 31 37 32 32 35 35 38 38 37
14 15 14 13 11 12 15 18 18 19 19 19 20 22 24 25 26 31 37 40 29 16 26 28 28 26 28 30 32 31 21 28 34 32 39 35 33 33 35 37 38 38 37
17 17 17 14 14 14 14 16 16 16 18 21 22 23 23 22 26 30 33 35 17 20 21 26 26 29 30 31 31 32 27 32 36 39 37 34 33 35 36 37 37 37 38
18 19 23 20 16 18 17 17 18 17 14 19 22 24 24 26 28 33 27 21 20 22 24 27 29 35 37 35 37 29 30 36 42 33 33 34 34 36 37 37 37 37 39
17 13 17 20 20 22 21 23 21 19 18 20 22 23 23 26 26 25 26 26 27 27 29 31 34 37 36 33 37 37 35 34 38 33 33 34 37 37 36 38 39 39 40
14 15 16 20 24 26 26 27 26 23 23 23 22 22 26 29 29 29 30 31 33 34 36 38 38 39 38 34 37 39 33 32 32 33 34 35 37 37 37 38 39 40 42
16 17 19 20 23 25 28 29 28 26 25 27 26 30 31 33 34 36 36 36 37 40 38 38 40 46 35 38 45 34 30 31 35 36 36 36 36 37 39 39 40 41 42
17 19 21 25 28 26 24 26 27 27 28 29 29 27 28 29 31 33 35 36 35 32 35 33 30 35 41 41 36 37 35 36 39 39 38 36 37 39 40 41 43 44 44
18 22 26 24 26 23 21 22 23 25 27 25 24 23 24 24 26 28 30 30 30 31 33 34 33 36 43 34 40 42 40 39 38 36 35 38 38 38 41 43 44 46 47
17 19 19 20 20 18 19 20 20 22 22 22 22 23 24 26 26 26 26 27 26 30 29 33 36 35 41 42 40 42 39 35 35 34 36 37 39 40 42 43 45 47 49
14 15 16 17 18 19 19 20 23 24 24 24 24 25 26 26 27 26 25 24 24 26 31 35 40 41 42 43 45 42 36 35 36 39 37 38 39 42 43 45 46 47 48
16 16 18 19 20 20 22 24 25 26 26 27 28 29 30 30 29 27 26 26 30 35 39 36 40 42 43 46 43 39 34 37 42 39 39 39 40 42 44 45 46 47 48
20 20 19 21 22 22 24 26 28 29 31 31 31 32 32 32 30 29 30 32 36 38 39 42 44 46 47 42 39 43 46 45 43 40 38 40 42 43 45 46 47 48 49
22 21 20 19 20 23 25 28 30 32 34 34 35 35 35 33 33 34 36 38 41 43 45 48 48 46 43 43 45 45 45 43 41 40 41 42 43 44 46 47 49 49 48
22 21 23 25 27 28 30 34 36 35 34 35 36 36 36 35 37 42 43 45 48 49 44 39 40 43 44 44 44 44 41 39 42 41 42 44 45 46 47 49 49 49 47

GFSMW_700_spd_087.txt.gz
Wind_Speed
16 16 15 2 14 13 9 14 19 21 15 24 23 26 30 34 33 37 37 40 33 33 33 34 29 24 20 17 20 19 16 14 15 17 17 17 17 16 14 14 15 16 20
11 12 14 16 11 16 17 17 14 19 16 24 19 23 23 19 27 33 27 26 26 35 38 31 28 22 23 23 22 18 17 18 16 17 19 21 20 20 20 19 20 21 22
9 7 9 12 13 15 15 15 15 17 16 17 20 21 24 26 26 29 29 27 29 38 38 34 26 25 24 25 22 21 20 21 21 21 23 24 23 22 24 24 25 26 26
5 6 5 7 10 10 12 13 15 18 19 24 25 25 27 25 25 29 29 28 31 32 33 31 27 25 27 28 26 23 20 21 24 25 26 28 27 28 30 28 29 31 31
5 3 3 1 4 8 10 11 13 15 19 21 20 20 20 21 24 25 25 25 27 31 29 26 28 31 32 28 25 22 22 19 22 27 29 32 33 33 33 31 31 35 35
10 8 8 5 4 3 6 8 9 11 13 16 18 20 20 20 21 22 22 25 27 26 26 26 24 27 28 27 26 22 26 26 24 29 32 37 36 36 35 36 33 37 37
11 11 7 5 7 5 4 5 7 6 7 9 11 14 14 15 14 15 17 20 22 21 20 24 26 27 25 25 26 25 25 27 28 34 36 28 39 40 42 35 38 37 38
16 14 10 7 6 9 11 8 6 5 7 8 9 11 13 13 15 16 17 19 20 21 23 26 27 27 25 27 26 26 26 30 35 33 37 36 35 41 39 37 39 39 40
17 16 17 13 13 12 10 11 13 13 12 12 14 14 14 14 14 15 18 20 22 24 27 29 31 29 29 27 26 26 25 25 25 31 36 35 32 35 30 31 32 33 41
13 15 16 16 16 17 17 15 15 21 19 18 17 17 17 17 17 20 21 22 24 27 29 31 33 33 33 29 26 29 29 27 28 28 33 31 22 29 26 29 31 33 36
8 7 11 11 11 18 21 21 18 17 23 23 24 23 22 22 24 25 27 28 29 30 31 33 36 38 40 33 21 26 28 29 28 26 34 31 26 29 35 34 34 35 39
9 11 10 8 7 8 12 19 20 19 17 19 19 20 22 23 25 26 29 31 34 35 39 39 38 39 33 30 32 28 30 31 30 28 27 32 32 33 37 40 37 38 40
14 12 13 12 10 10 11 12 13 15 15 16 18 20 20 22 22 24 26 26 30 36 44 45 43 32 26 29 29 31 32 34 31 34 27 38 40 35 36 45 41 40 41
14 16 15 14 12 11 11 7 9 9 12 14 16 19 22 21 22 22 24 25 29 28 18 12 17 25 29 32 31 32 35 36 36 39 36 32 35 45 40 44 43 42 42
23 18 16 16 17 17 15 15 14 13 13 15 15 16 19 22 24 25 25 26 25 27 21 20 24 24 28 32 32 36 36 33 39 38 37 38 37 43 45 42 42 44 44
22 21 18 15 15 18 17 18 19 19 19 18 19 20 22 24 24 23 24 26 26 27 27 28 28 29 31 35 39 37 39 35 47 37 44 46 43 44 43 43 44 45 44
16 19 17 14 14 18 17 18 20 22 23 23 21 23 25 25 26 29 29 29 32 32 34 34 36 37 39 33 40 46 43 37 38 37 43 43 43 43 43 45 47 44 43
19 21 15 14 16 17 19 22 23 23 25 25 26 25 26 28 29 29 31 34 38 39 40 39 37 37 34 42 40 45 41 37 37 39 42 40 41 43 45 46 45 43 42
15 18 16 19 18 19 22 25 26 23 25 27 28 27 27 28 30 31 33 33 35 35 36 37 31 35 42 36 48 39 40 40 43 42 42 41 43 45 46 44 43 44 44
17 18 18 17 18 20 22 22 21 21 26 28 28 28 30 30 28 27 28 30 32 33 32 28 31 32 38 34 44 41 42 44 43 42 44 48 47 43 43 44 47 48 48
19 16 14 15 15 17 19 18 18 20 23 26 26 28 27 26 27 28 29 30 32 32 30 26 29 35 37 38 41 49 42 45 52 50 52 52 47 45 46 49 54 53 47
14 11 9 12 15 15 17 19 20 22 24 25 26 26 27 29 29 30 31 30 29 29 27 29 34 36 40 44 41 45 49 53 57 50 48 47 49 52 52 53 51 49 50
11 9 11 15 18 19 20 21 23 24 26 27 28 29 30 32 32 32 32 32 31 30 29 32 37 40 42 45 49 53 59 56 51 49 50 52 54 52 55 54 52 50 47
12 13 15 16 16 17 18 19 21 23 26 28 31 33 34 34 34 34 33 32 32 31 35 39 42 45 47 52 55 56 52 51 52 52 51 52 55 57 55 51 48 48 48
13 12 14 15 15 16 21 22 23 26 27 29 30 31 32 33 34 33 31 32 34 39 42 46 49 50 48 46 48 49 51 52 52 52 52 52 52 49 50 50 49 49 48
16 18 18 17 18 22 22 23 25 26 27 28 27 27 29 31 29 26 26 33 37 39 41 42 44 46 47 49 49 49 49 49 49 49 50 48 50 51 50 49 48 48 48

GFSMW_700_spd_090.txt.gz
Wind_Speed
16 16 18 13 21 15 18 18 15 13 14 16 24 34 36 27 38 45 49 48 39 48 40 36 34 32 31 24 23 22 17 15 15 15 14 15 16 16 16 16 16 16 17
12 12 14 15 10 12 11 21 22 22 17 14 15 32 39 33 47 45 46 44 32 39 41 42 35 30 30 26 25 19 18 19 19 17 16 19 18 17 18 20 21 21 20
9 9 11 11 13 5 6 12 17 23 20 16 17 24 29 37 47 33 32 35 29 34 45 32 31 32 30 26 23 20 21 23 23 21 22 23 20 19 21 24 26 26 25
7 4 6 7 8 11 12 10 7 11 17 18 19 30 21 26 25 28 26 35 34 29 34 34 34 34 30 27 24 24 24 25 25 25 24 25 23 25 27 28 29 31 31
6 4 1 3 5 6 10 12 11 11 9 8 17 23 25 23 23 26 29 32 31 33 38 38 38 34 33 27 28 29 28 28 28 25 22 25 27 28 32 38 32 34 36
11 9 6 1 1 5 7 10 10 12 13 13 13 14 14 17 20 21 26 29 29 29 29 34 36 32 31 32 32 34 34 31 30 30 32 31 32 37 29 37 35 42 40
13 12 5 2 2 3 6 8 9 9 10 12 12 12 12 13 14 16 18 21 22 22 24 27 30 30 33 33 32 31 32 35 33 33 33 34 30 32 37 35 34 38 40
16 14 9 6 3 3 4 5 8 10 10 11 11 11 11 12 14 16 18 17 17 18 21 24 27 31 33 33 31 33 37 37 34 33 31 36 35 40 29 36 30 35 35
16 14 13 10 9 6 5 7 9 9 11 13 15 14 13 13 15 15 16 17 19 21 23 26 28 31 31 33 37 39 39 38 35 34 34 32 33 31 34 35 27 31 36
12 16 15 13 12 12 11 10 11 15 16 15 15 16 17 17 16 19 20 21 22 24 26 28 31 34 38 40 42 44 42 41 39 38 36 38 36 33 37 33 30 34 37
8 9 11 10 12 14 15 18 16 13 15 19 21 20 20 21 22 22 21 22 23 24 27 31 35 39 41 44 46 49 49 50 36 37 38 35 36 38 33 37 32 37 37
11 8 6 10 13 11 10 9 14 17 17 17 22 25 22 29 28 26 25 27 28 30 31 34 37 41 43 49 50 50 36 43 26 31 36 36 35 36 37 42 32 47 39
13 9 7 9 8 7 8 7 8 10 12 15 23 20 22 25 28 28 29 30 30 31 33 34 29 41 51 36 50 53 40 29 34 34 36 37 36 38 36 42 40 39 47
16 15 12 11 10 10 10 3 2 2 4 6 9 15 21 21 23 24 25 26 26 29 28 29 35 23 22 25 25 26 28 34 34 38 40 39 38 43 36 34 46 42 48
18 16 16 14 12 13 15 10 8 8 8 10 11 11 10 12 17 21 23 25 27 28 27 26 25 27 27 27 29 33 35 36 39 40 42 39 48 45 51 46 50 48 46
18 20 22 20 16 15 16 13 12 13 14 15 15 15 17 17 18 20 22 23 23 25 27 27 26 27 29 30 33 37 40 40 40 41 45 46 47 52 48 52 46 43 48
25 18 18 19 19 14 15 15 17 18 21 22 21 21 21 21 22 23 23 25 27 28 29 31 33 34 34 35 39 40 40 46 48 39 46 51 53 46 40 49 49 53 50
24 25 21 21 15 15 18 18 19 20 24 25 24 25 27 28 26 26 26 27 29 31 33 33 36 38 39 40 37 36 42 49 36 44 54 49 44 41 44 51 52 50 51
22 22 20 21 17 19 21 20 20 25 29 28 27 28 29 30 28 28 29 30 31 33 33 33 34 35 34 36 38 35 40 43 38 50 37 44 48 47 49 50 52 54 52
21 22 23 22 22 22 21 20 22 24 24 25 26 28 29 30 31 31 32 33 32 30 32 33 35 35 33 33 34 35 43 42 39 48 47 48 51 52 50 54 55 56 53
23 25 27 25 21 19 18 18 16 16 17 20 22 26 29 29 30 32 31 30 30 32 32 33 33 31 29 27 32 37 43 44 47 48 50 51 52 53 55 55 57 56 55
24 25 23 20 16 15 13 13 13 15 17 19 21 24 26 27 28 29 30 31 32 33 32 32 29 31 28 32 35 40 44 50 53 50 49 52 53 53 54 56 58 57 57
23 23 18 14 13 13 12 12 13 14 16 18 19 22 24 26 28 30 32 32 32 32 31 30 30 30 34 39 45 48 50 46 46 48 46 48 53 55 56 55 54 55 56
22 18 16 14 13 12 11 11 12 15 18 19 21 22 24 25 27 28 28 30 31 33 31 31 34 38 42 44 45 43 41 41 45 49 53 54 54 54 52 51 51 52 51
21 18 14 13 12 13 13 15 18 20 21 24 25 26 27 28 28 29 29 28 26 26 29 34 36 37 38 40 44 47 50 52 54 54 53 52 51 51 51 51 51 51 50
15 12 14 14 15 15 14 17 19 22 23 26 27 27 27 27 26 25 24 25 26 28 31 34 37 40 43 46 48 50 50 52 53 53 52 52 51 51 50 50 49 48 48

GFSMW_700_spd_093.txt.gz
Wind_Speed
13 16 19 23 8 12 15 9 11 9 8 9 13 27 33 30 27 37 42 42 47 45 39 35 33 28 25 30 25 23 22 20 18 16 14 14 14 14 15 16 16 16 17
9 12 14 16 2 14 14 14 14 14 13 17 17 19 24 34 36 37 37 36 41 47 50 44 36 33 31 31 31 24 23 21 21 18 17 19 17 15 17 18 19 21 23
8 8 10 10 8 5 15 13 23 15 16 15 17 23 25 34 28 33 37 40 39 35 41 37 40 39 33 33 25 26 26 23 23 20 22 23 22 20 20 21 22 25 26
9 6 6 7 6 7 7 13 18 19 21 19 16 15 22 33 17 26 32 33 41 40 36 48 52 45 35 30 25 27 27 26 25 26 26 25 24 25 26 24 24 26 29
11 7 4 1 3 6 7 8 11 11 19 23 16 16 22 15 22 25 28 33 32 45 33 32 41 40 34 28 29 29 30 29 28 27 28 29 28 27 28 29 30 28 27
14 12 6 3 2 4 6 7 8 9 10 11 14 22 23 23 21 23 30 23 24 24 28 32 36 30 33 31 29 30 31 32 32 31 32 35 37 35 33 36 28 33 36
17 14 8 5 4 3 4 5 7 8 9 11 12 14 17 21 19 19 22 25 26 29 31 33 32 32 35 32 34 36 32 38 38 39 40 43 38 35 35 35 41 42 39
20 16 12 9 8 6 4 4 5 6 7 8 9 11 12 14 15 17 20 19 18 20 23 21 25 32 38 38 38 37 37 40 42 43 44 45 35 35 37 38 35 38 43
20 18 16 11 8 6 6 6 6 6 7 7 7 8 9 11 12 14 15 16 17 20 19 21 24 30 35 36 37 39 40 45 45 44 48 48 38 40 41 42 41 40 44
19 20 20 16 11 11 10 9 10 11 11 12 12 10 9 9 10 12 14 15 17 19 21 23 25 27 30 33 38 41 45 49 48 49 49 49 45 44 43 40 44 44 40
17 16 17 16 15 14 15 15 14 13 16 18 17 16 16 15 16 16 16 17 20 21 24 26 28 31 35 38 43 47 51 53 55 54 57 57 49 51 45 48 43 40 45
14 14 15 17 14 12 15 14 13 15 17 15 19 22 21 20 22 22 22 24 25 25 26 29 33 35 39 42 48 52 51 53 54 49 49 44 52 43 46 48 43 43 44
15 18 13 11 13 12 9 13 11 13 15 16 19 21 22 22 29 24 25 28 28 29 30 31 33 35 36 42 43 40 43 45 48 44 58 63 49 34 43 39 44 46 47
16 21 16 11 11 11 8 8 7 11 12 13 13 15 18 23 18 21 25 30 30 31 32 34 37 40 38 43 36 36 35 33 30 33 32 35 41 40 55 44 50 50 49
14 20 19 15 13 11 11 13 8 7 7 7 7 6 11 14 19 24 26 25 26 28 32 33 34 35 36 34 34 35 33 36 36 36 38 42 44 47 45 51 53 51 54
16 22 21 21 18 16 14 15 16 12 12 11 11 13 14 17 18 19 23 25 28 30 31 32 31 32 33 32 32 34 37 40 41 42 44 42 48 46 45 52 58 55 54
26 22 22 22 25 23 19 18 21 20 19 19 21 21 21 23 26 26 26 25 26 28 29 30 32 32 34 34 35 37 41 43 45 45 46 45 51 49 47 58 47 62 49
28 29 29 26 25 25 26 21 23 24 24 23 25 27 28 28 28 31 29 29 28 30 31 31 32 32 33 32 37 39 40 42 45 44 45 46 47 42 40 47 54 49 47
27 26 28 30 29 27 25 24 26 26 27 26 28 31 30 30 31 32 30 31 31 31 31 31 30 33 35 34 35 37 37 39 38 44 45 45 42 32 36 44 51 53 57
29 31 29 25 29 29 27 26 27 25 24 27 27 27 27 28 29 31 30 30 30 31 32 33 34 34 33 35 36 36 34 35 37 39 44 40 43 51 51 51 54 56 55
30 29 26 29 30 32 29 26 23 23 21 19 17 18 20 24 27 28 29 30 31 33 34 33 34 34 34 35 35 35 31 32 37 41 43 46 49 49 48 48 46 45 47
18 24 26 28 29 27 24 20 19 16 17 16 16 18 20 22 24 26 27 28 29 30 30 32 33 33 33 33 35 34 31 36 40 43 45 46 46 45 45 47 51 55 58
19 23 22 23 24 20 17 16 17 18 16 15 16 18 21 22 23 25 26 28 29 30 30 30 30 32 33 35 35 36 39 42 41 41 42 43 46 50 54 56 57 57 55
20 17 17 18 23 24 17 19 18 18 16 16 19 20 20 21 23 25 26 28 29 29 28 28 27 29 32 34 35 36 38 40 43 46 48 51 52 53 53 53 53 52 51
18 20 21 24 20 18 21 19 16 17 17 18 19 20 21 24 25 26 26 27 26 25 25 26 27 30 33 35 38 41 44 46 48 49 50 51 51 52 52 52 52 51 50
24 25 20 19 20 21 21 14 14 15 17 18 19 21 23 23 23 22 22 21 21 21 24 27 29 32 35 37 39 41 43 46 48 50 51 53 53 53 53 52 51 50 49

GFSMW_700_spd_096.txt.gz
Wind_Speed
18 14 17 21 25 5 11 10 11 8 2 7 9 15 32 42 42 39 47 39 41 35 42 36 37 36 32 27 25 20 18 23 20 20 17 17 16 15 16 16 16 16 17
16 13 14 17 18 3 10 12 10 8 6 7 12 21 23 25 36 42 40 38 38 41 38 38 35 36 32 27 26 25 23 22 21 21 21 21 20 16 16 18 19 19 21
16 13 10 12 11 7 9 11 14 8 7 7 8 18 23 27 28 37 38 38 40 44 40 39 38 38 33 30 29 29 30 23 24 24 24 25 22 21 20 21 23 23 24
15 14 8 7 7 6 2 11 15 15 9 13 9 12 14 13 22 30 28 38 36 44 51 44 43 40 33 37 36 34 31 26 26 29 28 26 26 25 29 25 26 28 27
14 14 8 5 3 2 4 2 5 14 20 20 20 18 12 19 16 21 23 27 32 35 42 47 51 45 42 45 43 35 31 27 28 31 30 29 29 29 31 32 33 32 31
16 17 11 8 2 1 3 5 5 3 9 19 20 18 17 21 25 17 24 21 34 28 40 33 42 40 42 43 44 35 32 30 29 33 34 34 33 33 34 38 41 39 41
19 20 13 11 8 4 5 6 6 6 7 6 13 17 18 22 22 17 26 24 24 25 24 24 27 27 30 33 36 38 34 33 35 34 35 40 41 40 42 46 48 47 40
18 20 14 14 12 9 6 6 7 8 7 7 9 11 15 18 22 22 24 24 28 27 25 21 26 31 31 26 31 35 37 38 38 37 38 39 42 45 49 48 47 48 50
18 21 18 14 12 12 10 8 6 8 8 8 8 10 12 13 13 16 18 20 22 25 28 26 27 28 28 33 38 40 40 40 40 44 45 46 47 50 53 51 50 51 51
21 23 21 17 13 13 12 11 11 9 8 8 9 9 9 10 11 11 11 12 14 18 21 22 23 24 26 31 35 37 37 41 44 47 49 52 53 55 59 56 56 57 60
24 23 24 22 18 15 15 13 12 12 13 12 12 11 11 10 10 10 11 12 14 15 17 18 20 22 24 26 31 34 38 43 47 49 53 57 59 64 64 61 62 63 65
22 21 21 24 20 18 17 17 16 16 15 16 19 17 16 16 15 14 13 14 15 16 18 20 23 25 28 30 34 37 39 44 49 53 52 45 54 56 62 61 55 47 53
15 19 18 20 19 18 16 16 17 15 15 17 18 20 22 22 19 17 19 20 20 21 23 25 27 29 31 34 37 40 42 46 50 51 48 46 46 43 39 40 46 52 54
15 17 18 18 18 18 17 15 16 17 18 18 20 22 20 22 25 25 26 29 25 26 28 30 31 33 36 39 42 45 46 48 51 47 45 49 47 43 39 41 45 47 50
15 16 23 20 16 17 17 15 15 12 15 16 16 14 16 19 23 27 24 27 29 28 32 33 37 39 42 43 43 45 45 48 46 49 48 45 44 45 44 46 49 52 56
18 16 22 24 22 18 17 14 17 14 12 14 14 15 16 18 18 19 21 27 29 31 31 32 33 35 37 38 39 39 41 43 44 44 46 48 47 49 49 49 52 54 55
24 23 20 21 22 22 20 17 18 21 18 19 20 20 21 21 22 24 25 27 29 29 30 31 33 36 37 36 38 41 42 44 46 46 48 49 51 52 51 55 50 56 56
27 27 28 27 24 26 25 26 24 23 26 26 25 25 26 27 28 30 32 33 32 34 34 34 35 37 38 40 41 43 41 40 43 45 47 49 50 53 54 50 52 50 49
34 33 34 33 34 31 29 30 30 30 27 28 30 31 30 30 30 30 31 31 31 32 34 35 36 38 40 41 38 39 42 44 44 45 46 46 45 47 46 44 47 46 46
30 36 31 35 33 35 35 35 31 32 30 31 30 28 28 30 30 29 31 33 33 32 33 35 39 40 39 39 41 44 44 43 45 45 43 43 43 44 45 44 44 47 48
32 31 33 32 31 31 35 37 36 33 32 31 28 27 29 26 25 24 27 30 32 33 34 35 36 38 42 45 40 39 40 42 43 42 42 43 44 46 46 45 46 48 50
38 29 40 40 34 32 29 38 38 33 30 26 25 25 24 24 24 26 29 30 32 33 35 36 38 38 38 37 36 37 38 38 38 40 41 43 44 45 47 49 51 53 56
31 26 29 36 34 29 33 26 26 25 22 20 21 24 25 21 24 26 26 28 29 31 32 33 34 34 34 35 34 34 35 37 38 40 42 45 48 50 53 54 56 56 57
22 19 23 23 24 29 28 26 24 23 23 23 24 23 20 22 22 23 24 26 28 29 31 32 33 33 33 32 32 35 37 39 42 44 47 49 50 51 53 54 57 56 56
16 19 22 23 22 20 20 24 25 26 29 24 22 18 17 20 22 23 24 26 28 27 27 27 27 28 29 31 34 37 38 40 42 44 47 50 52 53 55 56 57 59 58
21 18 18 18 20 21 22 22 24 25 24 20 16 15 18 20 21 22 23 23 22 22 22 23 25 27 29 31 34 37 40 43 46 49 50 52 53 54 54 54 54 53 54

GFSMW_700_spd_099.txt.gz
Wind_Speed
16 19 18 19 22 24 14 8 9 12 15 12 8 19 35 40 39 45 51 42 44 50 41 47 33 39 36 32 27 24 23 22 18 17 18 18 19 15 15 16 17 17 17
19 19 17 16 18 19 13 10 7 5 12 14 9 6 8 22 41 50 44 39 40 45 47 40 36 38 37 34 29 27 24 24 21 18 20 22 20 19 17 16 17 18 19
20 22 18 14 15 13 13 9 10 8 10 6 5 3 13 13 33 45 45 45 31 44 48 35 37 35 38 33 30 27 24 25 23 23 22 23 25 23 22 20 20 21 23
19 23 17 12 12 9 9 8 11 9 9 4 7 8 24 23 21 24 28 35 47 41 40 35 40 42 40 35 32 30 30 29 28 29 25 25 27 23 27 29 24 26 27
19 20 16 11 9 7 5 5 4 6 10 7 6 12 13 28 25 27 31 36 30 36 33 39 46 52 37 41 38 37 37 39 35 31 29 27 28 27 29 30 34 35 32
20 19 17 13 8 6 3 2 2 2 5 13 15 14 12 12 13 16 28 28 30 32 30 29 42 44 38 42 42 45 46 44 34 33 36 30 29 29 32 34 34 36 38
20 20 19 15 10 7 3 1 1 3 5 1 10 14 15 15 19 21 21 27 28 27 32 31 39 38 46 48 50 44 40 37 38 35 35 32 33 32 34 37 43 47 45
21 20 20 16 13 11 6 4 3 3 5 8 3 7 16 16 23 21 15 20 24 27 31 26 30 33 28 36 38 32 31 38 37 37 41 37 39 38 38 40 42 49 51
19 18 19 18 14 12 10 7 4 3 4 6 7 6 7 11 13 20 22 16 22 19 20 25 23 22 21 26 28 29 29 32 37 38 41 41 41 42 44 46 47 52 60
18 19 20 20 15 11 13 12 9 7 5 6 7 7 7 8 9 11 13 16 19 22 23 24 25 24 22 22 26 28 29 32 35 38 41 42 42 44 46 50 56 60 62
16 20 20 23 19 13 14 12 11 10 9 8 8 8 9 10 9 8 9 10 11 13 14 15 17 19 20 21 25 29 30 32 35 38 40 42 45 49 54 55 49 50 53
14 20 23 25 23 18 13 13 13 12 11 12 13 13 13 13 13 13 12 12 11 12 13 14 16 19 20 22 23 25 27 30 33 35 40 45 47 51 55 50 52 56 47
8 18 22 23 25 22 17 16 17 17 17 17 16 17 18 17 15 15 15 15 14 15 16 16 18 20 21 24 27 29 31 33 36 39 44 46 48 51 53 52 53 55 51
7 11 20 21 21 23 19 18 17 17 17 16 18 20 19 20 20 20 19 19 19 17 17 18 22 24 26 29 32 34 36 39 41 43 45 50 54 54 48 54 60 57 48
9 10 16 17 19 22 22 21 19 17 18 19 19 21 22 21 21 22 24 24 24 24 26 25 25 26 31 35 38 39 41 41 41 42 46 48 41 51 52 52 54 54 55
14 11 14 21 23 23 22 22 20 18 15 12 15 16 17 18 19 18 20 24 24 24 25 27 30 32 35 33 34 35 39 41 41 42 44 46 47 48 50 51 53 53 52
22 18 15 17 21 25 23 23 21 20 18 15 14 16 16 16 17 18 20 21 24 29 31 32 33 34 34 32 33 34 36 39 41 44 44 44 53 49 53 55 54 55 55
19 22 20 20 23 23 24 24 23 21 25 23 21 22 23 23 24 25 27 28 30 32 33 33 33 35 36 33 34 37 38 40 42 42 48 48 54 54 56 54 55 54 54
25 25 25 28 29 29 24 23 26 31 30 32 30 29 29 29 28 27 27 29 30 32 32 34 35 37 38 37 39 40 42 46 46 46 48 54 56 54 55 53 51 51 52
32 28 29 32 28 32 39 35 33 30 31 33 31 30 32 31 31 30 28 28 30 32 33 33 35 37 38 39 40 41 45 45 47 50 53 53 51 51 51 50 50 51 50
34 31 30 32 36 35 38 37 39 39 32 28 34 33 32 31 27 27 27 27 26 27 29 31 33 35 38 39 40 42 44 46 48 47 47 48 48 48 48 48 50 52 53
37 36 35 33 33 29 33 37 34 35 38 41 38 32 31 30 28 26 25 25 26 28 30 32 34 36 39 42 43 43 42 42 42 43 44 45 45 47 50 51 54 55 56
34 36 40 39 39 33 33 33 31 32 31 35 32 31 28 25 24 23 22 23 26 27 29 31 33 35 36 37 38 38 38 39 38 40 42 44 46 48 51 53 55 57 59
18 25 29 32 33 34 32 32 33 35 32 35 34 26 23 19 23 24 25 25 24 26 29 32 34 35 36 36 35 34 34 35 37 39 42 45 47 50 53 55 57 59 61
8 10 22 24 25 26 31 31 30 31 31 30 26 24 24 27 30 31 27 22 24 28 30 31 30 30 29 29 29 31 33 36 39 42 45 48 50 51 52 54 55 55 56
21 19 16 22 26 29 29 29 29 26 24 27 23 21 17 20 19 16 18 24 25 26 27 26 25 24 26 28 31 33 36 39 41 45 47 49 50 50 51 51 50 48 47

GFSMW_700_spd_102.txt.gz
Wind_Speed
20 27 28 20 19 20 21 16 5 10 13 15 15 18 22 30 34 35 36 33 40 40 36 42 42 39 36 37 39 28 27 25 21 19 17 13 14 13 14 13 14 14 14
22 28 28 23 19 18 17 13 6 7 11 13 15 21 24 27 31 41 41 40 36 44 38 41 45 47 43 43 32 30 28 25 22 19 17 16 18 15 15 16 15 15 16
21 28 28 23 19 15 13 10 7 9 11 12 12 9 11 16 33 37 38 34 34 43 42 38 41 39 44 39 34 30 28 25 20 24 19 21 19 22 21 18 19 19 17
21 25 29 22 17 12 11 8 7 6 9 10 9 5 3 5 10 30 42 43 35 39 36 43 40 39 40 33 34 30 31 26 26 24 20 25 23 27 27 24 21 21 21
23 27 31 21 16 10 10 5 5 5 6 7 7 3 3 5 5 23 36 33 40 34 28 33 40 34 32 37 37 45 34 35 30 27 28 28 29 31 28 29 28 28 27
26 24 30 19 15 10 9 4 3 4 4 3 9 4 10 10 12 19 23 29 30 30 37 44 42 35 31 37 49 41 36 31 31 36 38 33 33 33 31 31 31 34 35
20 25 29 17 15 11 9 5 1 2 4 1 3 8 9 16 11 15 24 23 29 28 36 34 32 32 31 39 37 39 35 35 39 44 38 37 34 36 35 35 33 37 37
22 26 23 16 15 13 10 6 2 1 4 5 5 6 12 17 14 13 17 26 22 18 26 27 21 21 30 32 28 26 31 39 45 43 40 31 35 34 37 37 37 41 44
16 20 21 18 16 13 11 8 6 3 3 4 7 8 8 12 16 19 14 17 17 22 18 17 20 18 24 25 29 25 33 41 41 41 39 35 33 35 41 40 43 45 49
18 19 21 16 17 14 11 12 8 6 4 5 6 8 10 11 12 18 19 17 15 20 19 18 24 20 19 25 21 24 27 33 36 34 29 28 30 31 37 42 44 46 51
18 17 20 17 19 16 9 12 11 8 6 4 5 5 7 10 11 13 13 13 16 19 20 19 19 23 22 21 22 23 24 30 29 28 29 30 31 34 38 41 44 47 48
7 15 20 20 21 19 14 11 12 10 8 7 7 7 7 7 9 11 12 12 12 12 13 15 15 17 18 19 20 21 20 23 25 27 30 30 32 36 38 42 45 48 49
5 13 19 24 21 22 19 14 13 12 11 10 10 10 11 11 11 11 11 11 11 11 11 11 13 13 14 15 17 19 21 24 25 27 30 33 35 38 41 44 50 54 55
2 9 20 25 22 22 22 18 16 16 15 14 13 13 14 14 14 14 14 14 14 14 14 13 14 15 17 18 19 22 24 27 28 29 33 36 39 41 41 45 46 44 39
5 9 13 19 22 22 22 24 19 18 16 15 15 15 16 16 17 18 17 17 16 16 15 16 17 19 21 24 23 24 28 31 32 34 37 38 40 41 48 44 43 49 52
13 6 10 16 22 22 20 23 21 19 18 15 15 16 16 17 18 17 17 18 20 20 20 22 24 26 26 26 28 30 31 31 32 35 36 39 41 44 46 47 51 49 47
19 11 15 14 18 21 22 22 22 22 21 18 15 14 14 15 16 17 18 19 19 21 23 25 27 28 29 29 30 32 32 32 31 35 40 40 43 46 50 47 57 54 57
16 13 19 16 17 22 18 22 23 24 23 22 20 18 19 20 19 20 18 22 23 24 26 28 29 30 31 31 32 32 33 33 35 39 43 42 45 44 53 54 50 59 59
23 24 21 27 19 19 22 19 19 25 26 26 24 26 26 26 24 24 24 26 27 28 29 30 32 33 33 33 33 31 33 36 41 44 40 44 46 51 49 51 53 53 51
23 25 24 24 25 21 26 26 27 26 23 28 29 31 31 32 31 30 30 30 28 28 30 30 31 32 32 31 31 33 37 41 36 39 47 51 47 49 50 50 50 51 51
20 25 28 31 30 24 24 27 30 35 34 33 28 31 37 38 36 35 32 30 30 30 28 28 26 26 27 30 32 32 34 42 44 44 47 50 48 47 47 47 48 49 51
28 27 28 30 29 26 23 22 26 35 39 41 34 31 32 32 35 35 33 32 29 27 25 23 23 26 27 32 36 38 40 42 43 43 43 43 41 42 44 46 48 51 53
39 34 32 33 33 32 31 30 30 30 35 37 37 38 38 36 40 38 30 26 25 24 24 24 25 28 32 33 32 34 36 36 36 37 36 37 40 43 47 50 52 54 56
27 35 37 37 38 37 33 32 31 32 35 36 37 39 38 35 33 31 31 26 25 25 23 23 25 27 27 28 29 30 30 31 32 35 38 39 42 45 48 50 52 54 54
11 13 20 25 27 29 30 31 30 32 35 36 34 32 30 26 26 28 25 23 22 23 23 23 23 23 24 24 24 26 28 30 33 36 39 41 43 45 46 47 48 49 49
20 21 17 15 16 19 22 22 22 23 25 26 26 26 27 28 28 21 24 24 22 17 17 18 20 22 23 21 23 26 29 32 36 39 41 42 43 45 46 46 45 44 42

GFSMW_700_spd_105.txt.gz
Wind_Speed
24 27 28 23 23 22 23 22 16 3 8 10 11 13 17 20 25 28 30 32 35 38 39 40 36 34 37 37 35 34 30 28 26 24 22 18 14 10 11 13 13 10 7
28 30 30 24 20 20 22 20 14 7 7 10 12 13 17 20 22 28 34 35 33 31 40 42 40 39 39 38 37 36 33 29 29 27 24 20 15 12 13 11 13 14 11
28 28 28 23 20 20 20 18 13 7 8 9 13 16 21 26 34 35 37 40 39 35 40 43 43 39 40 40 35 38 32 31 30 27 25 18 17 15 14 15 15 15 15
35 26 26 21 22 22 17 15 12 8 7 10 14 13 18 19 22 30 43 45 43 35 39 40 44 42 38 42 39 33 35 30 28 30 23 24 21 19 18 18 20 20 18
36 32 29 29 27 21 17 12 9 8 6 8 13 12 13 16 15 26 42 49 46 41 44 42 42 37 40 42 38 40 42 35 35 29 26 23 24 20 22 24 24 26 24
34 32 32 28 27 18 16 10 7 6 6 6 11 9 9 9 8 22 32 39 38 35 41 44 47 33 37 40 40 40 41 40 44 40 40 28 26 26 29 30 30 30 28
33 28 33 31 20 17 15 9 5 4 4 4 6 7 6 9 6 12 26 31 32 36 35 44 34 26 33 42 36 41 45 44 39 36 33 29 31 31 36 35 33 35 33
22 26 28 24 22 17 15 10 5 2 2 2 4 5 8 9 7 12 14 17 23 21 39 31 37 33 35 24 28 39 36 41 34 27 26 31 33 35 36 32 33 34 38
18 20 20 19 17 16 13 10 7 4 0 1 3 5 7 11 10 9 19 23 21 22 24 30 29 31 20 24 24 30 27 28 28 29 28 30 30 37 36 34 34 35 40
19 20 18 15 15 18 13 12 11 7 4 3 3 6 8 9 11 14 11 18 21 18 17 22 18 15 18 19 20 22 25 21 20 25 27 32 34 36 33 30 31 34 38
24 25 18 9 13 19 15 11 13 9 7 5 4 6 6 8 8 12 15 15 16 20 21 21 19 18 14 15 17 17 19 22 24 25 28 28 29 30 29 30 34 37 39
22 26 19 12 14 20 18 10 14 12 10 8 6 4 5 6 8 10 11 11 13 18 19 18 18 21 22 20 19 17 18 21 21 20 26 28 29 29 30 32 34 37 38
1 24 23 13 9 17 20 16 13 14 11 9 7 6 5 6 7 8 10 11 11 11 11 12 14 15 16 16 16 17 18 18 19 23 28 31 31 31 33 34 35 38 39
9 18 22 17 18 14 22 21 18 15 14 11 9 9 8 9 10 10 10 11 11 11 12 13 12 13 13 13 15 18 20 20 25 28 29 31 32 33 33 33 38 39 41
8 4 10 24 18 20 18 25 23 18 16 14 12 11 10 11 13 14 13 13 13 13 14 14 15 16 17 20 20 21 22 24 25 25 27 29 31 32 35 40 40 40 43
13 9 15 16 30 18 17 19 26 23 18 16 14 14 14 13 13 14 16 16 15 17 19 20 20 20 21 20 22 23 25 26 26 28 34 37 38 39 38 44 54 43 44
19 15 11 19 21 32 12 17 19 24 22 20 18 15 15 15 16 16 17 19 19 18 20 22 23 24 24 23 24 24 27 31 34 34 34 38 40 52 54 53 39 45 41
17 19 14 21 17 24 27 13 18 22 23 23 21 19 16 17 19 20 20 20 19 21 21 22 24 24 26 26 27 29 31 31 30 32 35 42 48 52 52 37 38 49 48
20 17 12 13 14 20 26 19 16 17 20 24 25 23 22 21 20 22 24 25 25 26 27 29 29 28 32 31 32 30 27 32 35 37 44 50 49 33 43 46 47 50 53
18 19 18 16 17 17 20 19 20 20 24 24 24 28 24 24 27 28 28 29 30 30 31 31 30 30 30 29 29 33 37 39 42 44 41 32 40 41 42 45 47 46 45
21 18 20 21 17 14 13 16 21 23 24 24 23 24 29 31 33 36 34 32 33 32 30 29 29 30 32 32 34 33 32 37 42 34 39 43 47 45 43 40 40 41 43
34 29 24 20 18 16 18 21 23 26 25 26 28 26 32 27 31 38 32 28 29 33 30 31 33 32 29 30 35 39 32 28 36 42 40 38 36 36 37 40 42 44 47
30 33 34 30 25 23 22 21 24 25 25 24 27 31 35 38 36 34 38 35 38 38 34 32 29 28 33 31 26 30 38 38 30 29 30 32 35 37 40 43 45 47 48
30 24 26 29 31 31 29 29 29 30 30 29 29 29 37 40 41 43 39 38 35 35 35 27 29 30 29 31 33 30 25 23 26 28 30 32 35 38 41 43 45 46 47
29 17 12 15 22 26 32 35 35 33 30 30 30 34 34 32 35 36 36 34 37 33 28 28 27 27 29 24 20 21 21 23 25 28 31 33 35 37 39 41 42 43 43
17 16 16 15 12 17 23 26 28 27 28 28 31 31 33 34 35 35 39 42 32 29 26 22 20 15 14 14 15 18 21 24 27 30 32 34 35 37 39 40 40 40 41

GFSMW_700_spd_108.txt.gz
Wind_Speed
30 34 29 29 26 23 19 19 21 25 16 13 11 12 15 14 12 21 20 29 37 43 38 36 33 38 35 36 37 37 35 32 31 29 27 25 22 18 13 10 11 9 9
22 32 37 33 28 21 18 18 19 22 18 15 14 13 14 16 17 19 24 24 34 37 40 38 38 37 34 41 40 39 38 36 34 32 29 28 25 18 14 13 15 12 9
27 29 27 25 29 22 17 18 19 20 18 14 17 17 17 19 23 28 30 34 32 36 39 37 41 42 39 38 42 41 40 37 37 35 33 31 27 18 16 13 13 12 11
27 33 29 23 22 20 18 18 19 19 16 14 15 18 18 20 23 25 30 37 39 42 41 37 44 46 43 43 42 43 42 40 39 36 34 31 22 23 22 16 12 14 13
24 32 32 31 21 20 19 20 17 18 15 14 13 17 18 17 23 24 29 45 47 49 48 42 36 46 47 45 43 44 45 44 38 37 38 35 32 26 25 18 16 18 17
25 26 34 31 26 22 24 21 16 16 14 13 11 13 17 19 22 22 26 41 50 53 51 46 37 48 46 48 43 50 46 36 39 37 39 35 37 31 30 22 22 25 24
26 29 29 34 30 26 22 17 15 14 14 11 8 11 17 13 17 22 23 29 42 44 55 46 47 47 47 45 40 48 40 42 39 38 36 37 31 29 21 29 25 27 28
23 24 28 35 31 26 18 16 15 13 12 8 5 8 14 12 14 17 15 25 30 43 33 47 48 47 41 43 40 42 52 49 43 45 39 38 38 29 30 30 32 31 31
19 15 29 33 27 22 20 17 14 13 9 5 2 3 9 14 12 10 12 16 26 33 34 37 55 40 40 35 24 45 43 46 38 41 40 31 23 24 25 29 29 31 37
14 14 19 21 19 20 21 19 16 14 10 5 3 3 3 8 10 10 15 13 19 9 18 32 40 46 41 42 26 39 34 33 29 24 35 30 25 23 26 30 34 37 38
18 24 22 14 12 21 23 20 18 16 10 7 6 6 6 4 7 9 10 15 16 14 16 19 36 40 32 38 24 20 19 20 19 20 21 21 24 26 28 28 32 36 37
2 21 33 24 10 21 25 21 19 17 14 10 7 8 7 8 6 10 10 13 16 16 16 16 20 28 25 19 22 20 13 16 17 20 23 23 23 27 30 33 34 34 33
7 6 34 28 15 17 26 23 19 19 17 14 11 9 9 8 9 8 11 12 12 15 17 17 22 24 25 23 23 20 20 19 19 22 24 25 28 29 32 32 33 34 35
12 20 18 35 25 17 23 26 20 20 18 16 14 11 10 10 10 9 10 11 13 13 15 16 17 20 21 20 20 22 22 21 26 27 26 27 28 29 31 34 37 38 39
19 8 10 22 30 25 20 24 26 22 20 18 14 12 13 13 14 14 13 14 14 15 16 16 18 18 19 20 20 21 23 25 24 24 28 28 28 32 36 36 36 39 40
12 17 11 8 26 25 25 22 26 26 23 20 17 15 16 17 16 17 17 16 18 19 19 19 19 19 19 19 19 20 23 25 27 28 30 32 32 32 40 49 44 43 44
9 13 12 12 6 20 27 23 22 25 28 26 22 20 19 19 20 19 19 21 21 20 20 19 19 19 20 21 23 25 26 27 27 32 32 32 39 41 45 44 54 56 52
13 17 10 10 11 10 23 22 22 20 23 29 27 26 24 22 22 23 23 23 22 21 21 21 23 24 24 23 24 26 29 29 28 32 35 44 46 45 48 52 56 37 37
14 16 13 10 16 11 15 23 24 18 20 23 27 29 29 27 24 24 23 23 23 23 24 25 26 26 27 28 28 26 26 33 37 41 42 43 56 52 46 44 35 41 42
12 12 15 13 12 15 16 20 13 23 20 21 22 23 30 29 27 28 28 27 27 28 29 30 29 27 27 28 31 33 30 32 32 39 46 52 45 41 34 40 37 35 39
22 19 16 18 14 12 15 18 18 19 20 24 19 21 24 30 32 32 32 31 31 31 31 30 30 31 32 33 33 33 36 40 41 43 45 37 33 34 33 32 35 38 41
23 25 25 22 22 16 17 17 20 19 21 19 19 19 23 21 20 24 26 27 28 29 32 33 34 31 37 38 37 44 45 38 36 41 36 33 31 30 30 35 39 39 41
24 26 26 25 32 28 20 18 20 20 21 20 21 21 22 21 28 28 28 26 26 35 31 34 42 42 42 45 50 37 31 39 36 31 29 25 27 27 30 36 39 40 42
23 24 28 29 25 32 31 24 20 22 23 22 20 22 22 26 28 29 34 36 41 42 43 43 52 46 46 47 38 32 30 24 18 18 20 22 26 31 35 37 39 41 42
19 20 20 20 21 24 29 30 30 28 26 26 28 29 31 32 31 30 37 39 44 45 51 47 41 32 31 17 14 13 15 14 16 19 22 26 29 33 35 36 38 39 41
13 13 13 14 13 14 17 23 27 31 33 32 32 32 33 31 29 28 35 43 47 42 29 29 25 17 12 12 10 11 12 15 18 21 25 27 28 30 33 35 36 37 38

GFSMW_700_spd_111.txt.gz
Wind_Speed
30 25 26 27 22 24 26 26 27 23 22 24 19 18 20 14 5 6 18 40 45 40 46 48 45 43 43 42 41 39 37 37 33 29 28 27 24 20 18 13 12 13 13
34 24 25 32 32 27 28 24 26 22 20 23 18 19 18 13 10 8 8 25 35 42 50 47 45 43 42 44 42 41 40 39 34 32 29 29 28 24 20 17 14 11 13
36 28 27 21 23 27 27 25 24 21 19 22 18 18 19 17 17 18 19 14 31 38 39 41 42 42 41 41 40 40 41 39 38 35 33 33 31 25 24 20 19 15 14
21 24 23 25 24 18 24 26 24 19 19 21 18 16 18 18 16 20 21 23 23 38 46 45 43 41 42 41 40 41 40 39 41 38 36 33 30 27 29 24 22 16 17
23 27 25 21 23 24 22 26 24 18 19 19 17 17 18 19 19 21 22 24 28 37 36 45 43 45 45 44 41 43 44 42 41 39 39 36 32 31 30 29 22 24 22
25 29 32 27 25 29 28 27 25 18 19 18 17 17 18 21 23 23 26 28 31 38 40 43 46 47 48 48 45 42 44 44 42 41 39 35 35 34 37 34 28 29 25
24 31 37 31 23 28 32 29 22 20 18 17 16 17 19 21 23 24 26 30 33 40 47 45 48 48 41 49 48 46 45 45 48 43 42 42 38 39 39 39 38 36 27
22 31 35 26 22 30 33 30 20 19 17 15 15 16 18 19 20 19 21 28 32 38 49 50 53 49 47 40 53 50 46 48 48 46 49 45 39 36 37 32 26 22 30
15 24 30 24 22 30 34 27 19 19 17 14 13 12 15 14 15 13 17 18 23 31 43 48 50 57 43 43 48 48 45 45 45 41 44 41 39 37 35 33 26 28 32
28 25 27 29 26 29 33 26 21 20 16 14 10 10 10 10 13 12 11 10 11 22 24 35 45 54 50 45 43 43 39 31 45 39 41 33 34 36 35 24 30 31 31
11 10 17 18 28 31 33 25 24 21 17 13 9 7 7 7 9 10 7 13 12 7 13 32 28 40 48 40 44 43 35 21 34 38 32 30 27 27 33 27 28 29 28
8 6 8 12 23 31 32 26 25 20 17 15 10 8 7 6 8 6 8 7 11 11 14 13 20 26 36 38 41 40 37 34 36 36 22 18 19 22 26 29 25 30 33
5 4 8 24 30 32 31 29 27 22 19 16 13 10 8 8 9 10 9 9 10 12 10 11 18 27 34 36 24 28 26 18 18 25 22 20 23 28 27 28 32 36 37
8 8 10 26 27 35 31 28 29 25 22 19 16 12 10 9 10 11 11 11 8 7 10 11 14 15 19 36 29 25 26 26 23 24 24 25 26 28 32 36 33 33 34
4 4 11 13 32 31 26 27 28 27 26 23 19 14 12 11 11 10 12 14 14 12 12 13 16 20 23 26 27 26 29 29 30 30 30 31 31 32 30 33 32 36 39
7 11 8 7 26 27 23 23 27 28 28 27 24 20 16 15 14 13 12 13 15 17 17 16 17 17 18 22 25 27 26 26 27 28 29 28 28 30 32 33 36 36 41
21 14 7 14 17 18 22 25 27 28 29 29 28 25 22 19 18 17 18 18 16 16 16 17 18 19 21 23 24 26 26 28 29 28 28 30 32 32 36 33 40 52 49
15 18 19 9 13 10 20 11 17 25 26 29 31 29 26 25 24 23 21 21 20 20 19 19 20 21 22 24 25 27 27 27 28 31 32 33 38 36 42 47 46 51 53
14 15 11 10 14 13 14 20 14 15 26 29 28 29 29 28 27 27 25 24 24 24 24 24 24 25 26 27 27 27 28 29 29 33 39 34 38 39 43 44 47 57 41
19 15 17 12 13 12 20 22 25 23 13 27 32 29 27 30 28 29 29 28 27 27 27 28 29 30 30 30 29 29 32 32 33 35 35 41 42 43 47 52 46 38 40
16 19 19 17 15 14 10 18 21 22 16 14 21 30 23 17 22 27 29 30 30 31 31 32 32 33 33 31 29 28 30 34 38 42 43 52 49 52 49 41 38 34 30
16 16 19 21 23 18 16 14 21 21 19 20 20 29 28 20 16 16 22 28 31 34 35 34 32 28 29 30 32 35 37 40 45 51 48 43 38 37 31 32 26 25 31
17 18 19 18 22 20 18 19 19 19 17 21 23 26 22 22 29 19 21 24 22 23 32 27 28 28 33 38 35 46 47 47 57 42 33 31 25 21 22 24 28 31 33
17 21 18 16 18 21 19 20 22 20 20 23 21 20 13 16 18 21 23 32 32 38 41 28 38 39 39 43 47 52 46 36 27 23 20 18 19 19 22 25 27 30 34
21 12 16 17 14 15 18 19 26 27 23 22 23 21 21 23 24 27 28 32 29 33 39 50 50 51 49 43 37 26 11 14 16 16 15 14 18 22 24 26 29 31 34
22 12 8 9 9 10 13 17 23 30 30 31 31 29 29 29 26 28 30 33 47 44 50 41 30 27 17 19 16 15 15 14 12 14 16 17 19 22 24 27 30 32 34

GFSMW_700_spd_114.txt.gz
Wind_Speed
29 31 33 33 30 31 26 24 22 26 25 27 28 25 22 19 17 19 21 21 27 41 51 43 48 37 48 45 43 38 36 36 33 29 28 28 25 24 21 17 15 13 12
32 31 28 31 27 28 26 26 26 24 24 25 27 24 21 18 17 17 16 11 22 32 36 45 43 44 48 48 45 42 42 39 34 32 30 28 28 27 23 19 15 12 10
31 30 23 29 28 26 28 28 30 26 23 25 24 22 21 17 19 17 14 4 23 30 30 42 44 48 47 47 46 43 41 38 36 33 33 32 33 26 24 20 19 20 13
22 21 18 25 23 28 23 24 29 27 25 25 22 21 21 14 15 17 16 7 12 32 33 44 48 48 47 46 45 42 41 39 40 37 37 33 30 28 26 23 19 21 19
23 21 20 22 23 21 27 21 21 25 27 24 22 20 21 14 15 17 17 17 15 14 36 47 50 49 45 45 44 44 43 41 38 36 35 33 32 28 28 24 23 27 24
34 24 21 22 24 15 20 25 24 26 28 24 22 20 20 16 16 19 19 19 20 19 21 39 42 43 44 45 45 44 44 43 40 38 38 36 31 31 33 33 37 31 26
25 24 22 22 24 27 23 23 27 28 27 23 22 19 19 18 16 18 19 23 23 26 28 35 41 44 45 45 46 45 44 43 39 39 40 37 33 33 37 38 35 39 37
26 26 24 22 27 30 30 23 29 30 27 23 20 18 19 18 16 19 21 23 25 28 30 35 35 40 46 48 48 47 45 45 44 44 43 41 39 38 42 39 38 38 37
21 25 24 29 26 36 32 26 30 30 27 23 19 17 17 16 15 16 18 20 22 26 33 40 43 48 48 50 49 48 49 55 53 51 47 46 52 45 43 37 48 47 34
30 30 33 29 36 34 34 30 33 29 27 23 18 15 15 14 14 15 17 17 19 22 36 39 42 44 50 49 54 49 49 48 48 46 41 45 47 44 44 42 40 30 30
40 25 26 34 34 39 34 33 33 30 28 23 17 13 12 12 12 15 15 11 16 15 25 27 33 49 41 54 45 47 42 40 44 38 40 37 43 34 34 31 32 31 28
29 20 19 22 33 35 30 33 34 30 28 22 16 12 11 10 10 14 14 10 12 13 8 14 19 31 22 45 44 38 39 34 42 31 33 30 31 32 28 21 22 27 29
32 25 11 10 13 25 29 33 32 28 28 23 17 13 10 9 10 10 10 8 10 9 8 7 18 20 18 28 37 36 34 35 35 19 28 30 33 32 26 25 26 24 26
26 13 8 9 11 10 26 31 29 30 29 24 19 15 12 10 9 9 9 8 9 9 7 8 12 15 21 20 11 29 23 18 37 40 24 25 26 29 26 25 25 28 33
38 27 20 5 4 10 14 27 30 32 30 27 23 19 16 13 11 10 9 9 10 11 12 10 10 12 13 15 16 28 22 27 27 26 27 27 26 29 29 28 33 34 34
36 29 26 8 3 7 14 27 28 31 33 30 26 23 18 16 14 12 12 10 9 8 9 10 13 13 17 18 26 28 22 24 28 29 31 31 32 32 33 32 34 32 37
29 24 25 22 11 8 19 28 32 30 33 32 29 26 23 20 17 16 16 15 13 12 10 10 11 14 16 22 27 27 29 27 30 31 30 31 31 30 30 30 33 32 38
20 23 19 23 16 11 16 20 34 35 32 31 32 29 25 24 21 20 18 17 17 16 15 14 15 15 17 19 22 24 26 27 28 28 29 29 26 28 33 31 36 39 40
23 20 23 24 14 13 10 24 25 32 30 26 25 27 26 26 25 24 22 20 19 19 19 18 18 19 20 22 23 24 26 28 29 29 29 28 33 32 33 40 42 45 49
20 20 20 22 18 14 10 6 19 29 26 35 26 20 15 23 27 27 26 25 23 23 23 23 23 24 24 25 25 26 27 28 29 29 29 29 32 35 40 41 43 50 47
13 14 15 19 19 18 13 11 10 18 25 22 39 32 28 26 25 28 29 27 27 27 27 27 28 29 29 27 26 25 26 28 30 30 34 33 36 41 45 52 53 47 36
16 16 17 16 15 16 15 11 7 10 22 21 19 20 29 38 35 24 22 24 25 26 28 30 29 28 27 26 27 31 28 28 31 34 41 46 48 49 51 39 27 24 23
15 17 18 16 15 14 16 13 10 13 14 15 23 23 28 22 41 26 15 15 12 14 17 19 22 26 27 27 30 31 34 34 44 44 45 45 36 25 20 22 23 22 23
13 17 20 19 16 14 17 18 16 14 14 16 15 26 25 31 28 29 24 27 22 26 24 29 29 29 28 32 35 41 39 49 42 43 29 19 19 20 20 16 18 20 22
13 13 16 18 18 15 18 21 20 21 20 16 20 22 19 11 10 15 18 21 25 24 26 29 29 27 32 37 45 44 34 29 20 14 16 18 18 15 15 18 19 21 23
14 16 12 11 13 14 15 19 25 24 26 24 21 25 24 24 21 23 23 29 33 31 35 34 37 40 37 36 27 19 15 14 17 18 12 9 11 13 15 17 19 22 24